<?xml version="1.0" encoding="UTF-8" standalone="yes"?>
<gpx
 xmlns="http://www.topografix.com/GPX/1/1"
 creator="OziExplorer Version 3956f - http://www.oziexplorer.com"
 version="1.1"
 xmlns:xsi="http://www.w3.org/2001/XMLSchema-instance"
 xsi:schemaLocation="http://www.topografix.com/GPX/1/1 http://www.topografix.com/GPX/1/1/gpx.xsd">
<metadata>
 <time>2020-09-01T08:51:30Z</time>
 <bounds minlat="31.766860" minlon="34.955180" maxlat="31.813180" maxlon="35.018250"/>
</metadata>
<trk>
 <name>Burma-Psalim,35km.820m</name>
 <desc>Burma-Psalim,35km.820m</desc>
<trkseg>
<trkpt lat="31.8107700" lon="35.0144600">
<ele>275.940002</ele>
<time>2020-09-01T11:51:30.666Z</time>
</trkpt>
<trkpt lat="31.8107900" lon="35.0144700">
<ele>275.899994</ele>
<time>2020-09-01T11:51:30.666Z</time>
</trkpt>
<trkpt lat="31.8109800" lon="35.0141300">
<ele>276.510010</ele>
<time>2020-09-01T11:51:30.666Z</time>
</trkpt>
<trkpt lat="31.8112900" lon="35.0136000">
<ele>275.919983</ele>
<time>2020-09-01T11:51:30.666Z</time>
</trkpt>
<trkpt lat="31.8114200" lon="35.0133100">
<ele>275.440002</ele>
<time>2020-09-01T11:51:30.666Z</time>
</trkpt>
<trkpt lat="31.8115100" lon="35.0128900">
<ele>276.049988</ele>
<time>2020-09-01T11:51:30.666Z</time>
</trkpt>
<trkpt lat="31.8117400" lon="35.0121400">
<ele>278.790009</ele>
<time>2020-09-01T11:51:30.666Z</time>
</trkpt>
<trkpt lat="31.8119800" lon="35.0111200">
<ele>275.480011</ele>
<time>2020-09-01T11:51:30.666Z</time>
</trkpt>
<trkpt lat="31.8120900" lon="35.0107100">
<ele>270.260010</ele>
<time>2020-09-01T11:51:30.666Z</time>
</trkpt>
<trkpt lat="31.8121500" lon="35.0105700">
<ele>269.830017</ele>
<time>2020-09-01T11:51:30.666Z</time>
</trkpt>
<trkpt lat="31.8121400" lon="35.0104800">
<ele>268.979980</ele>
<time>2020-09-01T11:51:30.666Z</time>
</trkpt>
<trkpt lat="31.8121700" lon="35.0102300">
<ele>267.779999</ele>
<time>2020-09-01T11:51:30.666Z</time>
</trkpt>
<trkpt lat="31.8122200" lon="35.0098500">
<ele>266.440002</ele>
<time>2020-09-01T11:51:30.666Z</time>
</trkpt>
<trkpt lat="31.8122700" lon="35.0089200">
<ele>261.950012</ele>
<time>2020-09-01T11:51:30.666Z</time>
</trkpt>
<trkpt lat="31.8123000" lon="35.0085900">
<ele>260.880005</ele>
<time>2020-09-01T11:51:30.667Z</time>
</trkpt>
<trkpt lat="31.8123100" lon="35.0080400">
<ele>260.549988</ele>
<time>2020-09-01T11:51:30.667Z</time>
</trkpt>
<trkpt lat="31.8123400" lon="35.0072300">
<ele>260.979980</ele>
<time>2020-09-01T11:51:30.667Z</time>
</trkpt>
<trkpt lat="31.8123700" lon="35.0068400">
<ele>261.480011</ele>
<time>2020-09-01T11:51:30.667Z</time>
</trkpt>
<trkpt lat="31.8124300" lon="35.0059600">
<ele>260.209991</ele>
<time>2020-09-01T11:51:30.667Z</time>
</trkpt>
<trkpt lat="31.8124800" lon="35.0056800">
<ele>258.220001</ele>
<time>2020-09-01T11:51:30.667Z</time>
</trkpt>
<trkpt lat="31.8124800" lon="35.0052300">
<ele>258.779999</ele>
<time>2020-09-01T11:51:30.667Z</time>
</trkpt>
<trkpt lat="31.8124800" lon="35.0052300">
<ele>258.779999</ele>
<time>2020-09-01T11:51:30.667Z</time>
</trkpt>
<trkpt lat="31.8124800" lon="35.0052300">
<ele>258.779999</ele>
<time>2020-09-01T11:51:30.667Z</time>
</trkpt>
<trkpt lat="31.8124900" lon="35.0051300">
<ele>258.890015</ele>
<time>2020-09-01T11:51:30.667Z</time>
</trkpt>
<trkpt lat="31.8121200" lon="35.0053400">
<ele>255.550003</ele>
<time>2020-09-01T11:51:30.667Z</time>
</trkpt>
<trkpt lat="31.8120700" lon="35.0053700">
<ele>255.340012</ele>
<time>2020-09-01T11:51:30.667Z</time>
</trkpt>
<trkpt lat="31.8120000" lon="35.0053800">
<ele>255.259995</ele>
<time>2020-09-01T11:51:30.667Z</time>
</trkpt>
<trkpt lat="31.8119300" lon="35.0054200">
<ele>255.210007</ele>
<time>2020-09-01T11:51:30.667Z</time>
</trkpt>
<trkpt lat="31.8117900" lon="35.0054100">
<ele>257.540009</ele>
<time>2020-09-01T11:51:30.667Z</time>
</trkpt>
<trkpt lat="31.8116900" lon="35.0052900">
<ele>259.619995</ele>
<time>2020-09-01T11:51:30.667Z</time>
</trkpt>
<trkpt lat="31.8116200" lon="35.0051000">
<ele>260.089996</ele>
<time>2020-09-01T11:51:30.667Z</time>
</trkpt>
<trkpt lat="31.8115400" lon="35.0044700">
<ele>257.049988</ele>
<time>2020-09-01T11:51:30.667Z</time>
</trkpt>
<trkpt lat="31.8115200" lon="35.0043900">
<ele>256.429993</ele>
<time>2020-09-01T11:51:30.667Z</time>
</trkpt>
<trkpt lat="31.8114600" lon="35.0042400">
<ele>255.580002</ele>
<time>2020-09-01T11:51:30.667Z</time>
</trkpt>
<trkpt lat="31.8113800" lon="35.0041500">
<ele>255.859985</ele>
<time>2020-09-01T11:51:30.667Z</time>
</trkpt>
<trkpt lat="31.8112400" lon="35.0040100">
<ele>255.559998</ele>
<time>2020-09-01T11:51:30.667Z</time>
</trkpt>
<trkpt lat="31.8110400" lon="35.0038500">
<ele>253.370010</ele>
<time>2020-09-01T11:51:30.667Z</time>
</trkpt>
<trkpt lat="31.8109400" lon="35.0037900">
<ele>250.919998</ele>
<time>2020-09-01T11:51:30.667Z</time>
</trkpt>
<trkpt lat="31.8107700" lon="35.0037500">
<ele>248.770004</ele>
<time>2020-09-01T11:51:30.667Z</time>
</trkpt>
<trkpt lat="31.8106900" lon="35.0037500">
<ele>248.479996</ele>
<time>2020-09-01T11:51:30.668Z</time>
</trkpt>
<trkpt lat="31.8103800" lon="35.0038500">
<ele>243.740005</ele>
<time>2020-09-01T11:51:30.668Z</time>
</trkpt>
<trkpt lat="31.8101800" lon="35.0039400">
<ele>242.959991</ele>
<time>2020-09-01T11:51:30.668Z</time>
</trkpt>
<trkpt lat="31.8100700" lon="35.0040300">
<ele>245.649994</ele>
<time>2020-09-01T11:51:30.668Z</time>
</trkpt>
<trkpt lat="31.8096500" lon="35.0045500">
<ele>252.699997</ele>
<time>2020-09-01T11:51:30.668Z</time>
</trkpt>
<trkpt lat="31.8095400" lon="35.0047200">
<ele>252.669998</ele>
<time>2020-09-01T11:51:30.668Z</time>
</trkpt>
<trkpt lat="31.8093900" lon="35.0050500">
<ele>256.970001</ele>
<time>2020-09-01T11:51:30.668Z</time>
</trkpt>
<trkpt lat="31.8093300" lon="35.0051100">
<ele>258.179993</ele>
<time>2020-09-01T11:51:30.668Z</time>
</trkpt>
<trkpt lat="31.8092400" lon="35.0051700">
<ele>259.760010</ele>
<time>2020-09-01T11:51:30.668Z</time>
</trkpt>
<trkpt lat="31.8090600" lon="35.0051600">
<ele>260.410004</ele>
<time>2020-09-01T11:51:30.668Z</time>
</trkpt>
<trkpt lat="31.8088300" lon="35.0050500">
<ele>259.829987</ele>
<time>2020-09-01T11:51:30.668Z</time>
</trkpt>
<trkpt lat="31.8086500" lon="35.0049900">
<ele>258.170013</ele>
<time>2020-09-01T11:51:30.668Z</time>
</trkpt>
<trkpt lat="31.8082600" lon="35.0049900">
<ele>256.709991</ele>
<time>2020-09-01T11:51:30.668Z</time>
</trkpt>
<trkpt lat="31.8081800" lon="35.0049500">
<ele>257.200012</ele>
<time>2020-09-01T11:51:30.668Z</time>
</trkpt>
<trkpt lat="31.8080000" lon="35.0048600">
<ele>258.089996</ele>
<time>2020-09-01T11:51:30.668Z</time>
</trkpt>
<trkpt lat="31.8078400" lon="35.0047500">
<ele>258.010010</ele>
<time>2020-09-01T11:51:30.668Z</time>
</trkpt>
<trkpt lat="31.8076700" lon="35.0047000">
<ele>255.040009</ele>
<time>2020-09-01T11:51:30.668Z</time>
</trkpt>
<trkpt lat="31.8074600" lon="35.0047000">
<ele>250.740005</ele>
<time>2020-09-01T11:51:30.668Z</time>
</trkpt>
<trkpt lat="31.8069100" lon="35.0049900">
<ele>251.960007</ele>
<time>2020-09-01T11:51:30.668Z</time>
</trkpt>
<trkpt lat="31.8068200" lon="35.0050400">
<ele>252.750000</ele>
<time>2020-09-01T11:51:30.668Z</time>
</trkpt>
<trkpt lat="31.8068200" lon="35.0050400">
<ele>252.750000</ele>
<time>2020-09-01T11:51:30.668Z</time>
</trkpt>
<trkpt lat="31.8068200" lon="35.0050400">
<ele>252.750000</ele>
<time>2020-09-01T11:51:30.668Z</time>
</trkpt>
<trkpt lat="31.8069100" lon="35.0049900">
<ele>251.960007</ele>
<time>2020-09-01T11:51:30.668Z</time>
</trkpt>
<trkpt lat="31.8068500" lon="35.0049400">
<ele>251.550003</ele>
<time>2020-09-01T11:51:30.668Z</time>
</trkpt>
<trkpt lat="31.8067600" lon="35.0048100">
<ele>251.060013</ele>
<time>2020-09-01T11:51:30.668Z</time>
</trkpt>
<trkpt lat="31.8067000" lon="35.0046500">
<ele>252.669998</ele>
<time>2020-09-01T11:51:30.668Z</time>
</trkpt>
<trkpt lat="31.8066700" lon="35.0045000">
<ele>255.929993</ele>
<time>2020-09-01T11:51:30.668Z</time>
</trkpt>
<trkpt lat="31.8068400" lon="35.0043300">
<ele>255.929993</ele>
<time>2020-09-01T11:51:30.668Z</time>
</trkpt>
<trkpt lat="31.8069100" lon="35.0042200">
<ele>257.809998</ele>
<time>2020-09-01T11:51:30.668Z</time>
</trkpt>
<trkpt lat="31.8069700" lon="35.0041200">
<ele>259.779999</ele>
<time>2020-09-01T11:51:30.668Z</time>
</trkpt>
<trkpt lat="31.8070400" lon="35.0040200">
<ele>260.979980</ele>
<time>2020-09-01T11:51:30.668Z</time>
</trkpt>
<trkpt lat="31.8072200" lon="35.0038800">
<ele>260.179993</ele>
<time>2020-09-01T11:51:30.669Z</time>
</trkpt>
<trkpt lat="31.8073500" lon="35.0037500">
<ele>260.160004</ele>
<time>2020-09-01T11:51:30.669Z</time>
</trkpt>
<trkpt lat="31.8074100" lon="35.0036500">
<ele>260.739990</ele>
<time>2020-09-01T11:51:30.669Z</time>
</trkpt>
<trkpt lat="31.8074800" lon="35.0035400">
<ele>260.639984</ele>
<time>2020-09-01T11:51:30.669Z</time>
</trkpt>
<trkpt lat="31.8075800" lon="35.0032700">
<ele>261.589996</ele>
<time>2020-09-01T11:51:30.669Z</time>
</trkpt>
<trkpt lat="31.8076000" lon="35.0032400">
<ele>261.910004</ele>
<time>2020-09-01T11:51:30.669Z</time>
</trkpt>
<trkpt lat="31.8077200" lon="35.0031500">
<ele>263.369995</ele>
<time>2020-09-01T11:51:30.669Z</time>
</trkpt>
<trkpt lat="31.8077300" lon="35.0031500">
<ele>263.410004</ele>
<time>2020-09-01T11:51:30.669Z</time>
</trkpt>
<trkpt lat="31.8077300" lon="35.0031500">
<ele>263.410004</ele>
<time>2020-09-01T11:51:30.669Z</time>
</trkpt>
<trkpt lat="31.8077300" lon="35.0031500">
<ele>263.410004</ele>
<time>2020-09-01T11:51:30.669Z</time>
</trkpt>
<trkpt lat="31.8077200" lon="35.0031500">
<ele>263.369995</ele>
<time>2020-09-01T11:51:30.669Z</time>
</trkpt>
<trkpt lat="31.8076000" lon="35.0032400">
<ele>261.910004</ele>
<time>2020-09-01T11:51:30.669Z</time>
</trkpt>
<trkpt lat="31.8075800" lon="35.0032700">
<ele>261.589996</ele>
<time>2020-09-01T11:51:30.669Z</time>
</trkpt>
<trkpt lat="31.8075800" lon="35.0029900">
<ele>265.260010</ele>
<time>2020-09-01T11:51:30.669Z</time>
</trkpt>
<trkpt lat="31.8076500" lon="35.0029100">
<ele>267.419983</ele>
<time>2020-09-01T11:51:30.669Z</time>
</trkpt>
<trkpt lat="31.8082800" lon="35.0027500">
<ele>261.239990</ele>
<time>2020-09-01T11:51:30.669Z</time>
</trkpt>
<trkpt lat="31.8083900" lon="35.0026100">
<ele>263.050018</ele>
<time>2020-09-01T11:51:30.669Z</time>
</trkpt>
<trkpt lat="31.8086700" lon="35.0019600">
<ele>273.459991</ele>
<time>2020-09-01T11:51:30.669Z</time>
</trkpt>
<trkpt lat="31.8088900" lon="35.0017500">
<ele>277.889984</ele>
<time>2020-09-01T11:51:30.669Z</time>
</trkpt>
<trkpt lat="31.8088900" lon="35.0017500">
<ele>277.889984</ele>
<time>2020-09-01T11:51:30.669Z</time>
</trkpt>
<trkpt lat="31.8088900" lon="35.0017500">
<ele>277.889984</ele>
<time>2020-09-01T11:51:30.669Z</time>
</trkpt>
<trkpt lat="31.8089000" lon="35.0017400">
<ele>278.079987</ele>
<time>2020-09-01T11:51:30.669Z</time>
</trkpt>
<trkpt lat="31.8094700" lon="35.0015900">
<ele>274.639984</ele>
<time>2020-09-01T11:51:30.669Z</time>
</trkpt>
<trkpt lat="31.8097800" lon="35.0013400">
<ele>272.839996</ele>
<time>2020-09-01T11:51:30.669Z</time>
</trkpt>
<trkpt lat="31.8099800" lon="35.0008900">
<ele>273.329987</ele>
<time>2020-09-01T11:51:30.669Z</time>
</trkpt>
<trkpt lat="31.8103600" lon="34.9998500">
<ele>274.679993</ele>
<time>2020-09-01T11:51:30.669Z</time>
</trkpt>
<trkpt lat="31.8106600" lon="34.9993400">
<ele>273.809998</ele>
<time>2020-09-01T11:51:30.669Z</time>
</trkpt>
<trkpt lat="31.8108100" lon="34.9991800">
<ele>271.610016</ele>
<time>2020-09-01T11:51:30.669Z</time>
</trkpt>
<trkpt lat="31.8109600" lon="34.9990700">
<ele>274.350006</ele>
<time>2020-09-01T11:51:30.670Z</time>
</trkpt>
<trkpt lat="31.8113400" lon="34.9989500">
<ele>276.140015</ele>
<time>2020-09-01T11:51:30.670Z</time>
</trkpt>
<trkpt lat="31.8117900" lon="34.9985100">
<ele>282.690002</ele>
<time>2020-09-01T11:51:30.670Z</time>
</trkpt>
<trkpt lat="31.8118900" lon="34.9984100">
<ele>283.350006</ele>
<time>2020-09-01T11:51:30.670Z</time>
</trkpt>
<trkpt lat="31.8123700" lon="34.9977500">
<ele>282.600006</ele>
<time>2020-09-01T11:51:30.670Z</time>
</trkpt>
<trkpt lat="31.8123700" lon="34.9977500">
<ele>282.600006</ele>
<time>2020-09-01T11:51:30.670Z</time>
</trkpt>
<trkpt lat="31.8126200" lon="34.9976000">
<ele>281.479980</ele>
<time>2020-09-01T11:51:30.670Z</time>
</trkpt>
<trkpt lat="31.8127600" lon="34.9975000">
<ele>282.000000</ele>
<time>2020-09-01T11:51:30.670Z</time>
</trkpt>
<trkpt lat="31.8128900" lon="34.9973600">
<ele>284.119995</ele>
<time>2020-09-01T11:51:30.670Z</time>
</trkpt>
<trkpt lat="31.8130700" lon="34.9971300">
<ele>286.299988</ele>
<time>2020-09-01T11:51:30.670Z</time>
</trkpt>
<trkpt lat="31.8131700" lon="34.9968800">
<ele>284.269989</ele>
<time>2020-09-01T11:51:30.670Z</time>
</trkpt>
<trkpt lat="31.8131800" lon="34.9967800">
<ele>284.369995</ele>
<time>2020-09-01T11:51:30.670Z</time>
</trkpt>
<trkpt lat="31.8131700" lon="34.9966100">
<ele>284.100006</ele>
<time>2020-09-01T11:51:30.670Z</time>
</trkpt>
<trkpt lat="31.8131200" lon="34.9964900">
<ele>283.350006</ele>
<time>2020-09-01T11:51:30.670Z</time>
</trkpt>
<trkpt lat="31.8130000" lon="34.9963400">
<ele>281.980011</ele>
<time>2020-09-01T11:51:30.670Z</time>
</trkpt>
<trkpt lat="31.8124600" lon="34.9958200">
<ele>276.059998</ele>
<time>2020-09-01T11:51:30.670Z</time>
</trkpt>
<trkpt lat="31.8120900" lon="34.9955200">
<ele>266.640015</ele>
<time>2020-09-01T11:51:30.670Z</time>
</trkpt>
<trkpt lat="31.8118000" lon="34.9953500">
<ele>260.209991</ele>
<time>2020-09-01T11:51:30.670Z</time>
</trkpt>
<trkpt lat="31.8116100" lon="34.9952900">
<ele>258.970001</ele>
<time>2020-09-01T11:51:30.670Z</time>
</trkpt>
<trkpt lat="31.8114000" lon="34.9952500">
<ele>262.279999</ele>
<time>2020-09-01T11:51:30.670Z</time>
</trkpt>
<trkpt lat="31.8112100" lon="34.9951900">
<ele>262.300018</ele>
<time>2020-09-01T11:51:30.670Z</time>
</trkpt>
<trkpt lat="31.8109600" lon="34.9951600">
<ele>260.779999</ele>
<time>2020-09-01T11:51:30.670Z</time>
</trkpt>
<trkpt lat="31.8107400" lon="34.9950900">
<ele>259.419983</ele>
<time>2020-09-01T11:51:30.670Z</time>
</trkpt>
<trkpt lat="31.8106600" lon="34.9950500">
<ele>259.279999</ele>
<time>2020-09-01T11:51:30.670Z</time>
</trkpt>
<trkpt lat="31.8105900" lon="34.9949600">
<ele>258.729980</ele>
<time>2020-09-01T11:51:30.670Z</time>
</trkpt>
<trkpt lat="31.8105600" lon="34.9948000">
<ele>258.259979</ele>
<time>2020-09-01T11:51:30.670Z</time>
</trkpt>
<trkpt lat="31.8105100" lon="34.9949200">
<ele>258.269989</ele>
<time>2020-09-01T11:51:30.670Z</time>
</trkpt>
<trkpt lat="31.8104200" lon="34.9949800">
<ele>257.500000</ele>
<time>2020-09-01T11:51:30.670Z</time>
</trkpt>
<trkpt lat="31.8102300" lon="34.9950200">
<ele>256.200012</ele>
<time>2020-09-01T11:51:30.670Z</time>
</trkpt>
<trkpt lat="31.8098800" lon="34.9950400">
<ele>257.670013</ele>
<time>2020-09-01T11:51:30.670Z</time>
</trkpt>
<trkpt lat="31.8089800" lon="34.9950300">
<ele>280.380005</ele>
<time>2020-09-01T11:51:30.670Z</time>
</trkpt>
<trkpt lat="31.8089100" lon="34.9950200">
<ele>280.989990</ele>
<time>2020-09-01T11:51:30.670Z</time>
</trkpt>
<trkpt lat="31.8087700" lon="34.9949700">
<ele>282.730011</ele>
<time>2020-09-01T11:51:30.670Z</time>
</trkpt>
<trkpt lat="31.8081500" lon="34.9944800">
<ele>277.640015</ele>
<time>2020-09-01T11:51:30.670Z</time>
</trkpt>
<trkpt lat="31.8079300" lon="34.9943100">
<ele>274.260010</ele>
<time>2020-09-01T11:51:30.670Z</time>
</trkpt>
<trkpt lat="31.8079300" lon="34.9943100">
<ele>274.260010</ele>
<time>2020-09-01T11:51:30.670Z</time>
</trkpt>
<trkpt lat="31.8079300" lon="34.9943100">
<ele>274.260010</ele>
<time>2020-09-01T11:51:30.671Z</time>
</trkpt>
<trkpt lat="31.8079300" lon="34.9943100">
<ele>274.260010</ele>
<time>2020-09-01T11:51:30.671Z</time>
</trkpt>
<trkpt lat="31.8079200" lon="34.9944000">
<ele>273.410004</ele>
<time>2020-09-01T11:51:30.671Z</time>
</trkpt>
<trkpt lat="31.8078900" lon="34.9944700">
<ele>272.250000</ele>
<time>2020-09-01T11:51:30.671Z</time>
</trkpt>
<trkpt lat="31.8076600" lon="34.9946400">
<ele>269.279999</ele>
<time>2020-09-01T11:51:30.671Z</time>
</trkpt>
<trkpt lat="31.8074700" lon="34.9948900">
<ele>269.649994</ele>
<time>2020-09-01T11:51:30.671Z</time>
</trkpt>
<trkpt lat="31.8072100" lon="34.9952900">
<ele>272.089996</ele>
<time>2020-09-01T11:51:30.671Z</time>
</trkpt>
<trkpt lat="31.8065700" lon="34.9958000">
<ele>276.190002</ele>
<time>2020-09-01T11:51:30.671Z</time>
</trkpt>
<trkpt lat="31.8060700" lon="34.9961200">
<ele>283.209991</ele>
<time>2020-09-01T11:51:30.671Z</time>
</trkpt>
<trkpt lat="31.8059800" lon="34.9961600">
<ele>283.899994</ele>
<time>2020-09-01T11:51:30.671Z</time>
</trkpt>
<trkpt lat="31.8059200" lon="34.9961800">
<ele>284.049988</ele>
<time>2020-09-01T11:51:30.671Z</time>
</trkpt>
<trkpt lat="31.8058100" lon="34.9962100">
<ele>284.170013</ele>
<time>2020-09-01T11:51:30.671Z</time>
</trkpt>
<trkpt lat="31.8055000" lon="34.9962100">
<ele>285.820007</ele>
<time>2020-09-01T11:51:30.671Z</time>
</trkpt>
<trkpt lat="31.8052800" lon="34.9961900">
<ele>288.130005</ele>
<time>2020-09-01T11:51:30.671Z</time>
</trkpt>
<trkpt lat="31.8051600" lon="34.9962200">
<ele>289.350006</ele>
<time>2020-09-01T11:51:30.671Z</time>
</trkpt>
<trkpt lat="31.8049700" lon="34.9963000">
<ele>290.529999</ele>
<time>2020-09-01T11:51:30.671Z</time>
</trkpt>
<trkpt lat="31.8047400" lon="34.9963600">
<ele>291.390015</ele>
<time>2020-09-01T11:51:30.671Z</time>
</trkpt>
<trkpt lat="31.8045800" lon="34.9963800">
<ele>293.700012</ele>
<time>2020-09-01T11:51:30.671Z</time>
</trkpt>
<trkpt lat="31.8041300" lon="34.9963800">
<ele>290.299988</ele>
<time>2020-09-01T11:51:30.671Z</time>
</trkpt>
<trkpt lat="31.8039800" lon="34.9964000">
<ele>286.380005</ele>
<time>2020-09-01T11:51:30.671Z</time>
</trkpt>
<trkpt lat="31.8036700" lon="34.9965300">
<ele>285.429993</ele>
<time>2020-09-01T11:51:30.671Z</time>
</trkpt>
<trkpt lat="31.8033400" lon="34.9966200">
<ele>287.489990</ele>
<time>2020-09-01T11:51:30.671Z</time>
</trkpt>
<trkpt lat="31.8032500" lon="34.9966300">
<ele>288.880005</ele>
<time>2020-09-01T11:51:30.671Z</time>
</trkpt>
<trkpt lat="31.8031700" lon="34.9966400">
<ele>290.179993</ele>
<time>2020-09-01T11:51:30.671Z</time>
</trkpt>
<trkpt lat="31.8028500" lon="34.9965900">
<ele>293.690002</ele>
<time>2020-09-01T11:51:30.671Z</time>
</trkpt>
<trkpt lat="31.8026900" lon="34.9966000">
<ele>295.860016</ele>
<time>2020-09-01T11:51:30.671Z</time>
</trkpt>
<trkpt lat="31.8024900" lon="34.9966600">
<ele>298.250000</ele>
<time>2020-09-01T11:51:30.671Z</time>
</trkpt>
<trkpt lat="31.8022400" lon="34.9967700">
<ele>300.109985</ele>
<time>2020-09-01T11:51:30.671Z</time>
</trkpt>
<trkpt lat="31.8020900" lon="34.9968500">
<ele>299.200012</ele>
<time>2020-09-01T11:51:30.671Z</time>
</trkpt>
<trkpt lat="31.8017900" lon="34.9970500">
<ele>302.549988</ele>
<time>2020-09-01T11:51:30.671Z</time>
</trkpt>
<trkpt lat="31.8016100" lon="34.9971700">
<ele>305.149994</ele>
<time>2020-09-01T11:51:30.671Z</time>
</trkpt>
<trkpt lat="31.8013900" lon="34.9973900">
<ele>313.019989</ele>
<time>2020-09-01T11:51:30.671Z</time>
</trkpt>
<trkpt lat="31.8012600" lon="34.9974700">
<ele>312.449982</ele>
<time>2020-09-01T11:51:30.671Z</time>
</trkpt>
<trkpt lat="31.8004100" lon="34.9979500">
<ele>320.390015</ele>
<time>2020-09-01T11:51:30.671Z</time>
</trkpt>
<trkpt lat="31.8002000" lon="34.9980300">
<ele>321.130005</ele>
<time>2020-09-01T11:51:30.672Z</time>
</trkpt>
<trkpt lat="31.7996700" lon="34.9981600">
<ele>321.380005</ele>
<time>2020-09-01T11:51:30.672Z</time>
</trkpt>
<trkpt lat="31.7989000" lon="34.9983100">
<ele>309.769989</ele>
<time>2020-09-01T11:51:30.672Z</time>
</trkpt>
<trkpt lat="31.7985600" lon="34.9984400">
<ele>313.080017</ele>
<time>2020-09-01T11:51:30.672Z</time>
</trkpt>
<trkpt lat="31.7979700" lon="34.9987400">
<ele>322.769989</ele>
<time>2020-09-01T11:51:30.672Z</time>
</trkpt>
<trkpt lat="31.7977100" lon="34.9988200">
<ele>331.889984</ele>
<time>2020-09-01T11:51:30.672Z</time>
</trkpt>
<trkpt lat="31.7969600" lon="34.9991200">
<ele>341.489990</ele>
<time>2020-09-01T11:51:30.672Z</time>
</trkpt>
<trkpt lat="31.7968300" lon="34.9991600">
<ele>343.090027</ele>
<time>2020-09-01T11:51:30.672Z</time>
</trkpt>
<trkpt lat="31.7965600" lon="34.9991500">
<ele>347.559998</ele>
<time>2020-09-01T11:51:30.672Z</time>
</trkpt>
<trkpt lat="31.7964700" lon="34.9991600">
<ele>348.850006</ele>
<time>2020-09-01T11:51:30.672Z</time>
</trkpt>
<trkpt lat="31.7961100" lon="34.9993200">
<ele>343.869995</ele>
<time>2020-09-01T11:51:30.672Z</time>
</trkpt>
<trkpt lat="31.7957100" lon="34.9994000">
<ele>339.110016</ele>
<time>2020-09-01T11:51:30.672Z</time>
</trkpt>
<trkpt lat="31.7955700" lon="34.9994700">
<ele>339.360016</ele>
<time>2020-09-01T11:51:30.672Z</time>
</trkpt>
<trkpt lat="31.7953000" lon="34.9996600">
<ele>342.929993</ele>
<time>2020-09-01T11:51:30.672Z</time>
</trkpt>
<trkpt lat="31.7951100" lon="34.9997600">
<ele>343.520020</ele>
<time>2020-09-01T11:51:30.672Z</time>
</trkpt>
<trkpt lat="31.7945600" lon="35.0001400">
<ele>344.179993</ele>
<time>2020-09-01T11:51:30.672Z</time>
</trkpt>
<trkpt lat="31.7943300" lon="35.0002500">
<ele>347.960022</ele>
<time>2020-09-01T11:51:30.672Z</time>
</trkpt>
<trkpt lat="31.7941200" lon="35.0003100">
<ele>350.639984</ele>
<time>2020-09-01T11:51:30.672Z</time>
</trkpt>
<trkpt lat="31.7938900" lon="35.0002200">
<ele>353.610016</ele>
<time>2020-09-01T11:51:30.672Z</time>
</trkpt>
<trkpt lat="31.7930700" lon="35.0002100">
<ele>362.369995</ele>
<time>2020-09-01T11:51:30.672Z</time>
</trkpt>
<trkpt lat="31.7926800" lon="35.0003800">
<ele>367.649994</ele>
<time>2020-09-01T11:51:30.672Z</time>
</trkpt>
<trkpt lat="31.7925600" lon="35.0003000">
<ele>369.149994</ele>
<time>2020-09-01T11:51:30.672Z</time>
</trkpt>
<trkpt lat="31.7924800" lon="35.0002200">
<ele>370.459991</ele>
<time>2020-09-01T11:51:30.672Z</time>
</trkpt>
<trkpt lat="31.7924300" lon="35.0001300">
<ele>371.470001</ele>
<time>2020-09-01T11:51:30.672Z</time>
</trkpt>
<trkpt lat="31.7923800" lon="34.9999900">
<ele>373.319977</ele>
<time>2020-09-01T11:51:30.672Z</time>
</trkpt>
<trkpt lat="31.7923300" lon="34.9997500">
<ele>374.190002</ele>
<time>2020-09-01T11:51:30.672Z</time>
</trkpt>
<trkpt lat="31.7922800" lon="34.9996600">
<ele>374.320007</ele>
<time>2020-09-01T11:51:30.672Z</time>
</trkpt>
<trkpt lat="31.7921900" lon="34.9996000">
<ele>374.170013</ele>
<time>2020-09-01T11:51:30.672Z</time>
</trkpt>
<trkpt lat="31.7921000" lon="34.9995700">
<ele>374.149994</ele>
<time>2020-09-01T11:51:30.672Z</time>
</trkpt>
<trkpt lat="31.7919900" lon="34.9995000">
<ele>374.070007</ele>
<time>2020-09-01T11:51:30.672Z</time>
</trkpt>
<trkpt lat="31.7917600" lon="34.9992600">
<ele>377.309998</ele>
<time>2020-09-01T11:51:30.672Z</time>
</trkpt>
<trkpt lat="31.7914400" lon="34.9990000">
<ele>386.800018</ele>
<time>2020-09-01T11:51:30.672Z</time>
</trkpt>
<trkpt lat="31.7912100" lon="34.9987600">
<ele>387.310028</ele>
<time>2020-09-01T11:51:30.672Z</time>
</trkpt>
<trkpt lat="31.7910500" lon="34.9986300">
<ele>384.959991</ele>
<time>2020-09-01T11:51:30.672Z</time>
</trkpt>
<trkpt lat="31.7909600" lon="34.9985200">
<ele>382.819977</ele>
<time>2020-09-01T11:51:30.672Z</time>
</trkpt>
<trkpt lat="31.7908600" lon="34.9983200">
<ele>378.859985</ele>
<time>2020-09-01T11:51:30.672Z</time>
</trkpt>
<trkpt lat="31.7908600" lon="34.9981500">
<ele>375.799988</ele>
<time>2020-09-01T11:51:30.672Z</time>
</trkpt>
<trkpt lat="31.7908900" lon="34.9981000">
<ele>375.000000</ele>
<time>2020-09-01T11:51:30.672Z</time>
</trkpt>
<trkpt lat="31.7909600" lon="34.9980400">
<ele>374.320007</ele>
<time>2020-09-01T11:51:30.672Z</time>
</trkpt>
<trkpt lat="31.7909600" lon="34.9980400">
<ele>374.320007</ele>
<time>2020-09-01T11:51:30.672Z</time>
</trkpt>
<trkpt lat="31.7909600" lon="34.9980400">
<ele>374.320007</ele>
<time>2020-09-01T11:51:30.672Z</time>
</trkpt>
<trkpt lat="31.7909600" lon="34.9980400">
<ele>374.320007</ele>
<time>2020-09-01T11:51:30.672Z</time>
</trkpt>
<trkpt lat="31.7909600" lon="34.9980400">
<ele>374.320007</ele>
<time>2020-09-01T11:51:30.672Z</time>
</trkpt>
<trkpt lat="31.7910500" lon="34.9980100">
<ele>374.229980</ele>
<time>2020-09-01T11:51:30.672Z</time>
</trkpt>
<trkpt lat="31.7913600" lon="34.9980700">
<ele>377.100006</ele>
<time>2020-09-01T11:51:30.672Z</time>
</trkpt>
<trkpt lat="31.7914500" lon="34.9980500">
<ele>376.420013</ele>
<time>2020-09-01T11:51:30.672Z</time>
</trkpt>
<trkpt lat="31.7915400" lon="34.9980200">
<ele>375.020020</ele>
<time>2020-09-01T11:51:30.673Z</time>
</trkpt>
<trkpt lat="31.7916300" lon="34.9979500">
<ele>372.600006</ele>
<time>2020-09-01T11:51:30.673Z</time>
</trkpt>
<trkpt lat="31.7918100" lon="34.9977700">
<ele>367.899994</ele>
<time>2020-09-01T11:51:30.673Z</time>
</trkpt>
<trkpt lat="31.7919600" lon="34.9976700">
<ele>366.869995</ele>
<time>2020-09-01T11:51:30.673Z</time>
</trkpt>
<trkpt lat="31.7921700" lon="34.9977500">
<ele>368.430023</ele>
<time>2020-09-01T11:51:30.673Z</time>
</trkpt>
<trkpt lat="31.7924400" lon="34.9977500">
<ele>367.190002</ele>
<time>2020-09-01T11:51:30.673Z</time>
</trkpt>
<trkpt lat="31.7925700" lon="34.9977300">
<ele>367.239990</ele>
<time>2020-09-01T11:51:30.673Z</time>
</trkpt>
<trkpt lat="31.7928400" lon="34.9976100">
<ele>367.899994</ele>
<time>2020-09-01T11:51:30.673Z</time>
</trkpt>
<trkpt lat="31.7930900" lon="34.9974500">
<ele>371.929993</ele>
<time>2020-09-01T11:51:30.673Z</time>
</trkpt>
<trkpt lat="31.7937300" lon="34.9971900">
<ele>375.350006</ele>
<time>2020-09-01T11:51:30.673Z</time>
</trkpt>
<trkpt lat="31.7940200" lon="34.9970300">
<ele>376.470001</ele>
<time>2020-09-01T11:51:30.673Z</time>
</trkpt>
<trkpt lat="31.7942900" lon="34.9968900">
<ele>375.190002</ele>
<time>2020-09-01T11:51:30.673Z</time>
</trkpt>
<trkpt lat="31.7945900" lon="34.9967000">
<ele>374.869995</ele>
<time>2020-09-01T11:51:30.673Z</time>
</trkpt>
<trkpt lat="31.7948100" lon="34.9966000">
<ele>377.040009</ele>
<time>2020-09-01T11:51:30.673Z</time>
</trkpt>
<trkpt lat="31.7949000" lon="34.9965900">
<ele>377.660004</ele>
<time>2020-09-01T11:51:30.673Z</time>
</trkpt>
<trkpt lat="31.7949700" lon="34.9966000">
<ele>378.050018</ele>
<time>2020-09-01T11:51:30.673Z</time>
</trkpt>
<trkpt lat="31.7951600" lon="34.9966800">
<ele>380.739990</ele>
<time>2020-09-01T11:51:30.673Z</time>
</trkpt>
<trkpt lat="31.7955200" lon="34.9968900">
<ele>381.989990</ele>
<time>2020-09-01T11:51:30.673Z</time>
</trkpt>
<trkpt lat="31.7956000" lon="34.9969600">
<ele>381.610016</ele>
<time>2020-09-01T11:51:30.673Z</time>
</trkpt>
<trkpt lat="31.7958500" lon="34.9971300">
<ele>377.819977</ele>
<time>2020-09-01T11:51:30.673Z</time>
</trkpt>
<trkpt lat="31.7962700" lon="34.9973600">
<ele>370.640015</ele>
<time>2020-09-01T11:51:30.673Z</time>
</trkpt>
<trkpt lat="31.7965100" lon="34.9974500">
<ele>365.489990</ele>
<time>2020-09-01T11:51:30.673Z</time>
</trkpt>
<trkpt lat="31.7967600" lon="34.9974600">
<ele>360.320007</ele>
<time>2020-09-01T11:51:30.673Z</time>
</trkpt>
<trkpt lat="31.7969400" lon="34.9974300">
<ele>357.080017</ele>
<time>2020-09-01T11:51:30.673Z</time>
</trkpt>
<trkpt lat="31.7970800" lon="34.9973900">
<ele>354.369995</ele>
<time>2020-09-01T11:51:30.673Z</time>
</trkpt>
<trkpt lat="31.7973700" lon="34.9973400">
<ele>351.199982</ele>
<time>2020-09-01T11:51:30.673Z</time>
</trkpt>
<trkpt lat="31.7974600" lon="34.9973100">
<ele>351.050018</ele>
<time>2020-09-01T11:51:30.673Z</time>
</trkpt>
<trkpt lat="31.7975900" lon="34.9972400">
<ele>352.580017</ele>
<time>2020-09-01T11:51:30.673Z</time>
</trkpt>
<trkpt lat="31.7977400" lon="34.9971300">
<ele>353.799988</ele>
<time>2020-09-01T11:51:30.673Z</time>
</trkpt>
<trkpt lat="31.7979800" lon="34.9969100">
<ele>350.769989</ele>
<time>2020-09-01T11:51:30.673Z</time>
</trkpt>
<trkpt lat="31.7980900" lon="34.9967800">
<ele>350.610016</ele>
<time>2020-09-01T11:51:30.673Z</time>
</trkpt>
<trkpt lat="31.7982500" lon="34.9965900">
<ele>350.490021</ele>
<time>2020-09-01T11:51:30.673Z</time>
</trkpt>
<trkpt lat="31.7984900" lon="34.9962800">
<ele>347.920013</ele>
<time>2020-09-01T11:51:30.673Z</time>
</trkpt>
<trkpt lat="31.7988000" lon="34.9959900">
<ele>347.150024</ele>
<time>2020-09-01T11:51:30.673Z</time>
</trkpt>
<trkpt lat="31.7991500" lon="34.9956000">
<ele>347.049988</ele>
<time>2020-09-01T11:51:30.673Z</time>
</trkpt>
<trkpt lat="31.7993200" lon="34.9953800">
<ele>345.759979</ele>
<time>2020-09-01T11:51:30.673Z</time>
</trkpt>
<trkpt lat="31.7995800" lon="34.9949700">
<ele>342.989990</ele>
<time>2020-09-01T11:51:30.673Z</time>
</trkpt>
<trkpt lat="31.7997600" lon="34.9947700">
<ele>339.679993</ele>
<time>2020-09-01T11:51:30.673Z</time>
</trkpt>
<trkpt lat="31.7999900" lon="34.9946400">
<ele>338.469971</ele>
<time>2020-09-01T11:51:30.673Z</time>
</trkpt>
<trkpt lat="31.8001300" lon="34.9946200">
<ele>338.380005</ele>
<time>2020-09-01T11:51:30.673Z</time>
</trkpt>
<trkpt lat="31.8002500" lon="34.9946200">
<ele>338.580017</ele>
<time>2020-09-01T11:51:30.673Z</time>
</trkpt>
<trkpt lat="31.8005700" lon="34.9946800">
<ele>336.649994</ele>
<time>2020-09-01T11:51:30.673Z</time>
</trkpt>
<trkpt lat="31.8006900" lon="34.9946800">
<ele>337.510010</ele>
<time>2020-09-01T11:51:30.673Z</time>
</trkpt>
<trkpt lat="31.8008200" lon="34.9946600">
<ele>338.230011</ele>
<time>2020-09-01T11:51:30.673Z</time>
</trkpt>
<trkpt lat="31.8009800" lon="34.9945800">
<ele>339.849976</ele>
<time>2020-09-01T11:51:30.673Z</time>
</trkpt>
<trkpt lat="31.8011000" lon="34.9944800">
<ele>341.059998</ele>
<time>2020-09-01T11:51:30.673Z</time>
</trkpt>
<trkpt lat="31.8011400" lon="34.9944300">
<ele>341.269989</ele>
<time>2020-09-01T11:51:30.673Z</time>
</trkpt>
<trkpt lat="31.8011900" lon="34.9943800">
<ele>341.750000</ele>
<time>2020-09-01T11:51:30.673Z</time>
</trkpt>
<trkpt lat="31.8012400" lon="34.9942900">
<ele>342.350006</ele>
<time>2020-09-01T11:51:30.674Z</time>
</trkpt>
<trkpt lat="31.8014300" lon="34.9939300">
<ele>344.249969</ele>
<time>2020-09-01T11:51:30.674Z</time>
</trkpt>
<trkpt lat="31.8015700" lon="34.9937100">
<ele>342.940002</ele>
<time>2020-09-01T11:51:30.674Z</time>
</trkpt>
<trkpt lat="31.8016600" lon="34.9935800">
<ele>341.869995</ele>
<time>2020-09-01T11:51:30.674Z</time>
</trkpt>
<trkpt lat="31.8017900" lon="34.9934700">
<ele>341.250031</ele>
<time>2020-09-01T11:51:30.674Z</time>
</trkpt>
<trkpt lat="31.8019100" lon="34.9933900">
<ele>339.470001</ele>
<time>2020-09-01T11:51:30.674Z</time>
</trkpt>
<trkpt lat="31.8020000" lon="34.9933700">
<ele>338.139984</ele>
<time>2020-09-01T11:51:30.674Z</time>
</trkpt>
<trkpt lat="31.8021500" lon="34.9932900">
<ele>335.269989</ele>
<time>2020-09-01T11:51:30.674Z</time>
</trkpt>
<trkpt lat="31.8022000" lon="34.9932800">
<ele>334.650024</ele>
<time>2020-09-01T11:51:30.674Z</time>
</trkpt>
<trkpt lat="31.8026900" lon="34.9930500">
<ele>332.380005</ele>
<time>2020-09-01T11:51:30.674Z</time>
</trkpt>
<trkpt lat="31.8029500" lon="34.9928700">
<ele>336.979980</ele>
<time>2020-09-01T11:51:30.674Z</time>
</trkpt>
<trkpt lat="31.8031100" lon="34.9927000">
<ele>342.020020</ele>
<time>2020-09-01T11:51:30.674Z</time>
</trkpt>
<trkpt lat="31.8032000" lon="34.9925700">
<ele>344.649994</ele>
<time>2020-09-01T11:51:30.674Z</time>
</trkpt>
<trkpt lat="31.8033200" lon="34.9923600">
<ele>343.890015</ele>
<time>2020-09-01T11:51:30.674Z</time>
</trkpt>
<trkpt lat="31.8034300" lon="34.9921500">
<ele>342.779999</ele>
<time>2020-09-01T11:51:30.674Z</time>
</trkpt>
<trkpt lat="31.8035400" lon="34.9919200">
<ele>340.900024</ele>
<time>2020-09-01T11:51:30.674Z</time>
</trkpt>
<trkpt lat="31.8035900" lon="34.9918200">
<ele>340.010010</ele>
<time>2020-09-01T11:51:30.674Z</time>
</trkpt>
<trkpt lat="31.8037100" lon="34.9916300">
<ele>337.250000</ele>
<time>2020-09-01T11:51:30.674Z</time>
</trkpt>
<trkpt lat="31.8037700" lon="34.9915600">
<ele>336.279999</ele>
<time>2020-09-01T11:51:30.674Z</time>
</trkpt>
<trkpt lat="31.8039100" lon="34.9915300">
<ele>335.070007</ele>
<time>2020-09-01T11:51:30.674Z</time>
</trkpt>
<trkpt lat="31.8037800" lon="34.9914700">
<ele>335.269989</ele>
<time>2020-09-01T11:51:30.674Z</time>
</trkpt>
<trkpt lat="31.8036600" lon="34.9913400">
<ele>334.820007</ele>
<time>2020-09-01T11:51:30.674Z</time>
</trkpt>
<trkpt lat="31.8036000" lon="34.9911900">
<ele>334.919983</ele>
<time>2020-09-01T11:51:30.674Z</time>
</trkpt>
<trkpt lat="31.8035900" lon="34.9910700">
<ele>334.850006</ele>
<time>2020-09-01T11:51:30.674Z</time>
</trkpt>
<trkpt lat="31.8035900" lon="34.9909400">
<ele>334.850006</ele>
<time>2020-09-01T11:51:30.674Z</time>
</trkpt>
<trkpt lat="31.8036500" lon="34.9905600">
<ele>333.739990</ele>
<time>2020-09-01T11:51:30.674Z</time>
</trkpt>
<trkpt lat="31.8037900" lon="34.9900800">
<ele>329.679993</ele>
<time>2020-09-01T11:51:30.674Z</time>
</trkpt>
<trkpt lat="31.8038700" lon="34.9898800">
<ele>329.170013</ele>
<time>2020-09-01T11:51:30.674Z</time>
</trkpt>
<trkpt lat="31.8038700" lon="34.9898800">
<ele>329.170013</ele>
<time>2020-09-01T11:51:30.674Z</time>
</trkpt>
<trkpt lat="31.8040300" lon="34.9894600">
<ele>331.899994</ele>
<time>2020-09-01T11:51:30.674Z</time>
</trkpt>
<trkpt lat="31.8043500" lon="34.9888000">
<ele>331.910004</ele>
<time>2020-09-01T11:51:30.674Z</time>
</trkpt>
<trkpt lat="31.8045800" lon="34.9884200">
<ele>331.769989</ele>
<time>2020-09-01T11:51:30.674Z</time>
</trkpt>
<trkpt lat="31.8046300" lon="34.9882600">
<ele>331.660004</ele>
<time>2020-09-01T11:51:30.674Z</time>
</trkpt>
<trkpt lat="31.8046600" lon="34.9880900">
<ele>331.409973</ele>
<time>2020-09-01T11:51:30.674Z</time>
</trkpt>
<trkpt lat="31.8046500" lon="34.9879300">
<ele>330.949982</ele>
<time>2020-09-01T11:51:30.674Z</time>
</trkpt>
<trkpt lat="31.8045700" lon="34.9870800">
<ele>327.339996</ele>
<time>2020-09-01T11:51:30.674Z</time>
</trkpt>
<trkpt lat="31.8045700" lon="34.9866100">
<ele>325.540009</ele>
<time>2020-09-01T11:51:30.674Z</time>
</trkpt>
<trkpt lat="31.8045600" lon="34.9864900">
<ele>325.679993</ele>
<time>2020-09-01T11:51:30.674Z</time>
</trkpt>
<trkpt lat="31.8045100" lon="34.9862900">
<ele>325.199982</ele>
<time>2020-09-01T11:51:30.674Z</time>
</trkpt>
<trkpt lat="31.8045500" lon="34.9864300">
<ele>325.700012</ele>
<time>2020-09-01T11:51:30.674Z</time>
</trkpt>
<trkpt lat="31.8045800" lon="34.9864700">
<ele>325.830017</ele>
<time>2020-09-01T11:51:30.674Z</time>
</trkpt>
<trkpt lat="31.8046500" lon="34.9864900">
<ele>326.209991</ele>
<time>2020-09-01T11:51:30.674Z</time>
</trkpt>
<trkpt lat="31.8047400" lon="34.9865000">
<ele>326.190002</ele>
<time>2020-09-01T11:51:30.674Z</time>
</trkpt>
<trkpt lat="31.8048100" lon="34.9865400">
<ele>324.389984</ele>
<time>2020-09-01T11:51:30.674Z</time>
</trkpt>
<trkpt lat="31.8047700" lon="34.9866400">
<ele>324.910004</ele>
<time>2020-09-01T11:51:30.674Z</time>
</trkpt>
<trkpt lat="31.8047700" lon="34.9866400">
<ele>324.910004</ele>
<time>2020-09-01T11:51:30.674Z</time>
</trkpt>
<trkpt lat="31.8047700" lon="34.9866400">
<ele>324.910004</ele>
<time>2020-09-01T11:51:30.675Z</time>
</trkpt>
<trkpt lat="31.8047700" lon="34.9866400">
<ele>324.910004</ele>
<time>2020-09-01T11:51:30.675Z</time>
</trkpt>
<trkpt lat="31.8048100" lon="34.9865400">
<ele>324.389984</ele>
<time>2020-09-01T11:51:30.675Z</time>
</trkpt>
<trkpt lat="31.8047400" lon="34.9865000">
<ele>326.190002</ele>
<time>2020-09-01T11:51:30.675Z</time>
</trkpt>
<trkpt lat="31.8046500" lon="34.9864900">
<ele>326.209991</ele>
<time>2020-09-01T11:51:30.675Z</time>
</trkpt>
<trkpt lat="31.8045800" lon="34.9864700">
<ele>325.830017</ele>
<time>2020-09-01T11:51:30.675Z</time>
</trkpt>
<trkpt lat="31.8045500" lon="34.9864300">
<ele>325.700012</ele>
<time>2020-09-01T11:51:30.675Z</time>
</trkpt>
<trkpt lat="31.8045100" lon="34.9862900">
<ele>325.199982</ele>
<time>2020-09-01T11:51:30.675Z</time>
</trkpt>
<trkpt lat="31.8044700" lon="34.9862200">
<ele>324.630005</ele>
<time>2020-09-01T11:51:30.675Z</time>
</trkpt>
<trkpt lat="31.8044100" lon="34.9861700">
<ele>323.839996</ele>
<time>2020-09-01T11:51:30.675Z</time>
</trkpt>
<trkpt lat="31.8043400" lon="34.9861500">
<ele>323.010010</ele>
<time>2020-09-01T11:51:30.675Z</time>
</trkpt>
<trkpt lat="31.8042700" lon="34.9861500">
<ele>322.260010</ele>
<time>2020-09-01T11:51:30.675Z</time>
</trkpt>
<trkpt lat="31.8041600" lon="34.9861900">
<ele>321.190002</ele>
<time>2020-09-01T11:51:30.675Z</time>
</trkpt>
<trkpt lat="31.8041100" lon="34.9862600">
<ele>320.830017</ele>
<time>2020-09-01T11:51:30.675Z</time>
</trkpt>
<trkpt lat="31.8040300" lon="34.9863900">
<ele>320.530029</ele>
<time>2020-09-01T11:51:30.675Z</time>
</trkpt>
<trkpt lat="31.8039400" lon="34.9866200">
<ele>320.539978</ele>
<time>2020-09-01T11:51:30.675Z</time>
</trkpt>
<trkpt lat="31.8038700" lon="34.9867700">
<ele>319.729980</ele>
<time>2020-09-01T11:51:30.675Z</time>
</trkpt>
<trkpt lat="31.8035400" lon="34.9871600">
<ele>316.190002</ele>
<time>2020-09-01T11:51:30.675Z</time>
</trkpt>
<trkpt lat="31.8034600" lon="34.9872400">
<ele>314.899994</ele>
<time>2020-09-01T11:51:30.675Z</time>
</trkpt>
<trkpt lat="31.8033700" lon="34.9873800">
<ele>314.419983</ele>
<time>2020-09-01T11:51:30.675Z</time>
</trkpt>
<trkpt lat="31.8032900" lon="34.9874600">
<ele>313.359985</ele>
<time>2020-09-01T11:51:30.675Z</time>
</trkpt>
<trkpt lat="31.8031700" lon="34.9875500">
<ele>311.230011</ele>
<time>2020-09-01T11:51:30.675Z</time>
</trkpt>
<trkpt lat="31.8029900" lon="34.9876100">
<ele>308.010010</ele>
<time>2020-09-01T11:51:30.675Z</time>
</trkpt>
<trkpt lat="31.8027500" lon="34.9876700">
<ele>303.110016</ele>
<time>2020-09-01T11:51:30.675Z</time>
</trkpt>
<trkpt lat="31.8024900" lon="34.9876700">
<ele>300.519989</ele>
<time>2020-09-01T11:51:30.675Z</time>
</trkpt>
<trkpt lat="31.8023900" lon="34.9877000">
<ele>299.880005</ele>
<time>2020-09-01T11:51:30.675Z</time>
</trkpt>
<trkpt lat="31.8022900" lon="34.9877500">
<ele>299.839996</ele>
<time>2020-09-01T11:51:30.675Z</time>
</trkpt>
<trkpt lat="31.8021600" lon="34.9878900">
<ele>301.480011</ele>
<time>2020-09-01T11:51:30.675Z</time>
</trkpt>
<trkpt lat="31.8020100" lon="34.9881800">
<ele>303.869995</ele>
<time>2020-09-01T11:51:30.675Z</time>
</trkpt>
<trkpt lat="31.8019300" lon="34.9882700">
<ele>303.829987</ele>
<time>2020-09-01T11:51:30.675Z</time>
</trkpt>
<trkpt lat="31.8018700" lon="34.9883100">
<ele>304.360016</ele>
<time>2020-09-01T11:51:30.675Z</time>
</trkpt>
<trkpt lat="31.8018000" lon="34.9883300">
<ele>304.429993</ele>
<time>2020-09-01T11:51:30.675Z</time>
</trkpt>
<trkpt lat="31.8016600" lon="34.9883000">
<ele>303.660004</ele>
<time>2020-09-01T11:51:30.675Z</time>
</trkpt>
<trkpt lat="31.8014700" lon="34.9881600">
<ele>302.839996</ele>
<time>2020-09-01T11:51:30.675Z</time>
</trkpt>
<trkpt lat="31.8012200" lon="34.9879300">
<ele>299.630005</ele>
<time>2020-09-01T11:51:30.675Z</time>
</trkpt>
<trkpt lat="31.8010700" lon="34.9878100">
<ele>296.410004</ele>
<time>2020-09-01T11:51:30.675Z</time>
</trkpt>
<trkpt lat="31.8008800" lon="34.9876900">
<ele>290.429993</ele>
<time>2020-09-01T11:51:30.675Z</time>
</trkpt>
<trkpt lat="31.8007800" lon="34.9876500">
<ele>289.359985</ele>
<time>2020-09-01T11:51:30.675Z</time>
</trkpt>
<trkpt lat="31.8006700" lon="34.9876300">
<ele>290.420013</ele>
<time>2020-09-01T11:51:30.675Z</time>
</trkpt>
<trkpt lat="31.8005300" lon="34.9876300">
<ele>290.960022</ele>
<time>2020-09-01T11:51:30.675Z</time>
</trkpt>
<trkpt lat="31.8002800" lon="34.9876700">
<ele>282.309998</ele>
<time>2020-09-01T11:51:30.675Z</time>
</trkpt>
<trkpt lat="31.8001100" lon="34.9877500">
<ele>281.529999</ele>
<time>2020-09-01T11:51:30.675Z</time>
</trkpt>
<trkpt lat="31.7996700" lon="34.9880300">
<ele>278.200012</ele>
<time>2020-09-01T11:51:30.675Z</time>
</trkpt>
<trkpt lat="31.7994500" lon="34.9881900">
<ele>276.529999</ele>
<time>2020-09-01T11:51:30.675Z</time>
</trkpt>
<trkpt lat="31.7992300" lon="34.9884700">
<ele>274.750000</ele>
<time>2020-09-01T11:51:30.675Z</time>
</trkpt>
<trkpt lat="31.7990800" lon="34.9887100">
<ele>273.779999</ele>
<time>2020-09-01T11:51:30.675Z</time>
</trkpt>
<trkpt lat="31.7990400" lon="34.9887900">
<ele>274.239990</ele>
<time>2020-09-01T11:51:30.675Z</time>
</trkpt>
<trkpt lat="31.7989400" lon="34.9889900">
<ele>274.889984</ele>
<time>2020-09-01T11:51:30.676Z</time>
</trkpt>
<trkpt lat="31.7989200" lon="34.9890400">
<ele>275.140015</ele>
<time>2020-09-01T11:51:30.676Z</time>
</trkpt>
<trkpt lat="31.7988600" lon="34.9890900">
<ele>275.039978</ele>
<time>2020-09-01T11:51:30.676Z</time>
</trkpt>
<trkpt lat="31.7988000" lon="34.9891300">
<ele>275.239990</ele>
<time>2020-09-01T11:51:30.676Z</time>
</trkpt>
<trkpt lat="31.7987300" lon="34.9891300">
<ele>274.959991</ele>
<time>2020-09-01T11:51:30.676Z</time>
</trkpt>
<trkpt lat="31.7986600" lon="34.9891100">
<ele>274.399994</ele>
<time>2020-09-01T11:51:30.676Z</time>
</trkpt>
<trkpt lat="31.7985700" lon="34.9890300">
<ele>273.850006</ele>
<time>2020-09-01T11:51:30.676Z</time>
</trkpt>
<trkpt lat="31.7985100" lon="34.9889300">
<ele>273.209991</ele>
<time>2020-09-01T11:51:30.676Z</time>
</trkpt>
<trkpt lat="31.7984900" lon="34.9888900">
<ele>272.769989</ele>
<time>2020-09-01T11:51:30.676Z</time>
</trkpt>
<trkpt lat="31.7984900" lon="34.9888900">
<ele>272.769989</ele>
<time>2020-09-01T11:51:30.676Z</time>
</trkpt>
<trkpt lat="31.7983500" lon="34.9885300">
<ele>271.619995</ele>
<time>2020-09-01T11:51:30.676Z</time>
</trkpt>
<trkpt lat="31.7983900" lon="34.9884000">
<ele>271.140015</ele>
<time>2020-09-01T11:51:30.676Z</time>
</trkpt>
<trkpt lat="31.7984500" lon="34.9882900">
<ele>271.229980</ele>
<time>2020-09-01T11:51:30.676Z</time>
</trkpt>
<trkpt lat="31.7986300" lon="34.9880900">
<ele>269.119995</ele>
<time>2020-09-01T11:51:30.676Z</time>
</trkpt>
<trkpt lat="31.7987200" lon="34.9879600">
<ele>267.660004</ele>
<time>2020-09-01T11:51:30.676Z</time>
</trkpt>
<trkpt lat="31.7993100" lon="34.9866400">
<ele>257.100006</ele>
<time>2020-09-01T11:51:30.676Z</time>
</trkpt>
<trkpt lat="31.8000400" lon="34.9855400">
<ele>249.080002</ele>
<time>2020-09-01T11:51:30.676Z</time>
</trkpt>
<trkpt lat="31.8001500" lon="34.9853200">
<ele>248.859985</ele>
<time>2020-09-01T11:51:30.676Z</time>
</trkpt>
<trkpt lat="31.8004600" lon="34.9844600">
<ele>245.390015</ele>
<time>2020-09-01T11:51:30.676Z</time>
</trkpt>
<trkpt lat="31.8005400" lon="34.9841800">
<ele>246.149994</ele>
<time>2020-09-01T11:51:30.676Z</time>
</trkpt>
<trkpt lat="31.8006000" lon="34.9838900">
<ele>246.130005</ele>
<time>2020-09-01T11:51:30.676Z</time>
</trkpt>
<trkpt lat="31.8006400" lon="34.9837300">
<ele>247.970001</ele>
<time>2020-09-01T11:51:30.676Z</time>
</trkpt>
<trkpt lat="31.8006700" lon="34.9835200">
<ele>248.610001</ele>
<time>2020-09-01T11:51:30.676Z</time>
</trkpt>
<trkpt lat="31.8006700" lon="34.9829700">
<ele>245.370010</ele>
<time>2020-09-01T11:51:30.676Z</time>
</trkpt>
<trkpt lat="31.8006800" lon="34.9826500">
<ele>241.880005</ele>
<time>2020-09-01T11:51:30.676Z</time>
</trkpt>
<trkpt lat="31.8007000" lon="34.9822100">
<ele>240.970001</ele>
<time>2020-09-01T11:51:30.676Z</time>
</trkpt>
<trkpt lat="31.8007300" lon="34.9820000">
<ele>239.750000</ele>
<time>2020-09-01T11:51:30.676Z</time>
</trkpt>
<trkpt lat="31.8007100" lon="34.9817000">
<ele>239.829987</ele>
<time>2020-09-01T11:51:30.676Z</time>
</trkpt>
<trkpt lat="31.8006900" lon="34.9816200">
<ele>239.610001</ele>
<time>2020-09-01T11:51:30.676Z</time>
</trkpt>
<trkpt lat="31.8006300" lon="34.9815100">
<ele>239.180008</ele>
<time>2020-09-01T11:51:30.676Z</time>
</trkpt>
<trkpt lat="31.8004800" lon="34.9812700">
<ele>238.840012</ele>
<time>2020-09-01T11:51:30.676Z</time>
</trkpt>
<trkpt lat="31.8004400" lon="34.9811900">
<ele>238.699997</ele>
<time>2020-09-01T11:51:30.676Z</time>
</trkpt>
<trkpt lat="31.8003700" lon="34.9810600">
<ele>238.849991</ele>
<time>2020-09-01T11:51:30.676Z</time>
</trkpt>
<trkpt lat="31.8002800" lon="34.9808200">
<ele>239.019989</ele>
<time>2020-09-01T11:51:30.676Z</time>
</trkpt>
<trkpt lat="31.8002500" lon="34.9807000">
<ele>239.300003</ele>
<time>2020-09-01T11:51:30.676Z</time>
</trkpt>
<trkpt lat="31.8001200" lon="34.9804500">
<ele>239.869995</ele>
<time>2020-09-01T11:51:30.676Z</time>
</trkpt>
<trkpt lat="31.7999900" lon="34.9801500">
<ele>240.400009</ele>
<time>2020-09-01T11:51:30.676Z</time>
</trkpt>
<trkpt lat="31.7998800" lon="34.9797900">
<ele>239.199997</ele>
<time>2020-09-01T11:51:30.676Z</time>
</trkpt>
<trkpt lat="31.7999100" lon="34.9796100">
<ele>237.369995</ele>
<time>2020-09-01T11:51:30.676Z</time>
</trkpt>
<trkpt lat="31.7999400" lon="34.9794900">
<ele>236.070007</ele>
<time>2020-09-01T11:51:30.676Z</time>
</trkpt>
<trkpt lat="31.7999900" lon="34.9793400">
<ele>233.230011</ele>
<time>2020-09-01T11:51:30.676Z</time>
</trkpt>
<trkpt lat="31.8000200" lon="34.9791800">
<ele>230.020004</ele>
<time>2020-09-01T11:51:30.676Z</time>
</trkpt>
<trkpt lat="31.8001400" lon="34.9789700">
<ele>226.720001</ele>
<time>2020-09-01T11:51:30.676Z</time>
</trkpt>
<trkpt lat="31.8005500" lon="34.9783700">
<ele>218.400009</ele>
<time>2020-09-01T11:51:30.676Z</time>
</trkpt>
<trkpt lat="31.8005900" lon="34.9781900">
<ele>217.650009</ele>
<time>2020-09-01T11:51:30.676Z</time>
</trkpt>
<trkpt lat="31.8004300" lon="34.9774700">
<ele>215.949997</ele>
<time>2020-09-01T11:51:30.676Z</time>
</trkpt>
<trkpt lat="31.8002700" lon="34.9775700">
<ele>217.130005</ele>
<time>2020-09-01T11:51:30.676Z</time>
</trkpt>
<trkpt lat="31.8000800" lon="34.9776000">
<ele>220.300003</ele>
<time>2020-09-01T11:51:30.677Z</time>
</trkpt>
<trkpt lat="31.7999300" lon="34.9775400">
<ele>223.080002</ele>
<time>2020-09-01T11:51:30.677Z</time>
</trkpt>
<trkpt lat="31.7998300" lon="34.9774700">
<ele>225.100006</ele>
<time>2020-09-01T11:51:30.677Z</time>
</trkpt>
<trkpt lat="31.7996900" lon="34.9773300">
<ele>227.119995</ele>
<time>2020-09-01T11:51:30.677Z</time>
</trkpt>
<trkpt lat="31.7995500" lon="34.9771500">
<ele>226.779999</ele>
<time>2020-09-01T11:51:30.677Z</time>
</trkpt>
<trkpt lat="31.7992300" lon="34.9767200">
<ele>221.869995</ele>
<time>2020-09-01T11:51:30.677Z</time>
</trkpt>
<trkpt lat="31.7991400" lon="34.9765900">
<ele>221.940002</ele>
<time>2020-09-01T11:51:30.677Z</time>
</trkpt>
<trkpt lat="31.7990100" lon="34.9763900">
<ele>222.690002</ele>
<time>2020-09-01T11:51:30.677Z</time>
</trkpt>
<trkpt lat="31.7988300" lon="34.9761600">
<ele>223.199997</ele>
<time>2020-09-01T11:51:30.677Z</time>
</trkpt>
<trkpt lat="31.7987500" lon="34.9760800">
<ele>224.000000</ele>
<time>2020-09-01T11:51:30.677Z</time>
</trkpt>
<trkpt lat="31.7987500" lon="34.9760800">
<ele>224.000000</ele>
<time>2020-09-01T11:51:30.677Z</time>
</trkpt>
<trkpt lat="31.7987500" lon="34.9760800">
<ele>224.000000</ele>
<time>2020-09-01T11:51:30.677Z</time>
</trkpt>
<trkpt lat="31.7987500" lon="34.9760800">
<ele>224.000000</ele>
<time>2020-09-01T11:51:30.677Z</time>
</trkpt>
<trkpt lat="31.7987200" lon="34.9760500">
<ele>224.479996</ele>
<time>2020-09-01T11:51:30.677Z</time>
</trkpt>
<trkpt lat="31.7986100" lon="34.9759600">
<ele>226.550003</ele>
<time>2020-09-01T11:51:30.677Z</time>
</trkpt>
<trkpt lat="31.7984400" lon="34.9758600">
<ele>227.580002</ele>
<time>2020-09-01T11:51:30.677Z</time>
</trkpt>
<trkpt lat="31.7983300" lon="34.9758200">
<ele>227.869995</ele>
<time>2020-09-01T11:51:30.677Z</time>
</trkpt>
<trkpt lat="31.7981900" lon="34.9758000">
<ele>226.400009</ele>
<time>2020-09-01T11:51:30.677Z</time>
</trkpt>
<trkpt lat="31.7980200" lon="34.9758000">
<ele>224.720001</ele>
<time>2020-09-01T11:51:30.677Z</time>
</trkpt>
<trkpt lat="31.7974900" lon="34.9760200">
<ele>217.900009</ele>
<time>2020-09-01T11:51:30.677Z</time>
</trkpt>
<trkpt lat="31.7972000" lon="34.9762800">
<ele>215.779999</ele>
<time>2020-09-01T11:51:30.677Z</time>
</trkpt>
<trkpt lat="31.7965400" lon="34.9769100">
<ele>215.440002</ele>
<time>2020-09-01T11:51:30.677Z</time>
</trkpt>
<trkpt lat="31.7962800" lon="34.9771400">
<ele>213.880005</ele>
<time>2020-09-01T11:51:30.677Z</time>
</trkpt>
<trkpt lat="31.7961700" lon="34.9772200">
<ele>212.250000</ele>
<time>2020-09-01T11:51:30.677Z</time>
</trkpt>
<trkpt lat="31.7960700" lon="34.9772600">
<ele>210.940002</ele>
<time>2020-09-01T11:51:30.677Z</time>
</trkpt>
<trkpt lat="31.7959700" lon="34.9772800">
<ele>209.989990</ele>
<time>2020-09-01T11:51:30.677Z</time>
</trkpt>
<trkpt lat="31.7958500" lon="34.9772700">
<ele>208.530014</ele>
<time>2020-09-01T11:51:30.677Z</time>
</trkpt>
<trkpt lat="31.7956300" lon="34.9771800">
<ele>207.630005</ele>
<time>2020-09-01T11:51:30.677Z</time>
</trkpt>
<trkpt lat="31.7953200" lon="34.9769500">
<ele>204.180008</ele>
<time>2020-09-01T11:51:30.677Z</time>
</trkpt>
<trkpt lat="31.7953000" lon="34.9766700">
<ele>201.949997</ele>
<time>2020-09-01T11:51:30.677Z</time>
</trkpt>
<trkpt lat="31.7952800" lon="34.9764700">
<ele>199.869995</ele>
<time>2020-09-01T11:51:30.677Z</time>
</trkpt>
<trkpt lat="31.7951200" lon="34.9763600">
<ele>196.030014</ele>
<time>2020-09-01T11:51:30.677Z</time>
</trkpt>
<trkpt lat="31.7950900" lon="34.9763100">
<ele>195.339996</ele>
<time>2020-09-01T11:51:30.677Z</time>
</trkpt>
<trkpt lat="31.7948700" lon="34.9762200">
<ele>196.830002</ele>
<time>2020-09-01T11:51:30.677Z</time>
</trkpt>
<trkpt lat="31.7948800" lon="34.9761900">
<ele>196.839996</ele>
<time>2020-09-01T11:51:30.677Z</time>
</trkpt>
<trkpt lat="31.7948800" lon="34.9761600">
<ele>197.080002</ele>
<time>2020-09-01T11:51:30.677Z</time>
</trkpt>
<trkpt lat="31.7948700" lon="34.9761300">
<ele>197.580002</ele>
<time>2020-09-01T11:51:30.677Z</time>
</trkpt>
<trkpt lat="31.7948500" lon="34.9761000">
<ele>198.330002</ele>
<time>2020-09-01T11:51:30.677Z</time>
</trkpt>
<trkpt lat="31.7949900" lon="34.9758600">
<ele>196.839996</ele>
<time>2020-09-01T11:51:30.677Z</time>
</trkpt>
<trkpt lat="31.7952100" lon="34.9754400">
<ele>199.639999</ele>
<time>2020-09-01T11:51:30.677Z</time>
</trkpt>
<trkpt lat="31.7953000" lon="34.9753300">
<ele>199.889999</ele>
<time>2020-09-01T11:51:30.677Z</time>
</trkpt>
<trkpt lat="31.7953800" lon="34.9752500">
<ele>199.509995</ele>
<time>2020-09-01T11:51:30.677Z</time>
</trkpt>
<trkpt lat="31.7953700" lon="34.9752300">
<ele>199.970001</ele>
<time>2020-09-01T11:51:30.677Z</time>
</trkpt>
<trkpt lat="31.7953400" lon="34.9751700">
<ele>201.469986</ele>
<time>2020-09-01T11:51:30.677Z</time>
</trkpt>
<trkpt lat="31.7953100" lon="34.9749900">
<ele>205.029999</ele>
<time>2020-09-01T11:51:30.677Z</time>
</trkpt>
<trkpt lat="31.7953100" lon="34.9748900">
<ele>205.750015</ele>
<time>2020-09-01T11:51:30.677Z</time>
</trkpt>
<trkpt lat="31.7953600" lon="34.9747200">
<ele>205.330002</ele>
<time>2020-09-01T11:51:30.677Z</time>
</trkpt>
<trkpt lat="31.7954900" lon="34.9745100">
<ele>200.940002</ele>
<time>2020-09-01T11:51:30.677Z</time>
</trkpt>
<trkpt lat="31.7955600" lon="34.9742400">
<ele>199.619995</ele>
<time>2020-09-01T11:51:30.678Z</time>
</trkpt>
<trkpt lat="31.7956000" lon="34.9740100">
<ele>198.589996</ele>
<time>2020-09-01T11:51:30.678Z</time>
</trkpt>
<trkpt lat="31.7956400" lon="34.9736900">
<ele>196.569992</ele>
<time>2020-09-01T11:51:30.678Z</time>
</trkpt>
<trkpt lat="31.7956600" lon="34.9732000">
<ele>197.460007</ele>
<time>2020-09-01T11:51:30.678Z</time>
</trkpt>
<trkpt lat="31.7956700" lon="34.9728000">
<ele>199.650009</ele>
<time>2020-09-01T11:51:30.678Z</time>
</trkpt>
<trkpt lat="31.7956300" lon="34.9725200">
<ele>200.690002</ele>
<time>2020-09-01T11:51:30.678Z</time>
</trkpt>
<trkpt lat="31.7956700" lon="34.9723700">
<ele>201.879990</ele>
<time>2020-09-01T11:51:30.678Z</time>
</trkpt>
<trkpt lat="31.7957000" lon="34.9722800">
<ele>202.410004</ele>
<time>2020-09-01T11:51:30.678Z</time>
</trkpt>
<trkpt lat="31.7958400" lon="34.9720700">
<ele>201.429993</ele>
<time>2020-09-01T11:51:30.678Z</time>
</trkpt>
<trkpt lat="31.7959400" lon="34.9718500">
<ele>200.079987</ele>
<time>2020-09-01T11:51:30.678Z</time>
</trkpt>
<trkpt lat="31.7960400" lon="34.9715300">
<ele>198.409988</ele>
<time>2020-09-01T11:51:30.678Z</time>
</trkpt>
<trkpt lat="31.7960400" lon="34.9713800">
<ele>198.589996</ele>
<time>2020-09-01T11:51:30.678Z</time>
</trkpt>
<trkpt lat="31.7960200" lon="34.9712200">
<ele>199.979996</ele>
<time>2020-09-01T11:51:30.678Z</time>
</trkpt>
<trkpt lat="31.7959700" lon="34.9710700">
<ele>201.610001</ele>
<time>2020-09-01T11:51:30.678Z</time>
</trkpt>
<trkpt lat="31.7958000" lon="34.9708300">
<ele>202.560013</ele>
<time>2020-09-01T11:51:30.678Z</time>
</trkpt>
<trkpt lat="31.7956700" lon="34.9706800">
<ele>203.279999</ele>
<time>2020-09-01T11:51:30.678Z</time>
</trkpt>
<trkpt lat="31.7956200" lon="34.9706200">
<ele>203.540009</ele>
<time>2020-09-01T11:51:30.678Z</time>
</trkpt>
<trkpt lat="31.7954400" lon="34.9703900">
<ele>204.470001</ele>
<time>2020-09-01T11:51:30.678Z</time>
</trkpt>
<trkpt lat="31.7953100" lon="34.9701400">
<ele>204.599991</ele>
<time>2020-09-01T11:51:30.678Z</time>
</trkpt>
<trkpt lat="31.7951900" lon="34.9699800">
<ele>204.809998</ele>
<time>2020-09-01T11:51:30.678Z</time>
</trkpt>
<trkpt lat="31.7950600" lon="34.9698600">
<ele>204.659988</ele>
<time>2020-09-01T11:51:30.678Z</time>
</trkpt>
<trkpt lat="31.7947900" lon="34.9697300">
<ele>208.360001</ele>
<time>2020-09-01T11:51:30.678Z</time>
</trkpt>
<trkpt lat="31.7945400" lon="34.9697000">
<ele>216.539993</ele>
<time>2020-09-01T11:51:30.678Z</time>
</trkpt>
<trkpt lat="31.7944100" lon="34.9696600">
<ele>220.660004</ele>
<time>2020-09-01T11:51:30.678Z</time>
</trkpt>
<trkpt lat="31.7943000" lon="34.9695900">
<ele>222.690002</ele>
<time>2020-09-01T11:51:30.678Z</time>
</trkpt>
<trkpt lat="31.7942200" lon="34.9694800">
<ele>222.769989</ele>
<time>2020-09-01T11:51:30.678Z</time>
</trkpt>
<trkpt lat="31.7941700" lon="34.9693500">
<ele>221.940002</ele>
<time>2020-09-01T11:51:30.678Z</time>
</trkpt>
<trkpt lat="31.7941500" lon="34.9692200">
<ele>220.909988</ele>
<time>2020-09-01T11:51:30.678Z</time>
</trkpt>
<trkpt lat="31.7941600" lon="34.9690900">
<ele>220.419998</ele>
<time>2020-09-01T11:51:30.678Z</time>
</trkpt>
<trkpt lat="31.7942100" lon="34.9686800">
<ele>221.440002</ele>
<time>2020-09-01T11:51:30.678Z</time>
</trkpt>
<trkpt lat="31.7942500" lon="34.9683200">
<ele>221.089996</ele>
<time>2020-09-01T11:51:30.678Z</time>
</trkpt>
<trkpt lat="31.7942500" lon="34.9678600">
<ele>221.500000</ele>
<time>2020-09-01T11:51:30.678Z</time>
</trkpt>
<trkpt lat="31.7942800" lon="34.9675100">
<ele>220.229996</ele>
<time>2020-09-01T11:51:30.678Z</time>
</trkpt>
<trkpt lat="31.7942500" lon="34.9670900">
<ele>221.990005</ele>
<time>2020-09-01T11:51:30.678Z</time>
</trkpt>
<trkpt lat="31.7942600" lon="34.9669500">
<ele>222.319992</ele>
<time>2020-09-01T11:51:30.678Z</time>
</trkpt>
<trkpt lat="31.7943100" lon="34.9667700">
<ele>221.580002</ele>
<time>2020-09-01T11:51:30.678Z</time>
</trkpt>
<trkpt lat="31.7943900" lon="34.9666200">
<ele>220.929993</ele>
<time>2020-09-01T11:51:30.678Z</time>
</trkpt>
<trkpt lat="31.7944800" lon="34.9664500">
<ele>217.789993</ele>
<time>2020-09-01T11:51:30.678Z</time>
</trkpt>
<trkpt lat="31.7947400" lon="34.9658800">
<ele>210.190002</ele>
<time>2020-09-01T11:51:30.678Z</time>
</trkpt>
<trkpt lat="31.7949400" lon="34.9654500">
<ele>208.429993</ele>
<time>2020-09-01T11:51:30.678Z</time>
</trkpt>
<trkpt lat="31.7950300" lon="34.9653400">
<ele>208.750000</ele>
<time>2020-09-01T11:51:30.678Z</time>
</trkpt>
<trkpt lat="31.7950800" lon="34.9652700">
<ele>208.970001</ele>
<time>2020-09-01T11:51:30.678Z</time>
</trkpt>
<trkpt lat="31.7950900" lon="34.9652600">
<ele>208.939987</ele>
<time>2020-09-01T11:51:30.678Z</time>
</trkpt>
<trkpt lat="31.7952300" lon="34.9649300">
<ele>207.500000</ele>
<time>2020-09-01T11:51:30.678Z</time>
</trkpt>
<trkpt lat="31.7952300" lon="34.9649300">
<ele>207.500000</ele>
<time>2020-09-01T11:51:30.678Z</time>
</trkpt>
<trkpt lat="31.7952300" lon="34.9649300">
<ele>207.500000</ele>
<time>2020-09-01T11:51:30.678Z</time>
</trkpt>
<trkpt lat="31.7952600" lon="34.9648500">
<ele>206.919998</ele>
<time>2020-09-01T11:51:30.679Z</time>
</trkpt>
<trkpt lat="31.7952000" lon="34.9648500">
<ele>206.919998</ele>
<time>2020-09-01T11:51:30.679Z</time>
</trkpt>
<trkpt lat="31.7951500" lon="34.9648000">
<ele>206.560013</ele>
<time>2020-09-01T11:51:30.679Z</time>
</trkpt>
<trkpt lat="31.7950700" lon="34.9647800">
<ele>206.419998</ele>
<time>2020-09-01T11:51:30.679Z</time>
</trkpt>
<trkpt lat="31.7949700" lon="34.9647900">
<ele>206.029999</ele>
<time>2020-09-01T11:51:30.679Z</time>
</trkpt>
<trkpt lat="31.7947300" lon="34.9648900">
<ele>204.110001</ele>
<time>2020-09-01T11:51:30.679Z</time>
</trkpt>
<trkpt lat="31.7946400" lon="34.9649600">
<ele>203.889999</ele>
<time>2020-09-01T11:51:30.679Z</time>
</trkpt>
<trkpt lat="31.7945700" lon="34.9650500">
<ele>203.619995</ele>
<time>2020-09-01T11:51:30.679Z</time>
</trkpt>
<trkpt lat="31.7944000" lon="34.9653800">
<ele>203.679993</ele>
<time>2020-09-01T11:51:30.679Z</time>
</trkpt>
<trkpt lat="31.7942900" lon="34.9655500">
<ele>204.420013</ele>
<time>2020-09-01T11:51:30.679Z</time>
</trkpt>
<trkpt lat="31.7942100" lon="34.9656200">
<ele>204.580002</ele>
<time>2020-09-01T11:51:30.679Z</time>
</trkpt>
<trkpt lat="31.7939300" lon="34.9657200">
<ele>206.699997</ele>
<time>2020-09-01T11:51:30.679Z</time>
</trkpt>
<trkpt lat="31.7938500" lon="34.9658000">
<ele>208.769989</ele>
<time>2020-09-01T11:51:30.679Z</time>
</trkpt>
<trkpt lat="31.7937800" lon="34.9659000">
<ele>211.520004</ele>
<time>2020-09-01T11:51:30.679Z</time>
</trkpt>
<trkpt lat="31.7937200" lon="34.9660100">
<ele>214.249985</ele>
<time>2020-09-01T11:51:30.679Z</time>
</trkpt>
<trkpt lat="31.7937000" lon="34.9660900">
<ele>215.960007</ele>
<time>2020-09-01T11:51:30.679Z</time>
</trkpt>
<trkpt lat="31.7936600" lon="34.9663800">
<ele>219.440002</ele>
<time>2020-09-01T11:51:30.679Z</time>
</trkpt>
<trkpt lat="31.7935500" lon="34.9666100">
<ele>220.589996</ele>
<time>2020-09-01T11:51:30.679Z</time>
</trkpt>
<trkpt lat="31.7935300" lon="34.9667300">
<ele>221.229996</ele>
<time>2020-09-01T11:51:30.679Z</time>
</trkpt>
<trkpt lat="31.7934700" lon="34.9668400">
<ele>221.619995</ele>
<time>2020-09-01T11:51:30.679Z</time>
</trkpt>
<trkpt lat="31.7933800" lon="34.9669700">
<ele>222.319992</ele>
<time>2020-09-01T11:51:30.679Z</time>
</trkpt>
<trkpt lat="31.7932800" lon="34.9670800">
<ele>223.759995</ele>
<time>2020-09-01T11:51:30.679Z</time>
</trkpt>
<trkpt lat="31.7931300" lon="34.9671700">
<ele>224.970001</ele>
<time>2020-09-01T11:51:30.679Z</time>
</trkpt>
<trkpt lat="31.7931300" lon="34.9671700">
<ele>224.970001</ele>
<time>2020-09-01T11:51:30.679Z</time>
</trkpt>
<trkpt lat="31.7931300" lon="34.9671700">
<ele>224.970001</ele>
<time>2020-09-01T11:51:30.679Z</time>
</trkpt>
<trkpt lat="31.7927100" lon="34.9674500">
<ele>232.789993</ele>
<time>2020-09-01T11:51:30.679Z</time>
</trkpt>
<trkpt lat="31.7926000" lon="34.9675600">
<ele>235.940002</ele>
<time>2020-09-01T11:51:30.679Z</time>
</trkpt>
<trkpt lat="31.7925400" lon="34.9677100">
<ele>238.809998</ele>
<time>2020-09-01T11:51:30.679Z</time>
</trkpt>
<trkpt lat="31.7925300" lon="34.9679700">
<ele>244.980011</ele>
<time>2020-09-01T11:51:30.679Z</time>
</trkpt>
<trkpt lat="31.7925000" lon="34.9681300">
<ele>248.799988</ele>
<time>2020-09-01T11:51:30.679Z</time>
</trkpt>
<trkpt lat="31.7924300" lon="34.9683800">
<ele>250.659988</ele>
<time>2020-09-01T11:51:30.679Z</time>
</trkpt>
<trkpt lat="31.7923900" lon="34.9684900">
<ele>251.389999</ele>
<time>2020-09-01T11:51:30.679Z</time>
</trkpt>
<trkpt lat="31.7923600" lon="34.9685700">
<ele>252.049988</ele>
<time>2020-09-01T11:51:30.679Z</time>
</trkpt>
<trkpt lat="31.7922200" lon="34.9685100">
<ele>250.509995</ele>
<time>2020-09-01T11:51:30.679Z</time>
</trkpt>
<trkpt lat="31.7920500" lon="34.9685600">
<ele>248.900009</ele>
<time>2020-09-01T11:51:30.679Z</time>
</trkpt>
<trkpt lat="31.7918700" lon="34.9685800">
<ele>247.069992</ele>
<time>2020-09-01T11:51:30.679Z</time>
</trkpt>
<trkpt lat="31.7913300" lon="34.9684900">
<ele>244.409988</ele>
<time>2020-09-01T11:51:30.679Z</time>
</trkpt>
<trkpt lat="31.7910100" lon="34.9684800">
<ele>249.509995</ele>
<time>2020-09-01T11:51:30.679Z</time>
</trkpt>
<trkpt lat="31.7908600" lon="34.9684500">
<ele>249.569992</ele>
<time>2020-09-01T11:51:30.679Z</time>
</trkpt>
<trkpt lat="31.7907300" lon="34.9683800">
<ele>250.839996</ele>
<time>2020-09-01T11:51:30.679Z</time>
</trkpt>
<trkpt lat="31.7904800" lon="34.9683100">
<ele>253.520004</ele>
<time>2020-09-01T11:51:30.679Z</time>
</trkpt>
<trkpt lat="31.7903400" lon="34.9683100">
<ele>253.099991</ele>
<time>2020-09-01T11:51:30.679Z</time>
</trkpt>
<trkpt lat="31.7900200" lon="34.9682500">
<ele>253.719986</ele>
<time>2020-09-01T11:51:30.679Z</time>
</trkpt>
<trkpt lat="31.7898300" lon="34.9681200">
<ele>259.410004</ele>
<time>2020-09-01T11:51:30.679Z</time>
</trkpt>
<trkpt lat="31.7894900" lon="34.9679600">
<ele>269.130005</ele>
<time>2020-09-01T11:51:30.679Z</time>
</trkpt>
<trkpt lat="31.7893000" lon="34.9678400">
<ele>269.619995</ele>
<time>2020-09-01T11:51:30.679Z</time>
</trkpt>
<trkpt lat="31.7892300" lon="34.9677400">
<ele>266.339996</ele>
<time>2020-09-01T11:51:30.679Z</time>
</trkpt>
<trkpt lat="31.7892200" lon="34.9676200">
<ele>257.509979</ele>
<time>2020-09-01T11:51:30.679Z</time>
</trkpt>
<trkpt lat="31.7891900" lon="34.9675400">
<ele>251.860001</ele>
<time>2020-09-01T11:51:30.680Z</time>
</trkpt>
<trkpt lat="31.7891600" lon="34.9675000">
<ele>249.360001</ele>
<time>2020-09-01T11:51:30.680Z</time>
</trkpt>
<trkpt lat="31.7891600" lon="34.9675000">
<ele>249.360001</ele>
<time>2020-09-01T11:51:30.680Z</time>
</trkpt>
<trkpt lat="31.7891600" lon="34.9675000">
<ele>249.360001</ele>
<time>2020-09-01T11:51:30.680Z</time>
</trkpt>
<trkpt lat="31.7890400" lon="34.9673500">
<ele>250.539993</ele>
<time>2020-09-01T11:51:30.680Z</time>
</trkpt>
<trkpt lat="31.7889700" lon="34.9672200">
<ele>248.770004</ele>
<time>2020-09-01T11:51:30.680Z</time>
</trkpt>
<trkpt lat="31.7889400" lon="34.9670900">
<ele>249.110001</ele>
<time>2020-09-01T11:51:30.680Z</time>
</trkpt>
<trkpt lat="31.7889600" lon="34.9669700">
<ele>247.599991</ele>
<time>2020-09-01T11:51:30.680Z</time>
</trkpt>
<trkpt lat="31.7890600" lon="34.9667900">
<ele>245.210007</ele>
<time>2020-09-01T11:51:30.680Z</time>
</trkpt>
<trkpt lat="31.7891200" lon="34.9666500">
<ele>245.250000</ele>
<time>2020-09-01T11:51:30.680Z</time>
</trkpt>
<trkpt lat="31.7891300" lon="34.9665600">
<ele>246.330002</ele>
<time>2020-09-01T11:51:30.680Z</time>
</trkpt>
<trkpt lat="31.7891300" lon="34.9664500">
<ele>247.910004</ele>
<time>2020-09-01T11:51:30.680Z</time>
</trkpt>
<trkpt lat="31.7891000" lon="34.9663800">
<ele>249.339996</ele>
<time>2020-09-01T11:51:30.680Z</time>
</trkpt>
<trkpt lat="31.7890000" lon="34.9662200">
<ele>250.259995</ele>
<time>2020-09-01T11:51:30.680Z</time>
</trkpt>
<trkpt lat="31.7889300" lon="34.9661600">
<ele>251.920013</ele>
<time>2020-09-01T11:51:30.680Z</time>
</trkpt>
<trkpt lat="31.7886700" lon="34.9660100">
<ele>257.839996</ele>
<time>2020-09-01T11:51:30.680Z</time>
</trkpt>
<trkpt lat="31.7882900" lon="34.9657300">
<ele>258.839996</ele>
<time>2020-09-01T11:51:30.680Z</time>
</trkpt>
<trkpt lat="31.7879000" lon="34.9652600">
<ele>249.099991</ele>
<time>2020-09-01T11:51:30.680Z</time>
</trkpt>
<trkpt lat="31.7877200" lon="34.9650400">
<ele>239.970001</ele>
<time>2020-09-01T11:51:30.680Z</time>
</trkpt>
<trkpt lat="31.7876100" lon="34.9649300">
<ele>239.050003</ele>
<time>2020-09-01T11:51:30.680Z</time>
</trkpt>
<trkpt lat="31.7874900" lon="34.9649700">
<ele>239.190002</ele>
<time>2020-09-01T11:51:30.680Z</time>
</trkpt>
<trkpt lat="31.7871400" lon="34.9650200">
<ele>242.180008</ele>
<time>2020-09-01T11:51:30.680Z</time>
</trkpt>
<trkpt lat="31.7867400" lon="34.9651600">
<ele>246.580002</ele>
<time>2020-09-01T11:51:30.680Z</time>
</trkpt>
<trkpt lat="31.7866800" lon="34.9651600">
<ele>247.050003</ele>
<time>2020-09-01T11:51:30.680Z</time>
</trkpt>
<trkpt lat="31.7866200" lon="34.9650700">
<ele>247.180008</ele>
<time>2020-09-01T11:51:30.680Z</time>
</trkpt>
<trkpt lat="31.7866200" lon="34.9649500">
<ele>246.820007</ele>
<time>2020-09-01T11:51:30.680Z</time>
</trkpt>
<trkpt lat="31.7866500" lon="34.9648600">
<ele>246.710007</ele>
<time>2020-09-01T11:51:30.680Z</time>
</trkpt>
<trkpt lat="31.7867500" lon="34.9647500">
<ele>246.600006</ele>
<time>2020-09-01T11:51:30.680Z</time>
</trkpt>
<trkpt lat="31.7868300" lon="34.9647200">
<ele>246.440002</ele>
<time>2020-09-01T11:51:30.680Z</time>
</trkpt>
<trkpt lat="31.7870100" lon="34.9646700">
<ele>246.520004</ele>
<time>2020-09-01T11:51:30.680Z</time>
</trkpt>
<trkpt lat="31.7870300" lon="34.9646500">
<ele>246.729996</ele>
<time>2020-09-01T11:51:30.680Z</time>
</trkpt>
<trkpt lat="31.7870300" lon="34.9646500">
<ele>246.729996</ele>
<time>2020-09-01T11:51:30.680Z</time>
</trkpt>
<trkpt lat="31.7870300" lon="34.9646600">
<ele>246.590012</ele>
<time>2020-09-01T11:51:30.680Z</time>
</trkpt>
<trkpt lat="31.7871200" lon="34.9646000">
<ele>247.129990</ele>
<time>2020-09-01T11:51:30.680Z</time>
</trkpt>
<trkpt lat="31.7874900" lon="34.9641000">
<ele>250.849991</ele>
<time>2020-09-01T11:51:30.680Z</time>
</trkpt>
<trkpt lat="31.7880000" lon="34.9632100">
<ele>258.000000</ele>
<time>2020-09-01T11:51:30.680Z</time>
</trkpt>
<trkpt lat="31.7880300" lon="34.9631300">
<ele>258.490021</ele>
<time>2020-09-01T11:51:30.680Z</time>
</trkpt>
<trkpt lat="31.7880500" lon="34.9630800">
<ele>258.830017</ele>
<time>2020-09-01T11:51:30.680Z</time>
</trkpt>
<trkpt lat="31.7880800" lon="34.9629100">
<ele>258.510010</ele>
<time>2020-09-01T11:51:30.680Z</time>
</trkpt>
<trkpt lat="31.7880600" lon="34.9628000">
<ele>258.910004</ele>
<time>2020-09-01T11:51:30.680Z</time>
</trkpt>
<trkpt lat="31.7880200" lon="34.9627100">
<ele>258.459991</ele>
<time>2020-09-01T11:51:30.680Z</time>
</trkpt>
<trkpt lat="31.7879000" lon="34.9626300">
<ele>258.559998</ele>
<time>2020-09-01T11:51:30.680Z</time>
</trkpt>
<trkpt lat="31.7876900" lon="34.9625500">
<ele>260.699982</ele>
<time>2020-09-01T11:51:30.680Z</time>
</trkpt>
<trkpt lat="31.7872700" lon="34.9623500">
<ele>267.769989</ele>
<time>2020-09-01T11:51:30.680Z</time>
</trkpt>
<trkpt lat="31.7869600" lon="34.9621600">
<ele>264.239990</ele>
<time>2020-09-01T11:51:30.680Z</time>
</trkpt>
<trkpt lat="31.7867400" lon="34.9620400">
<ele>254.619995</ele>
<time>2020-09-01T11:51:30.681Z</time>
</trkpt>
<trkpt lat="31.7863800" lon="34.9618900">
<ele>242.860001</ele>
<time>2020-09-01T11:51:30.681Z</time>
</trkpt>
<trkpt lat="31.7861900" lon="34.9618600">
<ele>242.090012</ele>
<time>2020-09-01T11:51:30.681Z</time>
</trkpt>
<trkpt lat="31.7860600" lon="34.9618100">
<ele>240.720001</ele>
<time>2020-09-01T11:51:30.681Z</time>
</trkpt>
<trkpt lat="31.7859300" lon="34.9617000">
<ele>238.639999</ele>
<time>2020-09-01T11:51:30.681Z</time>
</trkpt>
<trkpt lat="31.7858600" lon="34.9616100">
<ele>238.059998</ele>
<time>2020-09-01T11:51:30.681Z</time>
</trkpt>
<trkpt lat="31.7857800" lon="34.9613800">
<ele>236.489990</ele>
<time>2020-09-01T11:51:30.681Z</time>
</trkpt>
<trkpt lat="31.7858800" lon="34.9609000">
<ele>229.580002</ele>
<time>2020-09-01T11:51:30.681Z</time>
</trkpt>
<trkpt lat="31.7859100" lon="34.9607400">
<ele>228.830002</ele>
<time>2020-09-01T11:51:30.681Z</time>
</trkpt>
<trkpt lat="31.7859100" lon="34.9606600">
<ele>228.830002</ele>
<time>2020-09-01T11:51:30.681Z</time>
</trkpt>
<trkpt lat="31.7858400" lon="34.9603200">
<ele>232.229996</ele>
<time>2020-09-01T11:51:30.681Z</time>
</trkpt>
<trkpt lat="31.7857100" lon="34.9598600">
<ele>237.440002</ele>
<time>2020-09-01T11:51:30.681Z</time>
</trkpt>
<trkpt lat="31.7857100" lon="34.9598000">
<ele>237.440002</ele>
<time>2020-09-01T11:51:30.681Z</time>
</trkpt>
<trkpt lat="31.7857100" lon="34.9598000">
<ele>237.440002</ele>
<time>2020-09-01T11:51:30.681Z</time>
</trkpt>
<trkpt lat="31.7857100" lon="34.9598000">
<ele>237.440002</ele>
<time>2020-09-01T11:51:30.681Z</time>
</trkpt>
<trkpt lat="31.7857000" lon="34.9597000">
<ele>237.519989</ele>
<time>2020-09-01T11:51:30.681Z</time>
</trkpt>
<trkpt lat="31.7857300" lon="34.9595900">
<ele>237.669998</ele>
<time>2020-09-01T11:51:30.681Z</time>
</trkpt>
<trkpt lat="31.7857800" lon="34.9595100">
<ele>237.810013</ele>
<time>2020-09-01T11:51:30.681Z</time>
</trkpt>
<trkpt lat="31.7858700" lon="34.9594300">
<ele>239.160004</ele>
<time>2020-09-01T11:51:30.681Z</time>
</trkpt>
<trkpt lat="31.7861900" lon="34.9592300">
<ele>245.770004</ele>
<time>2020-09-01T11:51:30.681Z</time>
</trkpt>
<trkpt lat="31.7867400" lon="34.9587400">
<ele>242.360001</ele>
<time>2020-09-01T11:51:30.681Z</time>
</trkpt>
<trkpt lat="31.7871400" lon="34.9584400">
<ele>242.699997</ele>
<time>2020-09-01T11:51:30.681Z</time>
</trkpt>
<trkpt lat="31.7870400" lon="34.9583500">
<ele>243.149994</ele>
<time>2020-09-01T11:51:30.681Z</time>
</trkpt>
<trkpt lat="31.7869500" lon="34.9583300">
<ele>242.139999</ele>
<time>2020-09-01T11:51:30.681Z</time>
</trkpt>
<trkpt lat="31.7866100" lon="34.9583700">
<ele>247.769989</ele>
<time>2020-09-01T11:51:30.681Z</time>
</trkpt>
<trkpt lat="31.7860900" lon="34.9585000">
<ele>255.580002</ele>
<time>2020-09-01T11:51:30.681Z</time>
</trkpt>
<trkpt lat="31.7859100" lon="34.9585000">
<ele>258.820007</ele>
<time>2020-09-01T11:51:30.681Z</time>
</trkpt>
<trkpt lat="31.7858400" lon="34.9584800">
<ele>259.940002</ele>
<time>2020-09-01T11:51:30.681Z</time>
</trkpt>
<trkpt lat="31.7857500" lon="34.9584200">
<ele>260.170013</ele>
<time>2020-09-01T11:51:30.681Z</time>
</trkpt>
<trkpt lat="31.7857100" lon="34.9583700">
<ele>260.630005</ele>
<time>2020-09-01T11:51:30.681Z</time>
</trkpt>
<trkpt lat="31.7857000" lon="34.9582700">
<ele>261.169983</ele>
<time>2020-09-01T11:51:30.681Z</time>
</trkpt>
<trkpt lat="31.7857600" lon="34.9581700">
<ele>261.200012</ele>
<time>2020-09-01T11:51:30.681Z</time>
</trkpt>
<trkpt lat="31.7860200" lon="34.9579700">
<ele>259.829987</ele>
<time>2020-09-01T11:51:30.681Z</time>
</trkpt>
<trkpt lat="31.7862300" lon="34.9578900">
<ele>257.390015</ele>
<time>2020-09-01T11:51:30.681Z</time>
</trkpt>
<trkpt lat="31.7864700" lon="34.9578300">
<ele>256.350006</ele>
<time>2020-09-01T11:51:30.681Z</time>
</trkpt>
<trkpt lat="31.7866400" lon="34.9577500">
<ele>258.029999</ele>
<time>2020-09-01T11:51:30.681Z</time>
</trkpt>
<trkpt lat="31.7867000" lon="34.9576800">
<ele>257.959991</ele>
<time>2020-09-01T11:51:30.681Z</time>
</trkpt>
<trkpt lat="31.7867400" lon="34.9575900">
<ele>258.250000</ele>
<time>2020-09-01T11:51:30.681Z</time>
</trkpt>
<trkpt lat="31.7867300" lon="34.9574600">
<ele>259.649994</ele>
<time>2020-09-01T11:51:30.681Z</time>
</trkpt>
<trkpt lat="31.7866800" lon="34.9573100">
<ele>262.350006</ele>
<time>2020-09-01T11:51:30.681Z</time>
</trkpt>
<trkpt lat="31.7866700" lon="34.9572300">
<ele>263.839996</ele>
<time>2020-09-01T11:51:30.681Z</time>
</trkpt>
<trkpt lat="31.7866900" lon="34.9571500">
<ele>265.109985</ele>
<time>2020-09-01T11:51:30.681Z</time>
</trkpt>
<trkpt lat="31.7867300" lon="34.9570900">
<ele>265.820007</ele>
<time>2020-09-01T11:51:30.681Z</time>
</trkpt>
<trkpt lat="31.7868800" lon="34.9570000">
<ele>265.850006</ele>
<time>2020-09-01T11:51:30.681Z</time>
</trkpt>
<trkpt lat="31.7873700" lon="34.9568600">
<ele>261.950012</ele>
<time>2020-09-01T11:51:30.681Z</time>
</trkpt>
<trkpt lat="31.7875200" lon="34.9567700">
<ele>261.509979</ele>
<time>2020-09-01T11:51:30.681Z</time>
</trkpt>
<trkpt lat="31.7876000" lon="34.9566600">
<ele>263.059998</ele>
<time>2020-09-01T11:51:30.681Z</time>
</trkpt>
<trkpt lat="31.7876900" lon="34.9564900">
<ele>264.709991</ele>
<time>2020-09-01T11:51:30.682Z</time>
</trkpt>
<trkpt lat="31.7877800" lon="34.9562700">
<ele>266.869995</ele>
<time>2020-09-01T11:51:30.682Z</time>
</trkpt>
<trkpt lat="31.7878900" lon="34.9559300">
<ele>271.149994</ele>
<time>2020-09-01T11:51:30.682Z</time>
</trkpt>
<trkpt lat="31.7879300" lon="34.9558500">
<ele>272.339996</ele>
<time>2020-09-01T11:51:30.682Z</time>
</trkpt>
<trkpt lat="31.7880300" lon="34.9557000">
<ele>274.699982</ele>
<time>2020-09-01T11:51:30.682Z</time>
</trkpt>
<trkpt lat="31.7882300" lon="34.9554800">
<ele>275.880005</ele>
<time>2020-09-01T11:51:30.682Z</time>
</trkpt>
<trkpt lat="31.7882400" lon="34.9554100">
<ele>275.850006</ele>
<time>2020-09-01T11:51:30.682Z</time>
</trkpt>
<trkpt lat="31.7882300" lon="34.9553400">
<ele>276.119995</ele>
<time>2020-09-01T11:51:30.682Z</time>
</trkpt>
<trkpt lat="31.7882100" lon="34.9553100">
<ele>276.570007</ele>
<time>2020-09-01T11:51:30.682Z</time>
</trkpt>
<trkpt lat="31.7881000" lon="34.9551900">
<ele>278.239990</ele>
<time>2020-09-01T11:51:30.682Z</time>
</trkpt>
<trkpt lat="31.7880100" lon="34.9551800">
<ele>277.809998</ele>
<time>2020-09-01T11:51:30.682Z</time>
</trkpt>
<trkpt lat="31.7879700" lon="34.9551800">
<ele>276.809998</ele>
<time>2020-09-01T11:51:30.682Z</time>
</trkpt>
<trkpt lat="31.7878800" lon="34.9552000">
<ele>274.630005</ele>
<time>2020-09-01T11:51:30.682Z</time>
</trkpt>
<trkpt lat="31.7877800" lon="34.9552300">
<ele>272.059998</ele>
<time>2020-09-01T11:51:30.682Z</time>
</trkpt>
<trkpt lat="31.7873600" lon="34.9553700">
<ele>272.179993</ele>
<time>2020-09-01T11:51:30.682Z</time>
</trkpt>
<trkpt lat="31.7872600" lon="34.9553900">
<ele>273.720001</ele>
<time>2020-09-01T11:51:30.682Z</time>
</trkpt>
<trkpt lat="31.7872600" lon="34.9553900">
<ele>273.720001</ele>
<time>2020-09-01T11:51:30.682Z</time>
</trkpt>
<trkpt lat="31.7872600" lon="34.9553900">
<ele>273.720001</ele>
<time>2020-09-01T11:51:30.682Z</time>
</trkpt>
<trkpt lat="31.7867200" lon="34.9554900">
<ele>283.299988</ele>
<time>2020-09-01T11:51:30.682Z</time>
</trkpt>
<trkpt lat="31.7864400" lon="34.9555700">
<ele>288.500000</ele>
<time>2020-09-01T11:51:30.682Z</time>
</trkpt>
<trkpt lat="31.7862200" lon="34.9557000">
<ele>290.380005</ele>
<time>2020-09-01T11:51:30.682Z</time>
</trkpt>
<trkpt lat="31.7860000" lon="34.9559200">
<ele>291.500000</ele>
<time>2020-09-01T11:51:30.682Z</time>
</trkpt>
<trkpt lat="31.7857200" lon="34.9560500">
<ele>290.529999</ele>
<time>2020-09-01T11:51:30.682Z</time>
</trkpt>
<trkpt lat="31.7856000" lon="34.9561300">
<ele>291.170013</ele>
<time>2020-09-01T11:51:30.682Z</time>
</trkpt>
<trkpt lat="31.7850200" lon="34.9566500">
<ele>284.889984</ele>
<time>2020-09-01T11:51:30.682Z</time>
</trkpt>
<trkpt lat="31.7846300" lon="34.9569700">
<ele>285.790009</ele>
<time>2020-09-01T11:51:30.682Z</time>
</trkpt>
<trkpt lat="31.7845100" lon="34.9570400">
<ele>285.050018</ele>
<time>2020-09-01T11:51:30.682Z</time>
</trkpt>
<trkpt lat="31.7843700" lon="34.9571000">
<ele>285.220001</ele>
<time>2020-09-01T11:51:30.682Z</time>
</trkpt>
<trkpt lat="31.7838800" lon="34.9572700">
<ele>289.320007</ele>
<time>2020-09-01T11:51:30.682Z</time>
</trkpt>
<trkpt lat="31.7834700" lon="34.9573800">
<ele>287.410004</ele>
<time>2020-09-01T11:51:30.682Z</time>
</trkpt>
<trkpt lat="31.7834300" lon="34.9574100">
<ele>286.919983</ele>
<time>2020-09-01T11:51:30.682Z</time>
</trkpt>
<trkpt lat="31.7833700" lon="34.9575000">
<ele>286.260010</ele>
<time>2020-09-01T11:51:30.682Z</time>
</trkpt>
<trkpt lat="31.7833400" lon="34.9576500">
<ele>288.209991</ele>
<time>2020-09-01T11:51:30.682Z</time>
</trkpt>
<trkpt lat="31.7833100" lon="34.9577300">
<ele>290.000000</ele>
<time>2020-09-01T11:51:30.682Z</time>
</trkpt>
<trkpt lat="31.7832700" lon="34.9577900">
<ele>292.139984</ele>
<time>2020-09-01T11:51:30.683Z</time>
</trkpt>
<trkpt lat="31.7832100" lon="34.9578500">
<ele>294.309998</ele>
<time>2020-09-01T11:51:30.683Z</time>
</trkpt>
<trkpt lat="31.7830600" lon="34.9579400">
<ele>298.309998</ele>
<time>2020-09-01T11:51:30.683Z</time>
</trkpt>
<trkpt lat="31.7829200" lon="34.9579700">
<ele>301.420013</ele>
<time>2020-09-01T11:51:30.683Z</time>
</trkpt>
<trkpt lat="31.7826700" lon="34.9579500">
<ele>306.850006</ele>
<time>2020-09-01T11:51:30.683Z</time>
</trkpt>
<trkpt lat="31.7825500" lon="34.9579700">
<ele>309.300018</ele>
<time>2020-09-01T11:51:30.683Z</time>
</trkpt>
<trkpt lat="31.7823600" lon="34.9580400">
<ele>311.459991</ele>
<time>2020-09-01T11:51:30.683Z</time>
</trkpt>
<trkpt lat="31.7822400" lon="34.9581100">
<ele>312.390015</ele>
<time>2020-09-01T11:51:30.683Z</time>
</trkpt>
<trkpt lat="31.7821100" lon="34.9582300">
<ele>311.589996</ele>
<time>2020-09-01T11:51:30.683Z</time>
</trkpt>
<trkpt lat="31.7820100" lon="34.9582700">
<ele>311.279999</ele>
<time>2020-09-01T11:51:30.683Z</time>
</trkpt>
<trkpt lat="31.7818300" lon="34.9583500">
<ele>309.819977</ele>
<time>2020-09-01T11:51:30.683Z</time>
</trkpt>
<trkpt lat="31.7815600" lon="34.9584100">
<ele>309.419983</ele>
<time>2020-09-01T11:51:30.683Z</time>
</trkpt>
<trkpt lat="31.7814300" lon="34.9585000">
<ele>312.189972</ele>
<time>2020-09-01T11:51:30.683Z</time>
</trkpt>
<trkpt lat="31.7813000" lon="34.9586500">
<ele>315.640015</ele>
<time>2020-09-01T11:51:30.683Z</time>
</trkpt>
<trkpt lat="31.7810200" lon="34.9590600">
<ele>319.480011</ele>
<time>2020-09-01T11:51:30.683Z</time>
</trkpt>
<trkpt lat="31.7809300" lon="34.9592200">
<ele>320.669983</ele>
<time>2020-09-01T11:51:30.683Z</time>
</trkpt>
<trkpt lat="31.7808500" lon="34.9594300">
<ele>323.640015</ele>
<time>2020-09-01T11:51:30.683Z</time>
</trkpt>
<trkpt lat="31.7807400" lon="34.9596600">
<ele>325.320007</ele>
<time>2020-09-01T11:51:30.683Z</time>
</trkpt>
<trkpt lat="31.7806900" lon="34.9598900">
<ele>327.580017</ele>
<time>2020-09-01T11:51:30.683Z</time>
</trkpt>
<trkpt lat="31.7806000" lon="34.9601500">
<ele>329.850006</ele>
<time>2020-09-01T11:51:30.683Z</time>
</trkpt>
<trkpt lat="31.7805900" lon="34.9603700">
<ele>331.619995</ele>
<time>2020-09-01T11:51:30.683Z</time>
</trkpt>
<trkpt lat="31.7805500" lon="34.9605200">
<ele>332.600006</ele>
<time>2020-09-01T11:51:30.683Z</time>
</trkpt>
<trkpt lat="31.7803100" lon="34.9610700">
<ele>330.859985</ele>
<time>2020-09-01T11:51:30.683Z</time>
</trkpt>
<trkpt lat="31.7802200" lon="34.9612100">
<ele>330.330017</ele>
<time>2020-09-01T11:51:30.683Z</time>
</trkpt>
<trkpt lat="31.7799500" lon="34.9615000">
<ele>331.950012</ele>
<time>2020-09-01T11:51:30.683Z</time>
</trkpt>
<trkpt lat="31.7798300" lon="34.9615900">
<ele>332.119995</ele>
<time>2020-09-01T11:51:30.683Z</time>
</trkpt>
<trkpt lat="31.7795800" lon="34.9616800">
<ele>332.190002</ele>
<time>2020-09-01T11:51:30.683Z</time>
</trkpt>
<trkpt lat="31.7794700" lon="34.9617500">
<ele>333.440002</ele>
<time>2020-09-01T11:51:30.683Z</time>
</trkpt>
<trkpt lat="31.7793900" lon="34.9618900">
<ele>335.510010</ele>
<time>2020-09-01T11:51:30.683Z</time>
</trkpt>
<trkpt lat="31.7792700" lon="34.9624700">
<ele>339.960022</ele>
<time>2020-09-01T11:51:30.683Z</time>
</trkpt>
<trkpt lat="31.7792200" lon="34.9626000">
<ele>339.679993</ele>
<time>2020-09-01T11:51:30.683Z</time>
</trkpt>
<trkpt lat="31.7791000" lon="34.9628300">
<ele>338.230011</ele>
<time>2020-09-01T11:51:30.683Z</time>
</trkpt>
<trkpt lat="31.7790200" lon="34.9629400">
<ele>338.040009</ele>
<time>2020-09-01T11:51:30.683Z</time>
</trkpt>
<trkpt lat="31.7789500" lon="34.9629900">
<ele>338.720001</ele>
<time>2020-09-01T11:51:30.683Z</time>
</trkpt>
<trkpt lat="31.7789000" lon="34.9630200">
<ele>339.490021</ele>
<time>2020-09-01T11:51:30.683Z</time>
</trkpt>
<trkpt lat="31.7786300" lon="34.9631600">
<ele>341.779999</ele>
<time>2020-09-01T11:51:30.683Z</time>
</trkpt>
<trkpt lat="31.7785700" lon="34.9632600">
<ele>342.899994</ele>
<time>2020-09-01T11:51:30.683Z</time>
</trkpt>
<trkpt lat="31.7785500" lon="34.9633200">
<ele>343.649994</ele>
<time>2020-09-01T11:51:30.683Z</time>
</trkpt>
<trkpt lat="31.7785700" lon="34.9635600">
<ele>347.070007</ele>
<time>2020-09-01T11:51:30.683Z</time>
</trkpt>
<trkpt lat="31.7785700" lon="34.9635600">
<ele>347.070007</ele>
<time>2020-09-01T11:51:30.683Z</time>
</trkpt>
<trkpt lat="31.7785700" lon="34.9635600">
<ele>347.070007</ele>
<time>2020-09-01T11:51:30.683Z</time>
</trkpt>
<trkpt lat="31.7785800" lon="34.9637200">
<ele>348.260010</ele>
<time>2020-09-01T11:51:30.683Z</time>
</trkpt>
<trkpt lat="31.7785500" lon="34.9638700">
<ele>348.899994</ele>
<time>2020-09-01T11:51:30.683Z</time>
</trkpt>
<trkpt lat="31.7784600" lon="34.9641600">
<ele>350.419983</ele>
<time>2020-09-01T11:51:30.683Z</time>
</trkpt>
<trkpt lat="31.7784500" lon="34.9642400">
<ele>350.639984</ele>
<time>2020-09-01T11:51:30.683Z</time>
</trkpt>
<trkpt lat="31.7784900" lon="34.9644100">
<ele>351.549988</ele>
<time>2020-09-01T11:51:30.683Z</time>
</trkpt>
<trkpt lat="31.7784700" lon="34.9648500">
<ele>352.019989</ele>
<time>2020-09-01T11:51:30.683Z</time>
</trkpt>
<trkpt lat="31.7782700" lon="34.9657100">
<ele>342.020020</ele>
<time>2020-09-01T11:51:30.684Z</time>
</trkpt>
<trkpt lat="31.7782400" lon="34.9660300">
<ele>337.579987</ele>
<time>2020-09-01T11:51:30.684Z</time>
</trkpt>
<trkpt lat="31.7782200" lon="34.9662400">
<ele>337.380005</ele>
<time>2020-09-01T11:51:30.684Z</time>
</trkpt>
<trkpt lat="31.7781500" lon="34.9665000">
<ele>339.250000</ele>
<time>2020-09-01T11:51:30.684Z</time>
</trkpt>
<trkpt lat="31.7779700" lon="34.9665300">
<ele>339.140015</ele>
<time>2020-09-01T11:51:30.684Z</time>
</trkpt>
<trkpt lat="31.7774700" lon="34.9667700">
<ele>336.459991</ele>
<time>2020-09-01T11:51:30.684Z</time>
</trkpt>
<trkpt lat="31.7771200" lon="34.9668800">
<ele>338.340027</ele>
<time>2020-09-01T11:51:30.684Z</time>
</trkpt>
<trkpt lat="31.7770200" lon="34.9668900">
<ele>339.280029</ele>
<time>2020-09-01T11:51:30.684Z</time>
</trkpt>
<trkpt lat="31.7767100" lon="34.9668600">
<ele>342.220001</ele>
<time>2020-09-01T11:51:30.684Z</time>
</trkpt>
<trkpt lat="31.7762100" lon="34.9667600">
<ele>347.299988</ele>
<time>2020-09-01T11:51:30.684Z</time>
</trkpt>
<trkpt lat="31.7760800" lon="34.9667700">
<ele>348.319977</ele>
<time>2020-09-01T11:51:30.684Z</time>
</trkpt>
<trkpt lat="31.7760000" lon="34.9668000">
<ele>349.399994</ele>
<time>2020-09-01T11:51:30.684Z</time>
</trkpt>
<trkpt lat="31.7759100" lon="34.9668800">
<ele>352.080017</ele>
<time>2020-09-01T11:51:30.684Z</time>
</trkpt>
<trkpt lat="31.7758600" lon="34.9669600">
<ele>354.679993</ele>
<time>2020-09-01T11:51:30.684Z</time>
</trkpt>
<trkpt lat="31.7758100" lon="34.9670700">
<ele>355.609985</ele>
<time>2020-09-01T11:51:30.684Z</time>
</trkpt>
<trkpt lat="31.7758000" lon="34.9671500">
<ele>356.089996</ele>
<time>2020-09-01T11:51:30.684Z</time>
</trkpt>
<trkpt lat="31.7758100" lon="34.9672500">
<ele>357.380005</ele>
<time>2020-09-01T11:51:30.684Z</time>
</trkpt>
<trkpt lat="31.7758800" lon="34.9673800">
<ele>361.840027</ele>
<time>2020-09-01T11:51:30.684Z</time>
</trkpt>
<trkpt lat="31.7759500" lon="34.9674800">
<ele>365.959991</ele>
<time>2020-09-01T11:51:30.684Z</time>
</trkpt>
<trkpt lat="31.7762600" lon="34.9677900">
<ele>371.829987</ele>
<time>2020-09-01T11:51:30.684Z</time>
</trkpt>
<trkpt lat="31.7765800" lon="34.9681700">
<ele>364.929993</ele>
<time>2020-09-01T11:51:30.684Z</time>
</trkpt>
<trkpt lat="31.7766800" lon="34.9683200">
<ele>362.950012</ele>
<time>2020-09-01T11:51:30.684Z</time>
</trkpt>
<trkpt lat="31.7768100" lon="34.9685800">
<ele>358.790009</ele>
<time>2020-09-01T11:51:30.684Z</time>
</trkpt>
<trkpt lat="31.7768600" lon="34.9688100">
<ele>358.760010</ele>
<time>2020-09-01T11:51:30.684Z</time>
</trkpt>
<trkpt lat="31.7768800" lon="34.9692500">
<ele>357.929993</ele>
<time>2020-09-01T11:51:30.684Z</time>
</trkpt>
<trkpt lat="31.7769900" lon="34.9700500">
<ele>355.679993</ele>
<time>2020-09-01T11:51:30.684Z</time>
</trkpt>
<trkpt lat="31.7769700" lon="34.9702500">
<ele>353.920013</ele>
<time>2020-09-01T11:51:30.684Z</time>
</trkpt>
<trkpt lat="31.7769500" lon="34.9703400">
<ele>353.380005</ele>
<time>2020-09-01T11:51:30.684Z</time>
</trkpt>
<trkpt lat="31.7769100" lon="34.9704100">
<ele>352.660004</ele>
<time>2020-09-01T11:51:30.684Z</time>
</trkpt>
<trkpt lat="31.7768000" lon="34.9705400">
<ele>351.260010</ele>
<time>2020-09-01T11:51:30.684Z</time>
</trkpt>
<trkpt lat="31.7767100" lon="34.9705900">
<ele>350.339996</ele>
<time>2020-09-01T11:51:30.684Z</time>
</trkpt>
<trkpt lat="31.7764000" lon="34.9706900">
<ele>347.119995</ele>
<time>2020-09-01T11:51:30.684Z</time>
</trkpt>
<trkpt lat="31.7761800" lon="34.9707400">
<ele>346.410004</ele>
<time>2020-09-01T11:51:30.684Z</time>
</trkpt>
<trkpt lat="31.7757900" lon="34.9708000">
<ele>351.449982</ele>
<time>2020-09-01T11:51:30.684Z</time>
</trkpt>
<trkpt lat="31.7756400" lon="34.9708600">
<ele>354.229980</ele>
<time>2020-09-01T11:51:30.684Z</time>
</trkpt>
<trkpt lat="31.7755800" lon="34.9709200">
<ele>356.180023</ele>
<time>2020-09-01T11:51:30.684Z</time>
</trkpt>
<trkpt lat="31.7755200" lon="34.9710300">
<ele>358.670013</ele>
<time>2020-09-01T11:51:30.684Z</time>
</trkpt>
<trkpt lat="31.7754800" lon="34.9711700">
<ele>361.039978</ele>
<time>2020-09-01T11:51:30.684Z</time>
</trkpt>
<trkpt lat="31.7754800" lon="34.9712000">
<ele>361.440002</ele>
<time>2020-09-01T11:51:30.684Z</time>
</trkpt>
<trkpt lat="31.7754800" lon="34.9712000">
<ele>361.440002</ele>
<time>2020-09-01T11:51:30.684Z</time>
</trkpt>
<trkpt lat="31.7754800" lon="34.9712000">
<ele>361.440002</ele>
<time>2020-09-01T11:51:30.684Z</time>
</trkpt>
<trkpt lat="31.7754700" lon="34.9712900">
<ele>362.539978</ele>
<time>2020-09-01T11:51:30.684Z</time>
</trkpt>
<trkpt lat="31.7754800" lon="34.9721200">
<ele>362.310028</ele>
<time>2020-09-01T11:51:30.684Z</time>
</trkpt>
<trkpt lat="31.7754600" lon="34.9722900">
<ele>361.039978</ele>
<time>2020-09-01T11:51:30.684Z</time>
</trkpt>
<trkpt lat="31.7754300" lon="34.9724700">
<ele>360.170013</ele>
<time>2020-09-01T11:51:30.684Z</time>
</trkpt>
<trkpt lat="31.7752100" lon="34.9731100">
<ele>364.660004</ele>
<time>2020-09-01T11:51:30.684Z</time>
</trkpt>
<trkpt lat="31.7751900" lon="34.9732600">
<ele>366.829987</ele>
<time>2020-09-01T11:51:30.684Z</time>
</trkpt>
<trkpt lat="31.7752000" lon="34.9734000">
<ele>368.880005</ele>
<time>2020-09-01T11:51:30.685Z</time>
</trkpt>
<trkpt lat="31.7752400" lon="34.9735700">
<ele>371.149994</ele>
<time>2020-09-01T11:51:30.685Z</time>
</trkpt>
<trkpt lat="31.7752900" lon="34.9736900">
<ele>372.490021</ele>
<time>2020-09-01T11:51:30.685Z</time>
</trkpt>
<trkpt lat="31.7753600" lon="34.9738000">
<ele>373.959991</ele>
<time>2020-09-01T11:51:30.685Z</time>
</trkpt>
<trkpt lat="31.7756600" lon="34.9741100">
<ele>372.779999</ele>
<time>2020-09-01T11:51:30.685Z</time>
</trkpt>
<trkpt lat="31.7758400" lon="34.9743200">
<ele>371.229980</ele>
<time>2020-09-01T11:51:30.685Z</time>
</trkpt>
<trkpt lat="31.7759000" lon="34.9744800">
<ele>368.980011</ele>
<time>2020-09-01T11:51:30.685Z</time>
</trkpt>
<trkpt lat="31.7759400" lon="34.9746900">
<ele>367.620026</ele>
<time>2020-09-01T11:51:30.685Z</time>
</trkpt>
<trkpt lat="31.7758400" lon="34.9748700">
<ele>365.449982</ele>
<time>2020-09-01T11:51:30.685Z</time>
</trkpt>
<trkpt lat="31.7756000" lon="34.9754900">
<ele>373.029999</ele>
<time>2020-09-01T11:51:30.685Z</time>
</trkpt>
<trkpt lat="31.7755500" lon="34.9756600">
<ele>375.660004</ele>
<time>2020-09-01T11:51:30.685Z</time>
</trkpt>
<trkpt lat="31.7755300" lon="34.9758400">
<ele>376.630005</ele>
<time>2020-09-01T11:51:30.685Z</time>
</trkpt>
<trkpt lat="31.7755400" lon="34.9759700">
<ele>376.750000</ele>
<time>2020-09-01T11:51:30.685Z</time>
</trkpt>
<trkpt lat="31.7755800" lon="34.9761000">
<ele>377.080017</ele>
<time>2020-09-01T11:51:30.685Z</time>
</trkpt>
<trkpt lat="31.7756500" lon="34.9762600">
<ele>379.850006</ele>
<time>2020-09-01T11:51:30.685Z</time>
</trkpt>
<trkpt lat="31.7757900" lon="34.9764900">
<ele>384.260010</ele>
<time>2020-09-01T11:51:30.685Z</time>
</trkpt>
<trkpt lat="31.7759200" lon="34.9766600">
<ele>384.700012</ele>
<time>2020-09-01T11:51:30.685Z</time>
</trkpt>
<trkpt lat="31.7761200" lon="34.9768600">
<ele>379.190002</ele>
<time>2020-09-01T11:51:30.685Z</time>
</trkpt>
<trkpt lat="31.7759800" lon="34.9771500">
<ele>377.590027</ele>
<time>2020-09-01T11:51:30.685Z</time>
</trkpt>
<trkpt lat="31.7760400" lon="34.9774500">
<ele>376.720001</ele>
<time>2020-09-01T11:51:30.685Z</time>
</trkpt>
<trkpt lat="31.7759400" lon="34.9782500">
<ele>388.529999</ele>
<time>2020-09-01T11:51:30.685Z</time>
</trkpt>
<trkpt lat="31.7758100" lon="34.9784200">
<ele>388.210022</ele>
<time>2020-09-01T11:51:30.685Z</time>
</trkpt>
<trkpt lat="31.7755000" lon="34.9783700">
<ele>383.750000</ele>
<time>2020-09-01T11:51:30.685Z</time>
</trkpt>
<trkpt lat="31.7748100" lon="34.9781900">
<ele>377.089996</ele>
<time>2020-09-01T11:51:30.685Z</time>
</trkpt>
<trkpt lat="31.7744500" lon="34.9782200">
<ele>366.440002</ele>
<time>2020-09-01T11:51:30.685Z</time>
</trkpt>
<trkpt lat="31.7742100" lon="34.9784300">
<ele>363.149994</ele>
<time>2020-09-01T11:51:30.685Z</time>
</trkpt>
<trkpt lat="31.7740900" lon="34.9787200">
<ele>364.499969</ele>
<time>2020-09-01T11:51:30.685Z</time>
</trkpt>
<trkpt lat="31.7740900" lon="34.9787200">
<ele>364.499969</ele>
<time>2020-09-01T11:51:30.685Z</time>
</trkpt>
<trkpt lat="31.7740900" lon="34.9787200">
<ele>364.499969</ele>
<time>2020-09-01T11:51:30.685Z</time>
</trkpt>
<trkpt lat="31.7740800" lon="34.9787400">
<ele>364.509979</ele>
<time>2020-09-01T11:51:30.685Z</time>
</trkpt>
<trkpt lat="31.7740200" lon="34.9789000">
<ele>365.099976</ele>
<time>2020-09-01T11:51:30.685Z</time>
</trkpt>
<trkpt lat="31.7739400" lon="34.9789900">
<ele>365.359985</ele>
<time>2020-09-01T11:51:30.685Z</time>
</trkpt>
<trkpt lat="31.7738800" lon="34.9790500">
<ele>365.090027</ele>
<time>2020-09-01T11:51:30.685Z</time>
</trkpt>
<trkpt lat="31.7737400" lon="34.9791200">
<ele>364.859985</ele>
<time>2020-09-01T11:51:30.685Z</time>
</trkpt>
<trkpt lat="31.7736000" lon="34.9791300">
<ele>364.320007</ele>
<time>2020-09-01T11:51:30.685Z</time>
</trkpt>
<trkpt lat="31.7735000" lon="34.9791300">
<ele>364.100006</ele>
<time>2020-09-01T11:51:30.685Z</time>
</trkpt>
<trkpt lat="31.7734100" lon="34.9790900">
<ele>363.500000</ele>
<time>2020-09-01T11:51:30.685Z</time>
</trkpt>
<trkpt lat="31.7733800" lon="34.9790800">
<ele>363.389984</ele>
<time>2020-09-01T11:51:30.685Z</time>
</trkpt>
<trkpt lat="31.7732100" lon="34.9787700">
<ele>362.089996</ele>
<time>2020-09-01T11:51:30.685Z</time>
</trkpt>
<trkpt lat="31.7731200" lon="34.9786100">
<ele>363.989990</ele>
<time>2020-09-01T11:51:30.685Z</time>
</trkpt>
<trkpt lat="31.7730600" lon="34.9784000">
<ele>363.220001</ele>
<time>2020-09-01T11:51:30.685Z</time>
</trkpt>
<trkpt lat="31.7729700" lon="34.9779100">
<ele>361.529999</ele>
<time>2020-09-01T11:51:30.685Z</time>
</trkpt>
<trkpt lat="31.7729700" lon="34.9777300">
<ele>361.169983</ele>
<time>2020-09-01T11:51:30.685Z</time>
</trkpt>
<trkpt lat="31.7730000" lon="34.9774700">
<ele>360.720001</ele>
<time>2020-09-01T11:51:30.685Z</time>
</trkpt>
<trkpt lat="31.7730000" lon="34.9772400">
<ele>364.690002</ele>
<time>2020-09-01T11:51:30.685Z</time>
</trkpt>
<trkpt lat="31.7730400" lon="34.9770100">
<ele>371.829987</ele>
<time>2020-09-01T11:51:30.685Z</time>
</trkpt>
<trkpt lat="31.7729900" lon="34.9767100">
<ele>376.839996</ele>
<time>2020-09-01T11:51:30.685Z</time>
</trkpt>
<trkpt lat="31.7729400" lon="34.9765800">
<ele>376.740021</ele>
<time>2020-09-01T11:51:30.686Z</time>
</trkpt>
<trkpt lat="31.7727500" lon="34.9762700">
<ele>376.290009</ele>
<time>2020-09-01T11:51:30.686Z</time>
</trkpt>
<trkpt lat="31.7722900" lon="34.9756200">
<ele>372.289978</ele>
<time>2020-09-01T11:51:30.686Z</time>
</trkpt>
<trkpt lat="31.7717500" lon="34.9749700">
<ele>385.340027</ele>
<time>2020-09-01T11:51:30.686Z</time>
</trkpt>
<trkpt lat="31.7716100" lon="34.9747300">
<ele>385.559967</ele>
<time>2020-09-01T11:51:30.686Z</time>
</trkpt>
<trkpt lat="31.7715700" lon="34.9746100">
<ele>385.440002</ele>
<time>2020-09-01T11:51:30.686Z</time>
</trkpt>
<trkpt lat="31.7715400" lon="34.9744900">
<ele>385.470001</ele>
<time>2020-09-01T11:51:30.686Z</time>
</trkpt>
<trkpt lat="31.7715400" lon="34.9742000">
<ele>377.309998</ele>
<time>2020-09-01T11:51:30.686Z</time>
</trkpt>
<trkpt lat="31.7715600" lon="34.9740600">
<ele>373.089996</ele>
<time>2020-09-01T11:51:30.686Z</time>
</trkpt>
<trkpt lat="31.7716100" lon="34.9739200">
<ele>368.739990</ele>
<time>2020-09-01T11:51:30.686Z</time>
</trkpt>
<trkpt lat="31.7716900" lon="34.9737600">
<ele>365.820007</ele>
<time>2020-09-01T11:51:30.686Z</time>
</trkpt>
<trkpt lat="31.7718100" lon="34.9736200">
<ele>363.519989</ele>
<time>2020-09-01T11:51:30.686Z</time>
</trkpt>
<trkpt lat="31.7722000" lon="34.9732500">
<ele>356.040009</ele>
<time>2020-09-01T11:51:30.686Z</time>
</trkpt>
<trkpt lat="31.7723400" lon="34.9731000">
<ele>354.239990</ele>
<time>2020-09-01T11:51:30.686Z</time>
</trkpt>
<trkpt lat="31.7724300" lon="34.9729900">
<ele>353.329987</ele>
<time>2020-09-01T11:51:30.686Z</time>
</trkpt>
<trkpt lat="31.7725500" lon="34.9727600">
<ele>352.080017</ele>
<time>2020-09-01T11:51:30.686Z</time>
</trkpt>
<trkpt lat="31.7726100" lon="34.9726000">
<ele>349.239990</ele>
<time>2020-09-01T11:51:30.686Z</time>
</trkpt>
<trkpt lat="31.7726300" lon="34.9724400">
<ele>347.459991</ele>
<time>2020-09-01T11:51:30.686Z</time>
</trkpt>
<trkpt lat="31.7725800" lon="34.9722300">
<ele>348.000000</ele>
<time>2020-09-01T11:51:30.686Z</time>
</trkpt>
<trkpt lat="31.7725100" lon="34.9720900">
<ele>351.600006</ele>
<time>2020-09-01T11:51:30.686Z</time>
</trkpt>
<trkpt lat="31.7721600" lon="34.9716400">
<ele>360.369995</ele>
<time>2020-09-01T11:51:30.686Z</time>
</trkpt>
<trkpt lat="31.7721600" lon="34.9716400">
<ele>360.369995</ele>
<time>2020-09-01T11:51:30.686Z</time>
</trkpt>
<trkpt lat="31.7721600" lon="34.9716400">
<ele>360.369995</ele>
<time>2020-09-01T11:51:30.686Z</time>
</trkpt>
<trkpt lat="31.7721400" lon="34.9716200">
<ele>360.059998</ele>
<time>2020-09-01T11:51:30.686Z</time>
</trkpt>
<trkpt lat="31.7720600" lon="34.9714700">
<ele>361.580017</ele>
<time>2020-09-01T11:51:30.686Z</time>
</trkpt>
<trkpt lat="31.7719800" lon="34.9712700">
<ele>364.649994</ele>
<time>2020-09-01T11:51:30.686Z</time>
</trkpt>
<trkpt lat="31.7718000" lon="34.9706700">
<ele>358.370026</ele>
<time>2020-09-01T11:51:30.686Z</time>
</trkpt>
<trkpt lat="31.7717100" lon="34.9705600">
<ele>355.690002</ele>
<time>2020-09-01T11:51:30.686Z</time>
</trkpt>
<trkpt lat="31.7716600" lon="34.9704900">
<ele>353.390015</ele>
<time>2020-09-01T11:51:30.686Z</time>
</trkpt>
<trkpt lat="31.7715900" lon="34.9704600">
<ele>350.730011</ele>
<time>2020-09-01T11:51:30.686Z</time>
</trkpt>
<trkpt lat="31.7715200" lon="34.9704500">
<ele>348.500000</ele>
<time>2020-09-01T11:51:30.686Z</time>
</trkpt>
<trkpt lat="31.7714100" lon="34.9704600">
<ele>345.539978</ele>
<time>2020-09-01T11:51:30.686Z</time>
</trkpt>
<trkpt lat="31.7712200" lon="34.9706200">
<ele>341.250031</ele>
<time>2020-09-01T11:51:30.686Z</time>
</trkpt>
<trkpt lat="31.7711000" lon="34.9707200">
<ele>339.350006</ele>
<time>2020-09-01T11:51:30.686Z</time>
</trkpt>
<trkpt lat="31.7707300" lon="34.9710500">
<ele>343.320007</ele>
<time>2020-09-01T11:51:30.686Z</time>
</trkpt>
<trkpt lat="31.7706800" lon="34.9710800">
<ele>344.169983</ele>
<time>2020-09-01T11:51:30.686Z</time>
</trkpt>
<trkpt lat="31.7706000" lon="34.9710900">
<ele>344.460022</ele>
<time>2020-09-01T11:51:30.686Z</time>
</trkpt>
<trkpt lat="31.7705400" lon="34.9710600">
<ele>344.120026</ele>
<time>2020-09-01T11:51:30.686Z</time>
</trkpt>
<trkpt lat="31.7704700" lon="34.9710000">
<ele>344.599976</ele>
<time>2020-09-01T11:51:30.686Z</time>
</trkpt>
<trkpt lat="31.7704300" lon="34.9708400">
<ele>342.209991</ele>
<time>2020-09-01T11:51:30.686Z</time>
</trkpt>
<trkpt lat="31.7703600" lon="34.9705700">
<ele>341.880005</ele>
<time>2020-09-01T11:51:30.686Z</time>
</trkpt>
<trkpt lat="31.7703100" lon="34.9701200">
<ele>345.990021</ele>
<time>2020-09-01T11:51:30.687Z</time>
</trkpt>
<trkpt lat="31.7703000" lon="34.9695300">
<ele>346.519989</ele>
<time>2020-09-01T11:51:30.687Z</time>
</trkpt>
<trkpt lat="31.7703200" lon="34.9693900">
<ele>346.029999</ele>
<time>2020-09-01T11:51:30.687Z</time>
</trkpt>
<trkpt lat="31.7706100" lon="34.9683800">
<ele>336.600006</ele>
<time>2020-09-01T11:51:30.687Z</time>
</trkpt>
<trkpt lat="31.7709300" lon="34.9674800">
<ele>327.259979</ele>
<time>2020-09-01T11:51:30.687Z</time>
</trkpt>
<trkpt lat="31.7713000" lon="34.9662700">
<ele>328.179993</ele>
<time>2020-09-01T11:51:30.687Z</time>
</trkpt>
<trkpt lat="31.7713200" lon="34.9661300">
<ele>327.089996</ele>
<time>2020-09-01T11:51:30.687Z</time>
</trkpt>
<trkpt lat="31.7713200" lon="34.9657500">
<ele>325.629974</ele>
<time>2020-09-01T11:51:30.687Z</time>
</trkpt>
<trkpt lat="31.7713100" lon="34.9656100">
<ele>326.190002</ele>
<time>2020-09-01T11:51:30.687Z</time>
</trkpt>
<trkpt lat="31.7712500" lon="34.9654700">
<ele>328.150024</ele>
<time>2020-09-01T11:51:30.687Z</time>
</trkpt>
<trkpt lat="31.7712000" lon="34.9653800">
<ele>329.190002</ele>
<time>2020-09-01T11:51:30.687Z</time>
</trkpt>
<trkpt lat="31.7710600" lon="34.9652200">
<ele>329.319977</ele>
<time>2020-09-01T11:51:30.687Z</time>
</trkpt>
<trkpt lat="31.7708300" lon="34.9650800">
<ele>325.859985</ele>
<time>2020-09-01T11:51:30.687Z</time>
</trkpt>
<trkpt lat="31.7705000" lon="34.9649500">
<ele>317.989990</ele>
<time>2020-09-01T11:51:30.687Z</time>
</trkpt>
<trkpt lat="31.7703400" lon="34.9648900">
<ele>316.100006</ele>
<time>2020-09-01T11:51:30.687Z</time>
</trkpt>
<trkpt lat="31.7700200" lon="34.9647200">
<ele>310.079987</ele>
<time>2020-09-01T11:51:30.687Z</time>
</trkpt>
<trkpt lat="31.7699600" lon="34.9646800">
<ele>309.819977</ele>
<time>2020-09-01T11:51:30.687Z</time>
</trkpt>
<trkpt lat="31.7699200" lon="34.9646500">
<ele>309.529999</ele>
<time>2020-09-01T11:51:30.687Z</time>
</trkpt>
<trkpt lat="31.7698700" lon="34.9646000">
<ele>309.089996</ele>
<time>2020-09-01T11:51:30.687Z</time>
</trkpt>
<trkpt lat="31.7698400" lon="34.9645400">
<ele>308.750000</ele>
<time>2020-09-01T11:51:30.687Z</time>
</trkpt>
<trkpt lat="31.7698200" lon="34.9644300">
<ele>308.420013</ele>
<time>2020-09-01T11:51:30.687Z</time>
</trkpt>
<trkpt lat="31.7698200" lon="34.9643500">
<ele>308.490021</ele>
<time>2020-09-01T11:51:30.687Z</time>
</trkpt>
<trkpt lat="31.7698300" lon="34.9642300">
<ele>308.600006</ele>
<time>2020-09-01T11:51:30.687Z</time>
</trkpt>
<trkpt lat="31.7698900" lon="34.9641200">
<ele>308.200012</ele>
<time>2020-09-01T11:51:30.687Z</time>
</trkpt>
<trkpt lat="31.7699300" lon="34.9640500">
<ele>307.929993</ele>
<time>2020-09-01T11:51:30.687Z</time>
</trkpt>
<trkpt lat="31.7700000" lon="34.9639900">
<ele>308.000000</ele>
<time>2020-09-01T11:51:30.687Z</time>
</trkpt>
<trkpt lat="31.7700100" lon="34.9639700">
<ele>307.929993</ele>
<time>2020-09-01T11:51:30.687Z</time>
</trkpt>
<trkpt lat="31.7707900" lon="34.9635100">
<ele>315.730011</ele>
<time>2020-09-01T11:51:30.687Z</time>
</trkpt>
<trkpt lat="31.7719500" lon="34.9629100">
<ele>327.559998</ele>
<time>2020-09-01T11:51:30.687Z</time>
</trkpt>
<trkpt lat="31.7719800" lon="34.9628500">
<ele>327.829987</ele>
<time>2020-09-01T11:51:30.687Z</time>
</trkpt>
<trkpt lat="31.7720400" lon="34.9627900">
<ele>328.730011</ele>
<time>2020-09-01T11:51:30.687Z</time>
</trkpt>
<trkpt lat="31.7720900" lon="34.9626400">
<ele>329.829987</ele>
<time>2020-09-01T11:51:30.687Z</time>
</trkpt>
<trkpt lat="31.7720700" lon="34.9625200">
<ele>329.860016</ele>
<time>2020-09-01T11:51:30.687Z</time>
</trkpt>
<trkpt lat="31.7720400" lon="34.9623800">
<ele>329.529999</ele>
<time>2020-09-01T11:51:30.687Z</time>
</trkpt>
<trkpt lat="31.7720400" lon="34.9623800">
<ele>329.529999</ele>
<time>2020-09-01T11:51:30.687Z</time>
</trkpt>
<trkpt lat="31.7718800" lon="34.9617900">
<ele>325.000000</ele>
<time>2020-09-01T11:51:30.687Z</time>
</trkpt>
<trkpt lat="31.7718300" lon="34.9619100">
<ele>327.169983</ele>
<time>2020-09-01T11:51:30.687Z</time>
</trkpt>
<trkpt lat="31.7718300" lon="34.9619100">
<ele>327.169983</ele>
<time>2020-09-01T11:51:30.687Z</time>
</trkpt>
<trkpt lat="31.7718300" lon="34.9619100">
<ele>327.169983</ele>
<time>2020-09-01T11:51:30.687Z</time>
</trkpt>
<trkpt lat="31.7718300" lon="34.9619100">
<ele>327.169983</ele>
<time>2020-09-01T11:51:30.688Z</time>
</trkpt>
<trkpt lat="31.7718800" lon="34.9617900">
<ele>325.000000</ele>
<time>2020-09-01T11:51:30.688Z</time>
</trkpt>
<trkpt lat="31.7718400" lon="34.9616700">
<ele>323.799988</ele>
<time>2020-09-01T11:51:30.688Z</time>
</trkpt>
<trkpt lat="31.7718100" lon="34.9616000">
<ele>322.540009</ele>
<time>2020-09-01T11:51:30.688Z</time>
</trkpt>
<trkpt lat="31.7717600" lon="34.9615200">
<ele>320.990021</ele>
<time>2020-09-01T11:51:30.688Z</time>
</trkpt>
<trkpt lat="31.7717100" lon="34.9614900">
<ele>320.429993</ele>
<time>2020-09-01T11:51:30.688Z</time>
</trkpt>
<trkpt lat="31.7714200" lon="34.9613800">
<ele>314.969971</ele>
<time>2020-09-01T11:51:30.688Z</time>
</trkpt>
<trkpt lat="31.7713000" lon="34.9613900">
<ele>313.110016</ele>
<time>2020-09-01T11:51:30.688Z</time>
</trkpt>
<trkpt lat="31.7710800" lon="34.9614500">
<ele>309.959991</ele>
<time>2020-09-01T11:51:30.688Z</time>
</trkpt>
<trkpt lat="31.7709900" lon="34.9615100">
<ele>309.679993</ele>
<time>2020-09-01T11:51:30.688Z</time>
</trkpt>
<trkpt lat="31.7709100" lon="34.9615900">
<ele>309.920013</ele>
<time>2020-09-01T11:51:30.688Z</time>
</trkpt>
<trkpt lat="31.7708200" lon="34.9617300">
<ele>311.010010</ele>
<time>2020-09-01T11:51:30.688Z</time>
</trkpt>
<trkpt lat="31.7706600" lon="34.9620700">
<ele>311.630005</ele>
<time>2020-09-01T11:51:30.688Z</time>
</trkpt>
<trkpt lat="31.7701700" lon="34.9628800">
<ele>302.139984</ele>
<time>2020-09-01T11:51:30.688Z</time>
</trkpt>
<trkpt lat="31.7700600" lon="34.9630300">
<ele>301.929993</ele>
<time>2020-09-01T11:51:30.688Z</time>
</trkpt>
<trkpt lat="31.7697200" lon="34.9634200">
<ele>299.230011</ele>
<time>2020-09-01T11:51:30.688Z</time>
</trkpt>
<trkpt lat="31.7695900" lon="34.9635000">
<ele>299.160004</ele>
<time>2020-09-01T11:51:30.688Z</time>
</trkpt>
<trkpt lat="31.7694900" lon="34.9635300">
<ele>298.570007</ele>
<time>2020-09-01T11:51:30.688Z</time>
</trkpt>
<trkpt lat="31.7694400" lon="34.9635300">
<ele>298.170013</ele>
<time>2020-09-01T11:51:30.688Z</time>
</trkpt>
<trkpt lat="31.7694000" lon="34.9635300">
<ele>298.559998</ele>
<time>2020-09-01T11:51:30.688Z</time>
</trkpt>
<trkpt lat="31.7694000" lon="34.9635300">
<ele>298.559998</ele>
<time>2020-09-01T11:51:30.688Z</time>
</trkpt>
<trkpt lat="31.7693200" lon="34.9635400">
<ele>299.459991</ele>
<time>2020-09-01T11:51:30.688Z</time>
</trkpt>
<trkpt lat="31.7691700" lon="34.9635000">
<ele>300.369995</ele>
<time>2020-09-01T11:51:30.688Z</time>
</trkpt>
<trkpt lat="31.7690500" lon="34.9634800">
<ele>299.910004</ele>
<time>2020-09-01T11:51:30.688Z</time>
</trkpt>
<trkpt lat="31.7687900" lon="34.9634400">
<ele>297.000000</ele>
<time>2020-09-01T11:51:30.688Z</time>
</trkpt>
<trkpt lat="31.7686800" lon="34.9635000">
<ele>295.790009</ele>
<time>2020-09-01T11:51:30.688Z</time>
</trkpt>
<trkpt lat="31.7685800" lon="34.9636100">
<ele>294.859985</ele>
<time>2020-09-01T11:51:30.688Z</time>
</trkpt>
<trkpt lat="31.7682000" lon="34.9642500">
<ele>286.750000</ele>
<time>2020-09-01T11:51:30.688Z</time>
</trkpt>
<trkpt lat="31.7681000" lon="34.9645000">
<ele>289.500000</ele>
<time>2020-09-01T11:51:30.688Z</time>
</trkpt>
<trkpt lat="31.7680900" lon="34.9645800">
<ele>290.679993</ele>
<time>2020-09-01T11:51:30.688Z</time>
</trkpt>
<trkpt lat="31.7681100" lon="34.9648000">
<ele>294.440002</ele>
<time>2020-09-01T11:51:30.688Z</time>
</trkpt>
<trkpt lat="31.7681500" lon="34.9649200">
<ele>296.450012</ele>
<time>2020-09-01T11:51:30.688Z</time>
</trkpt>
<trkpt lat="31.7683500" lon="34.9653100">
<ele>298.600006</ele>
<time>2020-09-01T11:51:30.688Z</time>
</trkpt>
<trkpt lat="31.7684400" lon="34.9654400">
<ele>297.519989</ele>
<time>2020-09-01T11:51:30.688Z</time>
</trkpt>
<trkpt lat="31.7687300" lon="34.9657800">
<ele>296.850006</ele>
<time>2020-09-01T11:51:30.688Z</time>
</trkpt>
<trkpt lat="31.7688000" lon="34.9659500">
<ele>297.960022</ele>
<time>2020-09-01T11:51:30.688Z</time>
</trkpt>
<trkpt lat="31.7688100" lon="34.9660400">
<ele>297.619995</ele>
<time>2020-09-01T11:51:30.688Z</time>
</trkpt>
<trkpt lat="31.7688000" lon="34.9664300">
<ele>295.329987</ele>
<time>2020-09-01T11:51:30.688Z</time>
</trkpt>
<trkpt lat="31.7688100" lon="34.9665500">
<ele>296.220001</ele>
<time>2020-09-01T11:51:30.688Z</time>
</trkpt>
<trkpt lat="31.7688300" lon="34.9666000">
<ele>297.510010</ele>
<time>2020-09-01T11:51:30.688Z</time>
</trkpt>
<trkpt lat="31.7688700" lon="34.9667200">
<ele>299.950012</ele>
<time>2020-09-01T11:51:30.688Z</time>
</trkpt>
<trkpt lat="31.7688700" lon="34.9667200">
<ele>299.950012</ele>
<time>2020-09-01T11:51:30.688Z</time>
</trkpt>
<trkpt lat="31.7688700" lon="34.9667200">
<ele>299.950012</ele>
<time>2020-09-01T11:51:30.688Z</time>
</trkpt>
<trkpt lat="31.7688700" lon="34.9667200">
<ele>299.950012</ele>
<time>2020-09-01T11:51:30.688Z</time>
</trkpt>
<trkpt lat="31.7689800" lon="34.9670600">
<ele>305.920013</ele>
<time>2020-09-01T11:51:30.688Z</time>
</trkpt>
<trkpt lat="31.7690200" lon="34.9671700">
<ele>308.160004</ele>
<time>2020-09-01T11:51:30.688Z</time>
</trkpt>
<trkpt lat="31.7690800" lon="34.9674300">
<ele>311.559998</ele>
<time>2020-09-01T11:51:30.689Z</time>
</trkpt>
<trkpt lat="31.7691300" lon="34.9679300">
<ele>317.320007</ele>
<time>2020-09-01T11:51:30.689Z</time>
</trkpt>
<trkpt lat="31.7691100" lon="34.9688400">
<ele>316.720032</ele>
<time>2020-09-01T11:51:30.689Z</time>
</trkpt>
<trkpt lat="31.7691300" lon="34.9694100">
<ele>315.550018</ele>
<time>2020-09-01T11:51:30.689Z</time>
</trkpt>
<trkpt lat="31.7691300" lon="34.9695200">
<ele>315.869995</ele>
<time>2020-09-01T11:51:30.689Z</time>
</trkpt>
<trkpt lat="31.7690900" lon="34.9697000">
<ele>315.720001</ele>
<time>2020-09-01T11:51:30.689Z</time>
</trkpt>
<trkpt lat="31.7690300" lon="34.9698400">
<ele>313.859985</ele>
<time>2020-09-01T11:51:30.689Z</time>
</trkpt>
<trkpt lat="31.7689800" lon="34.9699300">
<ele>311.859985</ele>
<time>2020-09-01T11:51:30.689Z</time>
</trkpt>
<trkpt lat="31.7686400" lon="34.9703600">
<ele>305.399994</ele>
<time>2020-09-01T11:51:30.689Z</time>
</trkpt>
<trkpt lat="31.7683500" lon="34.9707900">
<ele>303.390015</ele>
<time>2020-09-01T11:51:30.689Z</time>
</trkpt>
<trkpt lat="31.7682800" lon="34.9708700">
<ele>302.829987</ele>
<time>2020-09-01T11:51:30.689Z</time>
</trkpt>
<trkpt lat="31.7681100" lon="34.9710400">
<ele>300.570007</ele>
<time>2020-09-01T11:51:30.689Z</time>
</trkpt>
<trkpt lat="31.7679300" lon="34.9711800">
<ele>299.959991</ele>
<time>2020-09-01T11:51:30.689Z</time>
</trkpt>
<trkpt lat="31.7676600" lon="34.9713500">
<ele>304.369995</ele>
<time>2020-09-01T11:51:30.689Z</time>
</trkpt>
<trkpt lat="31.7675600" lon="34.9714400">
<ele>306.459991</ele>
<time>2020-09-01T11:51:30.689Z</time>
</trkpt>
<trkpt lat="31.7672000" lon="34.9717900">
<ele>305.539978</ele>
<time>2020-09-01T11:51:30.689Z</time>
</trkpt>
<trkpt lat="31.7671100" lon="34.9719000">
<ele>306.309998</ele>
<time>2020-09-01T11:51:30.689Z</time>
</trkpt>
<trkpt lat="31.7670500" lon="34.9719600">
<ele>305.669983</ele>
<time>2020-09-01T11:51:30.689Z</time>
</trkpt>
<trkpt lat="31.7670000" lon="34.9720500">
<ele>305.239990</ele>
<time>2020-09-01T11:51:30.689Z</time>
</trkpt>
<trkpt lat="31.7669100" lon="34.9723000">
<ele>304.440002</ele>
<time>2020-09-01T11:51:30.689Z</time>
</trkpt>
<trkpt lat="31.7668600" lon="34.9726900">
<ele>306.320007</ele>
<time>2020-09-01T11:51:30.689Z</time>
</trkpt>
<trkpt lat="31.7668600" lon="34.9728200">
<ele>307.420013</ele>
<time>2020-09-01T11:51:30.689Z</time>
</trkpt>
<trkpt lat="31.7668800" lon="34.9730200">
<ele>308.779999</ele>
<time>2020-09-01T11:51:30.689Z</time>
</trkpt>
<trkpt lat="31.7669500" lon="34.9733500">
<ele>309.309998</ele>
<time>2020-09-01T11:51:30.689Z</time>
</trkpt>
<trkpt lat="31.7670700" lon="34.9738300">
<ele>310.860016</ele>
<time>2020-09-01T11:51:30.689Z</time>
</trkpt>
<trkpt lat="31.7672900" lon="34.9743200">
<ele>313.240021</ele>
<time>2020-09-01T11:51:30.689Z</time>
</trkpt>
<trkpt lat="31.7674400" lon="34.9745800">
<ele>315.279999</ele>
<time>2020-09-01T11:51:30.689Z</time>
</trkpt>
<trkpt lat="31.7675000" lon="34.9746600">
<ele>317.000000</ele>
<time>2020-09-01T11:51:30.689Z</time>
</trkpt>
<trkpt lat="31.7677200" lon="34.9748500">
<ele>332.380005</ele>
<time>2020-09-01T11:51:30.689Z</time>
</trkpt>
<trkpt lat="31.7677200" lon="34.9748500">
<ele>332.380005</ele>
<time>2020-09-01T11:51:30.689Z</time>
</trkpt>
<trkpt lat="31.7677200" lon="34.9748500">
<ele>332.380005</ele>
<time>2020-09-01T11:51:30.689Z</time>
</trkpt>
<trkpt lat="31.7684300" lon="34.9754900">
<ele>331.660004</ele>
<time>2020-09-01T11:51:30.689Z</time>
</trkpt>
<trkpt lat="31.7687000" lon="34.9757200">
<ele>327.550018</ele>
<time>2020-09-01T11:51:30.689Z</time>
</trkpt>
<trkpt lat="31.7688200" lon="34.9758000">
<ele>326.919983</ele>
<time>2020-09-01T11:51:30.689Z</time>
</trkpt>
<trkpt lat="31.7690500" lon="34.9759200">
<ele>324.859985</ele>
<time>2020-09-01T11:51:30.689Z</time>
</trkpt>
<trkpt lat="31.7692600" lon="34.9760300">
<ele>321.029999</ele>
<time>2020-09-01T11:51:30.689Z</time>
</trkpt>
<trkpt lat="31.7693700" lon="34.9762500">
<ele>313.959991</ele>
<time>2020-09-01T11:51:30.689Z</time>
</trkpt>
<trkpt lat="31.7693500" lon="34.9767400">
<ele>312.059998</ele>
<time>2020-09-01T11:51:30.689Z</time>
</trkpt>
<trkpt lat="31.7693300" lon="34.9768100">
<ele>313.290009</ele>
<time>2020-09-01T11:51:30.689Z</time>
</trkpt>
<trkpt lat="31.7693800" lon="34.9770500">
<ele>319.959991</ele>
<time>2020-09-01T11:51:30.689Z</time>
</trkpt>
<trkpt lat="31.7694300" lon="34.9771800">
<ele>322.440002</ele>
<time>2020-09-01T11:51:30.689Z</time>
</trkpt>
<trkpt lat="31.7695500" lon="34.9774200">
<ele>325.759979</ele>
<time>2020-09-01T11:51:30.689Z</time>
</trkpt>
<trkpt lat="31.7696700" lon="34.9776000">
<ele>329.200012</ele>
<time>2020-09-01T11:51:30.689Z</time>
</trkpt>
<trkpt lat="31.7698100" lon="34.9777800">
<ele>335.000031</ele>
<time>2020-09-01T11:51:30.689Z</time>
</trkpt>
<trkpt lat="31.7700700" lon="34.9779500">
<ele>340.329987</ele>
<time>2020-09-01T11:51:30.689Z</time>
</trkpt>
<trkpt lat="31.7702200" lon="34.9781200">
<ele>337.820007</ele>
<time>2020-09-01T11:51:30.689Z</time>
</trkpt>
<trkpt lat="31.7703800" lon="34.9783000">
<ele>335.680023</ele>
<time>2020-09-01T11:51:30.689Z</time>
</trkpt>
<trkpt lat="31.7705300" lon="34.9784900">
<ele>329.720001</ele>
<time>2020-09-01T11:51:30.690Z</time>
</trkpt>
<trkpt lat="31.7705900" lon="34.9785800">
<ele>327.829987</ele>
<time>2020-09-01T11:51:30.690Z</time>
</trkpt>
<trkpt lat="31.7706600" lon="34.9786900">
<ele>327.790009</ele>
<time>2020-09-01T11:51:30.690Z</time>
</trkpt>
<trkpt lat="31.7708800" lon="34.9790300">
<ele>328.549988</ele>
<time>2020-09-01T11:51:30.690Z</time>
</trkpt>
<trkpt lat="31.7710700" lon="34.9794900">
<ele>327.460022</ele>
<time>2020-09-01T11:51:30.690Z</time>
</trkpt>
<trkpt lat="31.7711500" lon="34.9795600">
<ele>327.420013</ele>
<time>2020-09-01T11:51:30.690Z</time>
</trkpt>
<trkpt lat="31.7712900" lon="34.9796400">
<ele>327.599976</ele>
<time>2020-09-01T11:51:30.690Z</time>
</trkpt>
<trkpt lat="31.7713500" lon="34.9796400">
<ele>328.309998</ele>
<time>2020-09-01T11:51:30.690Z</time>
</trkpt>
<trkpt lat="31.7714200" lon="34.9796700">
<ele>328.620026</ele>
<time>2020-09-01T11:51:30.690Z</time>
</trkpt>
<trkpt lat="31.7718000" lon="34.9798100">
<ele>335.359985</ele>
<time>2020-09-01T11:51:30.690Z</time>
</trkpt>
<trkpt lat="31.7718800" lon="34.9799000">
<ele>337.399994</ele>
<time>2020-09-01T11:51:30.690Z</time>
</trkpt>
<trkpt lat="31.7718900" lon="34.9799800">
<ele>337.929993</ele>
<time>2020-09-01T11:51:30.690Z</time>
</trkpt>
<trkpt lat="31.7718600" lon="34.9800600">
<ele>338.230011</ele>
<time>2020-09-01T11:51:30.690Z</time>
</trkpt>
<trkpt lat="31.7718400" lon="34.9800800">
<ele>338.019989</ele>
<time>2020-09-01T11:51:30.690Z</time>
</trkpt>
<trkpt lat="31.7716200" lon="34.9802400">
<ele>331.839996</ele>
<time>2020-09-01T11:51:30.690Z</time>
</trkpt>
<trkpt lat="31.7715400" lon="34.9803300">
<ele>328.459991</ele>
<time>2020-09-01T11:51:30.690Z</time>
</trkpt>
<trkpt lat="31.7715100" lon="34.9804000">
<ele>327.489990</ele>
<time>2020-09-01T11:51:30.690Z</time>
</trkpt>
<trkpt lat="31.7714800" lon="34.9805200">
<ele>326.709991</ele>
<time>2020-09-01T11:51:30.690Z</time>
</trkpt>
<trkpt lat="31.7715000" lon="34.9807300">
<ele>329.510010</ele>
<time>2020-09-01T11:51:30.690Z</time>
</trkpt>
<trkpt lat="31.7715400" lon="34.9808000">
<ele>331.769989</ele>
<time>2020-09-01T11:51:30.690Z</time>
</trkpt>
<trkpt lat="31.7715600" lon="34.9808300">
<ele>332.760010</ele>
<time>2020-09-01T11:51:30.690Z</time>
</trkpt>
<trkpt lat="31.7715600" lon="34.9808300">
<ele>332.760010</ele>
<time>2020-09-01T11:51:30.690Z</time>
</trkpt>
<trkpt lat="31.7715600" lon="34.9808300">
<ele>332.760010</ele>
<time>2020-09-01T11:51:30.690Z</time>
</trkpt>
<trkpt lat="31.7715900" lon="34.9808500">
<ele>333.920013</ele>
<time>2020-09-01T11:51:30.690Z</time>
</trkpt>
<trkpt lat="31.7718300" lon="34.9809400">
<ele>344.939972</ele>
<time>2020-09-01T11:51:30.690Z</time>
</trkpt>
<trkpt lat="31.7719200" lon="34.9810100">
<ele>349.959991</ele>
<time>2020-09-01T11:51:30.690Z</time>
</trkpt>
<trkpt lat="31.7719800" lon="34.9811600">
<ele>352.880005</ele>
<time>2020-09-01T11:51:30.690Z</time>
</trkpt>
<trkpt lat="31.7720400" lon="34.9813600">
<ele>353.100006</ele>
<time>2020-09-01T11:51:30.690Z</time>
</trkpt>
<trkpt lat="31.7720900" lon="34.9818300">
<ele>345.980011</ele>
<time>2020-09-01T11:51:30.690Z</time>
</trkpt>
<trkpt lat="31.7721500" lon="34.9819300">
<ele>346.139984</ele>
<time>2020-09-01T11:51:30.690Z</time>
</trkpt>
<trkpt lat="31.7723800" lon="34.9822100">
<ele>354.410004</ele>
<time>2020-09-01T11:51:30.690Z</time>
</trkpt>
<trkpt lat="31.7727500" lon="34.9828800">
<ele>362.459991</ele>
<time>2020-09-01T11:51:30.690Z</time>
</trkpt>
<trkpt lat="31.7730500" lon="34.9834600">
<ele>360.779999</ele>
<time>2020-09-01T11:51:30.690Z</time>
</trkpt>
<trkpt lat="31.7733100" lon="34.9839600">
<ele>357.000000</ele>
<time>2020-09-01T11:51:30.690Z</time>
</trkpt>
<trkpt lat="31.7733900" lon="34.9838400">
<ele>356.620026</ele>
<time>2020-09-01T11:51:30.690Z</time>
</trkpt>
<trkpt lat="31.7735200" lon="34.9838700">
<ele>356.260010</ele>
<time>2020-09-01T11:51:30.690Z</time>
</trkpt>
<trkpt lat="31.7736400" lon="34.9838500">
<ele>355.489990</ele>
<time>2020-09-01T11:51:30.690Z</time>
</trkpt>
<trkpt lat="31.7739200" lon="34.9840000">
<ele>353.309998</ele>
<time>2020-09-01T11:51:30.690Z</time>
</trkpt>
<trkpt lat="31.7742400" lon="34.9839100">
<ele>346.619995</ele>
<time>2020-09-01T11:51:30.690Z</time>
</trkpt>
<trkpt lat="31.7745900" lon="34.9839100">
<ele>345.029999</ele>
<time>2020-09-01T11:51:30.690Z</time>
</trkpt>
<trkpt lat="31.7749200" lon="34.9839400">
<ele>346.029999</ele>
<time>2020-09-01T11:51:30.690Z</time>
</trkpt>
<trkpt lat="31.7751100" lon="34.9839200">
<ele>344.110016</ele>
<time>2020-09-01T11:51:30.690Z</time>
</trkpt>
<trkpt lat="31.7754500" lon="34.9839700">
<ele>335.399994</ele>
<time>2020-09-01T11:51:30.690Z</time>
</trkpt>
<trkpt lat="31.7757700" lon="34.9840400">
<ele>335.369995</ele>
<time>2020-09-01T11:51:30.690Z</time>
</trkpt>
<trkpt lat="31.7758400" lon="34.9840700">
<ele>335.660004</ele>
<time>2020-09-01T11:51:30.690Z</time>
</trkpt>
<trkpt lat="31.7759300" lon="34.9841300">
<ele>334.659973</ele>
<time>2020-09-01T11:51:30.690Z</time>
</trkpt>
<trkpt lat="31.7760100" lon="34.9842000">
<ele>333.739990</ele>
<time>2020-09-01T11:51:30.690Z</time>
</trkpt>
<trkpt lat="31.7760800" lon="34.9842600">
<ele>333.000000</ele>
<time>2020-09-01T11:51:30.690Z</time>
</trkpt>
<trkpt lat="31.7761900" lon="34.9843800">
<ele>331.879974</ele>
<time>2020-09-01T11:51:30.691Z</time>
</trkpt>
<trkpt lat="31.7762000" lon="34.9844100">
<ele>331.759979</ele>
<time>2020-09-01T11:51:30.691Z</time>
</trkpt>
<trkpt lat="31.7762000" lon="34.9844100">
<ele>331.759979</ele>
<time>2020-09-01T11:51:30.691Z</time>
</trkpt>
<trkpt lat="31.7762000" lon="34.9844100">
<ele>331.759979</ele>
<time>2020-09-01T11:51:30.691Z</time>
</trkpt>
<trkpt lat="31.7762500" lon="34.9844900">
<ele>332.160004</ele>
<time>2020-09-01T11:51:30.691Z</time>
</trkpt>
<trkpt lat="31.7763000" lon="34.9846200">
<ele>333.619995</ele>
<time>2020-09-01T11:51:30.691Z</time>
</trkpt>
<trkpt lat="31.7763700" lon="34.9850400">
<ele>335.489990</ele>
<time>2020-09-01T11:51:30.691Z</time>
</trkpt>
<trkpt lat="31.7765100" lon="34.9855100">
<ele>331.180023</ele>
<time>2020-09-01T11:51:30.691Z</time>
</trkpt>
<trkpt lat="31.7765900" lon="34.9859000">
<ele>329.380005</ele>
<time>2020-09-01T11:51:30.691Z</time>
</trkpt>
<trkpt lat="31.7766000" lon="34.9861100">
<ele>329.679993</ele>
<time>2020-09-01T11:51:30.691Z</time>
</trkpt>
<trkpt lat="31.7766400" lon="34.9862400">
<ele>327.320007</ele>
<time>2020-09-01T11:51:30.691Z</time>
</trkpt>
<trkpt lat="31.7767000" lon="34.9864100">
<ele>324.250000</ele>
<time>2020-09-01T11:51:30.691Z</time>
</trkpt>
<trkpt lat="31.7767200" lon="34.9866000">
<ele>324.709991</ele>
<time>2020-09-01T11:51:30.691Z</time>
</trkpt>
<trkpt lat="31.7769200" lon="34.9869400">
<ele>323.489990</ele>
<time>2020-09-01T11:51:30.691Z</time>
</trkpt>
<trkpt lat="31.7771300" lon="34.9872500">
<ele>323.529968</ele>
<time>2020-09-01T11:51:30.691Z</time>
</trkpt>
<trkpt lat="31.7775900" lon="34.9876700">
<ele>324.949982</ele>
<time>2020-09-01T11:51:30.691Z</time>
</trkpt>
<trkpt lat="31.7777200" lon="34.9877700">
<ele>328.790009</ele>
<time>2020-09-01T11:51:30.691Z</time>
</trkpt>
<trkpt lat="31.7780000" lon="34.9879400">
<ele>327.829987</ele>
<time>2020-09-01T11:51:30.691Z</time>
</trkpt>
<trkpt lat="31.7784400" lon="34.9881100">
<ele>328.289978</ele>
<time>2020-09-01T11:51:30.691Z</time>
</trkpt>
<trkpt lat="31.7785500" lon="34.9881900">
<ele>329.239990</ele>
<time>2020-09-01T11:51:30.691Z</time>
</trkpt>
<trkpt lat="31.7787200" lon="34.9883600">
<ele>329.029999</ele>
<time>2020-09-01T11:51:30.691Z</time>
</trkpt>
<trkpt lat="31.7787900" lon="34.9884500">
<ele>328.320007</ele>
<time>2020-09-01T11:51:30.691Z</time>
</trkpt>
<trkpt lat="31.7788300" lon="34.9885900">
<ele>329.869995</ele>
<time>2020-09-01T11:51:30.691Z</time>
</trkpt>
<trkpt lat="31.7788300" lon="34.9886100">
<ele>330.190002</ele>
<time>2020-09-01T11:51:30.691Z</time>
</trkpt>
<trkpt lat="31.7788300" lon="34.9886100">
<ele>330.190002</ele>
<time>2020-09-01T11:51:30.691Z</time>
</trkpt>
<trkpt lat="31.7788300" lon="34.9886100">
<ele>330.190002</ele>
<time>2020-09-01T11:51:30.691Z</time>
</trkpt>
<trkpt lat="31.7788200" lon="34.9886600">
<ele>330.599976</ele>
<time>2020-09-01T11:51:30.691Z</time>
</trkpt>
<trkpt lat="31.7785600" lon="34.9892000">
<ele>328.610016</ele>
<time>2020-09-01T11:51:30.691Z</time>
</trkpt>
<trkpt lat="31.7785200" lon="34.9893300">
<ele>327.420013</ele>
<time>2020-09-01T11:51:30.691Z</time>
</trkpt>
<trkpt lat="31.7785300" lon="34.9901400">
<ele>317.010010</ele>
<time>2020-09-01T11:51:30.691Z</time>
</trkpt>
<trkpt lat="31.7785400" lon="34.9903000">
<ele>315.619995</ele>
<time>2020-09-01T11:51:30.691Z</time>
</trkpt>
<trkpt lat="31.7785900" lon="34.9904200">
<ele>313.120026</ele>
<time>2020-09-01T11:51:30.691Z</time>
</trkpt>
<trkpt lat="31.7786400" lon="34.9905100">
<ele>310.709991</ele>
<time>2020-09-01T11:51:30.691Z</time>
</trkpt>
<trkpt lat="31.7787600" lon="34.9906200">
<ele>309.130005</ele>
<time>2020-09-01T11:51:30.691Z</time>
</trkpt>
<trkpt lat="31.7790900" lon="34.9907500">
<ele>306.649994</ele>
<time>2020-09-01T11:51:30.691Z</time>
</trkpt>
<trkpt lat="31.7801800" lon="34.9915700">
<ele>328.429993</ele>
<time>2020-09-01T11:51:30.691Z</time>
</trkpt>
<trkpt lat="31.7803100" lon="34.9916500">
<ele>330.559998</ele>
<time>2020-09-01T11:51:30.691Z</time>
</trkpt>
<trkpt lat="31.7804000" lon="34.9916800">
<ele>330.370026</ele>
<time>2020-09-01T11:51:30.691Z</time>
</trkpt>
<trkpt lat="31.7809300" lon="34.9917800">
<ele>329.239990</ele>
<time>2020-09-01T11:51:30.691Z</time>
</trkpt>
<trkpt lat="31.7816300" lon="34.9920200">
<ele>323.709991</ele>
<time>2020-09-01T11:51:30.691Z</time>
</trkpt>
<trkpt lat="31.7816800" lon="34.9920300">
<ele>323.959991</ele>
<time>2020-09-01T11:51:30.691Z</time>
</trkpt>
<trkpt lat="31.7817600" lon="34.9920300">
<ele>325.989990</ele>
<time>2020-09-01T11:51:30.691Z</time>
</trkpt>
<trkpt lat="31.7818100" lon="34.9920000">
<ele>327.220001</ele>
<time>2020-09-01T11:51:30.691Z</time>
</trkpt>
<trkpt lat="31.7819000" lon="34.9918900">
<ele>329.720001</ele>
<time>2020-09-01T11:51:30.691Z</time>
</trkpt>
<trkpt lat="31.7819300" lon="34.9917300">
<ele>330.580017</ele>
<time>2020-09-01T11:51:30.691Z</time>
</trkpt>
<trkpt lat="31.7819700" lon="34.9914100">
<ele>331.270020</ele>
<time>2020-09-01T11:51:30.691Z</time>
</trkpt>
<trkpt lat="31.7819700" lon="34.9914100">
<ele>331.270020</ele>
<time>2020-09-01T11:51:30.691Z</time>
</trkpt>
<trkpt lat="31.7819700" lon="34.9914100">
<ele>331.270020</ele>
<time>2020-09-01T11:51:30.692Z</time>
</trkpt>
<trkpt lat="31.7819900" lon="34.9912800">
<ele>330.379974</ele>
<time>2020-09-01T11:51:30.692Z</time>
</trkpt>
<trkpt lat="31.7820000" lon="34.9911300">
<ele>328.989990</ele>
<time>2020-09-01T11:51:30.692Z</time>
</trkpt>
<trkpt lat="31.7819800" lon="34.9907100">
<ele>325.369995</ele>
<time>2020-09-01T11:51:30.692Z</time>
</trkpt>
<trkpt lat="31.7819600" lon="34.9904600">
<ele>323.770020</ele>
<time>2020-09-01T11:51:30.692Z</time>
</trkpt>
<trkpt lat="31.7819300" lon="34.9902200">
<ele>322.429993</ele>
<time>2020-09-01T11:51:30.692Z</time>
</trkpt>
<trkpt lat="31.7819400" lon="34.9900600">
<ele>321.380005</ele>
<time>2020-09-01T11:51:30.692Z</time>
</trkpt>
<trkpt lat="31.7819600" lon="34.9899900">
<ele>321.100006</ele>
<time>2020-09-01T11:51:30.692Z</time>
</trkpt>
<trkpt lat="31.7820100" lon="34.9899400">
<ele>321.279999</ele>
<time>2020-09-01T11:51:30.692Z</time>
</trkpt>
<trkpt lat="31.7820800" lon="34.9899300">
<ele>321.959991</ele>
<time>2020-09-01T11:51:30.692Z</time>
</trkpt>
<trkpt lat="31.7822700" lon="34.9899900">
<ele>323.919983</ele>
<time>2020-09-01T11:51:30.692Z</time>
</trkpt>
<trkpt lat="31.7823400" lon="34.9900000">
<ele>323.999969</ele>
<time>2020-09-01T11:51:30.692Z</time>
</trkpt>
<trkpt lat="31.7826500" lon="34.9899200">
<ele>322.830017</ele>
<time>2020-09-01T11:51:30.692Z</time>
</trkpt>
<trkpt lat="31.7827800" lon="34.9898700">
<ele>322.920013</ele>
<time>2020-09-01T11:51:30.692Z</time>
</trkpt>
<trkpt lat="31.7828700" lon="34.9898800">
<ele>322.389984</ele>
<time>2020-09-01T11:51:30.692Z</time>
</trkpt>
<trkpt lat="31.7829800" lon="34.9899400">
<ele>321.550018</ele>
<time>2020-09-01T11:51:30.692Z</time>
</trkpt>
<trkpt lat="31.7830600" lon="34.9900600">
<ele>320.919983</ele>
<time>2020-09-01T11:51:30.692Z</time>
</trkpt>
<trkpt lat="31.7831200" lon="34.9902600">
<ele>320.060028</ele>
<time>2020-09-01T11:51:30.692Z</time>
</trkpt>
<trkpt lat="31.7832100" lon="34.9906500">
<ele>321.680023</ele>
<time>2020-09-01T11:51:30.692Z</time>
</trkpt>
<trkpt lat="31.7833000" lon="34.9909100">
<ele>324.190002</ele>
<time>2020-09-01T11:51:30.692Z</time>
</trkpt>
<trkpt lat="31.7833700" lon="34.9910600">
<ele>325.840027</ele>
<time>2020-09-01T11:51:30.692Z</time>
</trkpt>
<trkpt lat="31.7834900" lon="34.9912900">
<ele>326.399994</ele>
<time>2020-09-01T11:51:30.692Z</time>
</trkpt>
<trkpt lat="31.7836300" lon="34.9914800">
<ele>327.920013</ele>
<time>2020-09-01T11:51:30.692Z</time>
</trkpt>
<trkpt lat="31.7839100" lon="34.9917200">
<ele>329.720001</ele>
<time>2020-09-01T11:51:30.692Z</time>
</trkpt>
<trkpt lat="31.7839100" lon="34.9917200">
<ele>329.720001</ele>
<time>2020-09-01T11:51:30.692Z</time>
</trkpt>
<trkpt lat="31.7839100" lon="34.9917200">
<ele>329.720001</ele>
<time>2020-09-01T11:51:30.692Z</time>
</trkpt>
<trkpt lat="31.7839100" lon="34.9917200">
<ele>329.720001</ele>
<time>2020-09-01T11:51:30.692Z</time>
</trkpt>
<trkpt lat="31.7840000" lon="34.9917700">
<ele>330.389984</ele>
<time>2020-09-01T11:51:30.692Z</time>
</trkpt>
<trkpt lat="31.7842200" lon="34.9918600">
<ele>331.790009</ele>
<time>2020-09-01T11:51:30.692Z</time>
</trkpt>
<trkpt lat="31.7846100" lon="34.9919200">
<ele>328.700012</ele>
<time>2020-09-01T11:51:30.692Z</time>
</trkpt>
<trkpt lat="31.7849100" lon="34.9918400">
<ele>327.179993</ele>
<time>2020-09-01T11:51:30.692Z</time>
</trkpt>
<trkpt lat="31.7849700" lon="34.9918000">
<ele>327.320007</ele>
<time>2020-09-01T11:51:30.692Z</time>
</trkpt>
<trkpt lat="31.7850100" lon="34.9917500">
<ele>327.450012</ele>
<time>2020-09-01T11:51:30.692Z</time>
</trkpt>
<trkpt lat="31.7850500" lon="34.9916000">
<ele>327.590027</ele>
<time>2020-09-01T11:51:30.692Z</time>
</trkpt>
<trkpt lat="31.7850500" lon="34.9914400">
<ele>327.279999</ele>
<time>2020-09-01T11:51:30.692Z</time>
</trkpt>
<trkpt lat="31.7849600" lon="34.9911600">
<ele>327.089996</ele>
<time>2020-09-01T11:51:30.692Z</time>
</trkpt>
<trkpt lat="31.7849000" lon="34.9907900">
<ele>328.940002</ele>
<time>2020-09-01T11:51:30.692Z</time>
</trkpt>
<trkpt lat="31.7849400" lon="34.9905300">
<ele>326.489990</ele>
<time>2020-09-01T11:51:30.692Z</time>
</trkpt>
<trkpt lat="31.7850000" lon="34.9903600">
<ele>324.890015</ele>
<time>2020-09-01T11:51:30.692Z</time>
</trkpt>
<trkpt lat="31.7850900" lon="34.9902300">
<ele>323.220001</ele>
<time>2020-09-01T11:51:30.692Z</time>
</trkpt>
<trkpt lat="31.7851600" lon="34.9901500">
<ele>322.309998</ele>
<time>2020-09-01T11:51:30.692Z</time>
</trkpt>
<trkpt lat="31.7853300" lon="34.9900200">
<ele>321.130005</ele>
<time>2020-09-01T11:51:30.692Z</time>
</trkpt>
<trkpt lat="31.7854600" lon="34.9899600">
<ele>320.480011</ele>
<time>2020-09-01T11:51:30.692Z</time>
</trkpt>
<trkpt lat="31.7855600" lon="34.9899600">
<ele>320.180023</ele>
<time>2020-09-01T11:51:30.692Z</time>
</trkpt>
<trkpt lat="31.7856200" lon="34.9899900">
<ele>319.240021</ele>
<time>2020-09-01T11:51:30.692Z</time>
</trkpt>
<trkpt lat="31.7858600" lon="34.9901600">
<ele>316.580017</ele>
<time>2020-09-01T11:51:30.692Z</time>
</trkpt>
<trkpt lat="31.7859200" lon="34.9901800">
<ele>317.440002</ele>
<time>2020-09-01T11:51:30.692Z</time>
</trkpt>
<trkpt lat="31.7859900" lon="34.9901600">
<ele>317.910004</ele>
<time>2020-09-01T11:51:30.693Z</time>
</trkpt>
<trkpt lat="31.7861400" lon="34.9900500">
<ele>318.970001</ele>
<time>2020-09-01T11:51:30.693Z</time>
</trkpt>
<trkpt lat="31.7863400" lon="34.9896800">
<ele>323.119995</ele>
<time>2020-09-01T11:51:30.693Z</time>
</trkpt>
<trkpt lat="31.7863700" lon="34.9895400">
<ele>323.659973</ele>
<time>2020-09-01T11:51:30.693Z</time>
</trkpt>
<trkpt lat="31.7863900" lon="34.9890600">
<ele>320.239990</ele>
<time>2020-09-01T11:51:30.693Z</time>
</trkpt>
<trkpt lat="31.7864700" lon="34.9884200">
<ele>318.579987</ele>
<time>2020-09-01T11:51:30.693Z</time>
</trkpt>
<trkpt lat="31.7864700" lon="34.9882500">
<ele>318.550018</ele>
<time>2020-09-01T11:51:30.693Z</time>
</trkpt>
<trkpt lat="31.7864200" lon="34.9876300">
<ele>320.690002</ele>
<time>2020-09-01T11:51:30.693Z</time>
</trkpt>
<trkpt lat="31.7864200" lon="34.9876100">
<ele>320.980011</ele>
<time>2020-09-01T11:51:30.693Z</time>
</trkpt>
<trkpt lat="31.7864200" lon="34.9876100">
<ele>320.980011</ele>
<time>2020-09-01T11:51:30.693Z</time>
</trkpt>
<trkpt lat="31.7864200" lon="34.9876100">
<ele>320.980011</ele>
<time>2020-09-01T11:51:30.693Z</time>
</trkpt>
<trkpt lat="31.7864200" lon="34.9871300">
<ele>327.330017</ele>
<time>2020-09-01T11:51:30.693Z</time>
</trkpt>
<trkpt lat="31.7864500" lon="34.9866500">
<ele>329.660004</ele>
<time>2020-09-01T11:51:30.693Z</time>
</trkpt>
<trkpt lat="31.7864800" lon="34.9866000">
<ele>329.190002</ele>
<time>2020-09-01T11:51:30.693Z</time>
</trkpt>
<trkpt lat="31.7865200" lon="34.9865600">
<ele>328.759979</ele>
<time>2020-09-01T11:51:30.693Z</time>
</trkpt>
<trkpt lat="31.7865800" lon="34.9865500">
<ele>328.470001</ele>
<time>2020-09-01T11:51:30.693Z</time>
</trkpt>
<trkpt lat="31.7867200" lon="34.9865800">
<ele>328.769989</ele>
<time>2020-09-01T11:51:30.693Z</time>
</trkpt>
<trkpt lat="31.7870200" lon="34.9867100">
<ele>332.200012</ele>
<time>2020-09-01T11:51:30.693Z</time>
</trkpt>
<trkpt lat="31.7871900" lon="34.9868000">
<ele>332.560028</ele>
<time>2020-09-01T11:51:30.693Z</time>
</trkpt>
<trkpt lat="31.7872800" lon="34.9868800">
<ele>331.799988</ele>
<time>2020-09-01T11:51:30.693Z</time>
</trkpt>
<trkpt lat="31.7874000" lon="34.9871100">
<ele>329.520020</ele>
<time>2020-09-01T11:51:30.693Z</time>
</trkpt>
<trkpt lat="31.7874600" lon="34.9873000">
<ele>327.450012</ele>
<time>2020-09-01T11:51:30.693Z</time>
</trkpt>
<trkpt lat="31.7874700" lon="34.9873500">
<ele>326.839996</ele>
<time>2020-09-01T11:51:30.693Z</time>
</trkpt>
<trkpt lat="31.7874700" lon="34.9873500">
<ele>326.839996</ele>
<time>2020-09-01T11:51:30.693Z</time>
</trkpt>
<trkpt lat="31.7874800" lon="34.9874100">
<ele>326.149994</ele>
<time>2020-09-01T11:51:30.693Z</time>
</trkpt>
<trkpt lat="31.7874600" lon="34.9876300">
<ele>325.070007</ele>
<time>2020-09-01T11:51:30.693Z</time>
</trkpt>
<trkpt lat="31.7873400" lon="34.9880000">
<ele>324.630005</ele>
<time>2020-09-01T11:51:30.693Z</time>
</trkpt>
<trkpt lat="31.7873000" lon="34.9881700">
<ele>325.159973</ele>
<time>2020-09-01T11:51:30.693Z</time>
</trkpt>
<trkpt lat="31.7873000" lon="34.9882900">
<ele>325.280029</ele>
<time>2020-09-01T11:51:30.693Z</time>
</trkpt>
<trkpt lat="31.7873200" lon="34.9883900">
<ele>325.380005</ele>
<time>2020-09-01T11:51:30.693Z</time>
</trkpt>
<trkpt lat="31.7874300" lon="34.9886700">
<ele>326.610016</ele>
<time>2020-09-01T11:51:30.693Z</time>
</trkpt>
<trkpt lat="31.7875900" lon="34.9896200">
<ele>324.760010</ele>
<time>2020-09-01T11:51:30.693Z</time>
</trkpt>
<trkpt lat="31.7876100" lon="34.9897600">
<ele>325.270020</ele>
<time>2020-09-01T11:51:30.693Z</time>
</trkpt>
<trkpt lat="31.7876000" lon="34.9898800">
<ele>326.140015</ele>
<time>2020-09-01T11:51:30.693Z</time>
</trkpt>
<trkpt lat="31.7875600" lon="34.9900100">
<ele>326.999969</ele>
<time>2020-09-01T11:51:30.693Z</time>
</trkpt>
<trkpt lat="31.7873400" lon="34.9903500">
<ele>326.630005</ele>
<time>2020-09-01T11:51:30.693Z</time>
</trkpt>
<trkpt lat="31.7872300" lon="34.9906800">
<ele>325.079987</ele>
<time>2020-09-01T11:51:30.693Z</time>
</trkpt>
<trkpt lat="31.7872000" lon="34.9908600">
<ele>324.059998</ele>
<time>2020-09-01T11:51:30.693Z</time>
</trkpt>
<trkpt lat="31.7872200" lon="34.9912500">
<ele>323.019989</ele>
<time>2020-09-01T11:51:30.693Z</time>
</trkpt>
<trkpt lat="31.7872100" lon="34.9914700">
<ele>323.659973</ele>
<time>2020-09-01T11:51:30.693Z</time>
</trkpt>
<trkpt lat="31.7872000" lon="34.9916900">
<ele>325.250000</ele>
<time>2020-09-01T11:51:30.693Z</time>
</trkpt>
<trkpt lat="31.7872100" lon="34.9918700">
<ele>326.510010</ele>
<time>2020-09-01T11:51:30.693Z</time>
</trkpt>
<trkpt lat="31.7872100" lon="34.9919200">
<ele>326.869995</ele>
<time>2020-09-01T11:51:30.694Z</time>
</trkpt>
<trkpt lat="31.7871800" lon="34.9922000">
<ele>326.369995</ele>
<time>2020-09-01T11:51:30.694Z</time>
</trkpt>
<trkpt lat="31.7872400" lon="34.9923900">
<ele>324.660004</ele>
<time>2020-09-01T11:51:30.694Z</time>
</trkpt>
<trkpt lat="31.7873400" lon="34.9926600">
<ele>322.000000</ele>
<time>2020-09-01T11:51:30.694Z</time>
</trkpt>
<trkpt lat="31.7873600" lon="34.9927700">
<ele>321.059998</ele>
<time>2020-09-01T11:51:30.694Z</time>
</trkpt>
<trkpt lat="31.7873600" lon="34.9927700">
<ele>321.059998</ele>
<time>2020-09-01T11:51:30.694Z</time>
</trkpt>
<trkpt lat="31.7873600" lon="34.9927700">
<ele>321.059998</ele>
<time>2020-09-01T11:51:30.694Z</time>
</trkpt>
<trkpt lat="31.7873600" lon="34.9927700">
<ele>321.059998</ele>
<time>2020-09-01T11:51:30.694Z</time>
</trkpt>
<trkpt lat="31.7873700" lon="34.9928400">
<ele>320.489990</ele>
<time>2020-09-01T11:51:30.694Z</time>
</trkpt>
<trkpt lat="31.7873700" lon="34.9929600">
<ele>319.619995</ele>
<time>2020-09-01T11:51:30.694Z</time>
</trkpt>
<trkpt lat="31.7873500" lon="34.9930800">
<ele>318.900024</ele>
<time>2020-09-01T11:51:30.694Z</time>
</trkpt>
<trkpt lat="31.7873100" lon="34.9931800">
<ele>318.470001</ele>
<time>2020-09-01T11:51:30.694Z</time>
</trkpt>
<trkpt lat="31.7872300" lon="34.9932900">
<ele>318.260010</ele>
<time>2020-09-01T11:51:30.694Z</time>
</trkpt>
<trkpt lat="31.7871800" lon="34.9933700">
<ele>318.690002</ele>
<time>2020-09-01T11:51:30.694Z</time>
</trkpt>
<trkpt lat="31.7871700" lon="34.9934200">
<ele>318.799988</ele>
<time>2020-09-01T11:51:30.694Z</time>
</trkpt>
<trkpt lat="31.7871800" lon="34.9934700">
<ele>318.489990</ele>
<time>2020-09-01T11:51:30.694Z</time>
</trkpt>
<trkpt lat="31.7872500" lon="34.9938500">
<ele>316.800018</ele>
<time>2020-09-01T11:51:30.694Z</time>
</trkpt>
<trkpt lat="31.7872000" lon="34.9942400">
<ele>318.779999</ele>
<time>2020-09-01T11:51:30.694Z</time>
</trkpt>
<trkpt lat="31.7871600" lon="34.9948200">
<ele>321.699982</ele>
<time>2020-09-01T11:51:30.694Z</time>
</trkpt>
<trkpt lat="31.7871300" lon="34.9949400">
<ele>321.410004</ele>
<time>2020-09-01T11:51:30.694Z</time>
</trkpt>
<trkpt lat="31.7870500" lon="34.9950600">
<ele>320.459991</ele>
<time>2020-09-01T11:51:30.694Z</time>
</trkpt>
<trkpt lat="31.7869600" lon="34.9951300">
<ele>319.619995</ele>
<time>2020-09-01T11:51:30.694Z</time>
</trkpt>
<trkpt lat="31.7868700" lon="34.9951700">
<ele>319.339996</ele>
<time>2020-09-01T11:51:30.694Z</time>
</trkpt>
<trkpt lat="31.7867400" lon="34.9952800">
<ele>319.710022</ele>
<time>2020-09-01T11:51:30.694Z</time>
</trkpt>
<trkpt lat="31.7865100" lon="34.9955200">
<ele>318.019989</ele>
<time>2020-09-01T11:51:30.694Z</time>
</trkpt>
<trkpt lat="31.7862900" lon="34.9957800">
<ele>319.440002</ele>
<time>2020-09-01T11:51:30.694Z</time>
</trkpt>
<trkpt lat="31.7862000" lon="34.9959100">
<ele>319.130005</ele>
<time>2020-09-01T11:51:30.694Z</time>
</trkpt>
<trkpt lat="31.7861300" lon="34.9960300">
<ele>318.520020</ele>
<time>2020-09-01T11:51:30.694Z</time>
</trkpt>
<trkpt lat="31.7860900" lon="34.9961400">
<ele>318.510010</ele>
<time>2020-09-01T11:51:30.694Z</time>
</trkpt>
<trkpt lat="31.7860800" lon="34.9962600">
<ele>318.420013</ele>
<time>2020-09-01T11:51:30.694Z</time>
</trkpt>
<trkpt lat="31.7860800" lon="34.9963100">
<ele>318.260010</ele>
<time>2020-09-01T11:51:30.694Z</time>
</trkpt>
<trkpt lat="31.7864800" lon="34.9963000">
<ele>315.890015</ele>
<time>2020-09-01T11:51:30.694Z</time>
</trkpt>
<trkpt lat="31.7867600" lon="34.9961700">
<ele>315.260010</ele>
<time>2020-09-01T11:51:30.694Z</time>
</trkpt>
<trkpt lat="31.7868400" lon="34.9961700">
<ele>315.489990</ele>
<time>2020-09-01T11:51:30.694Z</time>
</trkpt>
<trkpt lat="31.7869000" lon="34.9962000">
<ele>315.569977</ele>
<time>2020-09-01T11:51:30.694Z</time>
</trkpt>
<trkpt lat="31.7870300" lon="34.9962600">
<ele>315.180023</ele>
<time>2020-09-01T11:51:30.694Z</time>
</trkpt>
<trkpt lat="31.7871700" lon="34.9962900">
<ele>314.779999</ele>
<time>2020-09-01T11:51:30.694Z</time>
</trkpt>
<trkpt lat="31.7871600" lon="34.9968100">
<ele>309.079987</ele>
<time>2020-09-01T11:51:30.694Z</time>
</trkpt>
<trkpt lat="31.7872100" lon="34.9973600">
<ele>309.929993</ele>
<time>2020-09-01T11:51:30.694Z</time>
</trkpt>
<trkpt lat="31.7871800" lon="34.9976700">
<ele>309.079987</ele>
<time>2020-09-01T11:51:30.694Z</time>
</trkpt>
<trkpt lat="31.7871100" lon="34.9978700">
<ele>307.589996</ele>
<time>2020-09-01T11:51:30.694Z</time>
</trkpt>
<trkpt lat="31.7871200" lon="34.9980400">
<ele>306.630005</ele>
<time>2020-09-01T11:51:30.694Z</time>
</trkpt>
<trkpt lat="31.7872700" lon="34.9982400">
<ele>307.480011</ele>
<time>2020-09-01T11:51:30.694Z</time>
</trkpt>
<trkpt lat="31.7873700" lon="34.9984300">
<ele>307.429993</ele>
<time>2020-09-01T11:51:30.694Z</time>
</trkpt>
<trkpt lat="31.7874500" lon="34.9986400">
<ele>307.220001</ele>
<time>2020-09-01T11:51:30.695Z</time>
</trkpt>
<trkpt lat="31.7875400" lon="34.9989400">
<ele>308.980011</ele>
<time>2020-09-01T11:51:30.695Z</time>
</trkpt>
<trkpt lat="31.7875400" lon="34.9989400">
<ele>308.980011</ele>
<time>2020-09-01T11:51:30.695Z</time>
</trkpt>
<trkpt lat="31.7875400" lon="34.9989400">
<ele>308.980011</ele>
<time>2020-09-01T11:51:30.695Z</time>
</trkpt>
<trkpt lat="31.7875700" lon="34.9990400">
<ele>309.799988</ele>
<time>2020-09-01T11:51:30.695Z</time>
</trkpt>
<trkpt lat="31.7876500" lon="34.9991800">
<ele>310.569977</ele>
<time>2020-09-01T11:51:30.695Z</time>
</trkpt>
<trkpt lat="31.7877300" lon="34.9992700">
<ele>311.380005</ele>
<time>2020-09-01T11:51:30.695Z</time>
</trkpt>
<trkpt lat="31.7878400" lon="34.9993400">
<ele>313.869995</ele>
<time>2020-09-01T11:51:30.695Z</time>
</trkpt>
<trkpt lat="31.7881500" lon="34.9994900">
<ele>317.620026</ele>
<time>2020-09-01T11:51:30.695Z</time>
</trkpt>
<trkpt lat="31.7885300" lon="34.9997900">
<ele>313.540009</ele>
<time>2020-09-01T11:51:30.695Z</time>
</trkpt>
<trkpt lat="31.7888100" lon="35.0000500">
<ele>312.300018</ele>
<time>2020-09-01T11:51:30.695Z</time>
</trkpt>
<trkpt lat="31.7889500" lon="35.0001100">
<ele>311.570007</ele>
<time>2020-09-01T11:51:30.695Z</time>
</trkpt>
<trkpt lat="31.7890500" lon="35.0002200">
<ele>307.989990</ele>
<time>2020-09-01T11:51:30.695Z</time>
</trkpt>
<trkpt lat="31.7894100" lon="35.0000100">
<ele>315.019989</ele>
<time>2020-09-01T11:51:30.695Z</time>
</trkpt>
<trkpt lat="31.7894900" lon="35.0000300">
<ele>314.969971</ele>
<time>2020-09-01T11:51:30.695Z</time>
</trkpt>
<trkpt lat="31.7896200" lon="35.0000700">
<ele>315.290009</ele>
<time>2020-09-01T11:51:30.695Z</time>
</trkpt>
<trkpt lat="31.7898200" lon="35.0001700">
<ele>315.659973</ele>
<time>2020-09-01T11:51:30.695Z</time>
</trkpt>
<trkpt lat="31.7901200" lon="35.0003400">
<ele>316.489990</ele>
<time>2020-09-01T11:51:30.695Z</time>
</trkpt>
<trkpt lat="31.7902500" lon="35.0004100">
<ele>318.070007</ele>
<time>2020-09-01T11:51:30.695Z</time>
</trkpt>
<trkpt lat="31.7903800" lon="35.0004800">
<ele>320.290009</ele>
<time>2020-09-01T11:51:30.695Z</time>
</trkpt>
<trkpt lat="31.7905200" lon="35.0006100">
<ele>322.519989</ele>
<time>2020-09-01T11:51:30.695Z</time>
</trkpt>
<trkpt lat="31.7905500" lon="35.0006600">
<ele>322.729980</ele>
<time>2020-09-01T11:51:30.695Z</time>
</trkpt>
<trkpt lat="31.7905900" lon="35.0007300">
<ele>323.359985</ele>
<time>2020-09-01T11:51:30.695Z</time>
</trkpt>
<trkpt lat="31.7906100" lon="35.0008300">
<ele>323.000000</ele>
<time>2020-09-01T11:51:30.695Z</time>
</trkpt>
<trkpt lat="31.7905900" lon="35.0009300">
<ele>320.850006</ele>
<time>2020-09-01T11:51:30.695Z</time>
</trkpt>
<trkpt lat="31.7905900" lon="35.0009300">
<ele>320.850006</ele>
<time>2020-09-01T11:51:30.695Z</time>
</trkpt>
<trkpt lat="31.7905900" lon="35.0009300">
<ele>320.850006</ele>
<time>2020-09-01T11:51:30.695Z</time>
</trkpt>
<trkpt lat="31.7905700" lon="35.0010400">
<ele>318.540009</ele>
<time>2020-09-01T11:51:30.695Z</time>
</trkpt>
<trkpt lat="31.7905400" lon="35.0011300">
<ele>316.540009</ele>
<time>2020-09-01T11:51:30.695Z</time>
</trkpt>
<trkpt lat="31.7904300" lon="35.0013100">
<ele>313.500000</ele>
<time>2020-09-01T11:51:30.695Z</time>
</trkpt>
<trkpt lat="31.7903600" lon="35.0013700">
<ele>312.220001</ele>
<time>2020-09-01T11:51:30.695Z</time>
</trkpt>
<trkpt lat="31.7902300" lon="35.0014400">
<ele>311.660004</ele>
<time>2020-09-01T11:51:30.695Z</time>
</trkpt>
<trkpt lat="31.7900900" lon="35.0014600">
<ele>312.100006</ele>
<time>2020-09-01T11:51:30.695Z</time>
</trkpt>
<trkpt lat="31.7899100" lon="35.0014600">
<ele>310.800018</ele>
<time>2020-09-01T11:51:30.695Z</time>
</trkpt>
<trkpt lat="31.7898000" lon="35.0014900">
<ele>309.290009</ele>
<time>2020-09-01T11:51:30.695Z</time>
</trkpt>
<trkpt lat="31.7896900" lon="35.0015500">
<ele>308.410004</ele>
<time>2020-09-01T11:51:30.695Z</time>
</trkpt>
<trkpt lat="31.7895600" lon="35.0017000">
<ele>309.380005</ele>
<time>2020-09-01T11:51:30.695Z</time>
</trkpt>
<trkpt lat="31.7894100" lon="35.0019900">
<ele>313.040009</ele>
<time>2020-09-01T11:51:30.695Z</time>
</trkpt>
<trkpt lat="31.7891700" lon="35.0025100">
<ele>316.120026</ele>
<time>2020-09-01T11:51:30.695Z</time>
</trkpt>
<trkpt lat="31.7890900" lon="35.0027700">
<ele>317.260010</ele>
<time>2020-09-01T11:51:30.695Z</time>
</trkpt>
<trkpt lat="31.7890500" lon="35.0029900">
<ele>318.770020</ele>
<time>2020-09-01T11:51:30.695Z</time>
</trkpt>
<trkpt lat="31.7889900" lon="35.0031700">
<ele>319.719971</ele>
<time>2020-09-01T11:51:30.695Z</time>
</trkpt>
<trkpt lat="31.7889300" lon="35.0032500">
<ele>319.200012</ele>
<time>2020-09-01T11:51:30.695Z</time>
</trkpt>
<trkpt lat="31.7886900" lon="35.0034700">
<ele>318.090027</ele>
<time>2020-09-01T11:51:30.695Z</time>
</trkpt>
<trkpt lat="31.7886300" lon="35.0035400">
<ele>318.699982</ele>
<time>2020-09-01T11:51:30.695Z</time>
</trkpt>
<trkpt lat="31.7885600" lon="35.0036700">
<ele>320.679993</ele>
<time>2020-09-01T11:51:30.695Z</time>
</trkpt>
<trkpt lat="31.7883800" lon="35.0041800">
<ele>326.619995</ele>
<time>2020-09-01T11:51:30.696Z</time>
</trkpt>
<trkpt lat="31.7882000" lon="35.0045700">
<ele>328.610016</ele>
<time>2020-09-01T11:51:30.696Z</time>
</trkpt>
<trkpt lat="31.7881700" lon="35.0046700">
<ele>328.109985</ele>
<time>2020-09-01T11:51:30.696Z</time>
</trkpt>
<trkpt lat="31.7879100" lon="35.0052600">
<ele>328.629974</ele>
<time>2020-09-01T11:51:30.696Z</time>
</trkpt>
<trkpt lat="31.7879100" lon="35.0052600">
<ele>328.629974</ele>
<time>2020-09-01T11:51:30.696Z</time>
</trkpt>
<trkpt lat="31.7878200" lon="35.0054600">
<ele>328.220001</ele>
<time>2020-09-01T11:51:30.696Z</time>
</trkpt>
<trkpt lat="31.7886800" lon="35.0042700">
<ele>330.389984</ele>
<time>2020-09-01T11:51:30.696Z</time>
</trkpt>
<trkpt lat="31.7888000" lon="35.0041500">
<ele>328.600006</ele>
<time>2020-09-01T11:51:30.696Z</time>
</trkpt>
<trkpt lat="31.7889000" lon="35.0040800">
<ele>328.679993</ele>
<time>2020-09-01T11:51:30.696Z</time>
</trkpt>
<trkpt lat="31.7891400" lon="35.0040200">
<ele>327.469971</ele>
<time>2020-09-01T11:51:30.696Z</time>
</trkpt>
<trkpt lat="31.7894100" lon="35.0040100">
<ele>332.819977</ele>
<time>2020-09-01T11:51:30.696Z</time>
</trkpt>
<trkpt lat="31.7900700" lon="35.0040700">
<ele>348.040009</ele>
<time>2020-09-01T11:51:30.696Z</time>
</trkpt>
<trkpt lat="31.7902300" lon="35.0040900">
<ele>350.849976</ele>
<time>2020-09-01T11:51:30.696Z</time>
</trkpt>
<trkpt lat="31.7913700" lon="35.0042900">
<ele>360.239990</ele>
<time>2020-09-01T11:51:30.696Z</time>
</trkpt>
<trkpt lat="31.7913700" lon="35.0042900">
<ele>360.239990</ele>
<time>2020-09-01T11:51:30.696Z</time>
</trkpt>
<trkpt lat="31.7913700" lon="35.0042900">
<ele>360.239990</ele>
<time>2020-09-01T11:51:30.696Z</time>
</trkpt>
<trkpt lat="31.7913700" lon="35.0042900">
<ele>360.239990</ele>
<time>2020-09-01T11:51:30.696Z</time>
</trkpt>
<trkpt lat="31.7917900" lon="35.0043600">
<ele>361.169983</ele>
<time>2020-09-01T11:51:30.696Z</time>
</trkpt>
<trkpt lat="31.7918900" lon="35.0043700">
<ele>361.049988</ele>
<time>2020-09-01T11:51:30.696Z</time>
</trkpt>
<trkpt lat="31.7927900" lon="35.0044200">
<ele>370.079987</ele>
<time>2020-09-01T11:51:30.696Z</time>
</trkpt>
<trkpt lat="31.7929400" lon="35.0044600">
<ele>372.540009</ele>
<time>2020-09-01T11:51:30.696Z</time>
</trkpt>
<trkpt lat="31.7930900" lon="35.0045500">
<ele>374.899994</ele>
<time>2020-09-01T11:51:30.696Z</time>
</trkpt>
<trkpt lat="31.7929300" lon="35.0051800">
<ele>375.199982</ele>
<time>2020-09-01T11:51:30.696Z</time>
</trkpt>
<trkpt lat="31.7927400" lon="35.0053800">
<ele>374.910004</ele>
<time>2020-09-01T11:51:30.696Z</time>
</trkpt>
<trkpt lat="31.7927200" lon="35.0054100">
<ele>374.890015</ele>
<time>2020-09-01T11:51:30.696Z</time>
</trkpt>
<trkpt lat="31.7914100" lon="35.0066400">
<ele>376.880005</ele>
<time>2020-09-01T11:51:30.696Z</time>
</trkpt>
<trkpt lat="31.7910800" lon="35.0069500">
<ele>370.539978</ele>
<time>2020-09-01T11:51:30.696Z</time>
</trkpt>
<trkpt lat="31.7907300" lon="35.0072000">
<ele>368.929993</ele>
<time>2020-09-01T11:51:30.696Z</time>
</trkpt>
<trkpt lat="31.7905600" lon="35.0073500">
<ele>370.369995</ele>
<time>2020-09-01T11:51:30.696Z</time>
</trkpt>
<trkpt lat="31.7902400" lon="35.0078800">
<ele>372.509979</ele>
<time>2020-09-01T11:51:30.696Z</time>
</trkpt>
<trkpt lat="31.7900400" lon="35.0081700">
<ele>372.559998</ele>
<time>2020-09-01T11:51:30.696Z</time>
</trkpt>
<trkpt lat="31.7899000" lon="35.0083600">
<ele>372.059998</ele>
<time>2020-09-01T11:51:30.696Z</time>
</trkpt>
<trkpt lat="31.7897800" lon="35.0084600">
<ele>372.089996</ele>
<time>2020-09-01T11:51:30.696Z</time>
</trkpt>
<trkpt lat="31.7895900" lon="35.0085500">
<ele>371.689972</ele>
<time>2020-09-01T11:51:30.696Z</time>
</trkpt>
<trkpt lat="31.7895000" lon="35.0085800">
<ele>371.730011</ele>
<time>2020-09-01T11:51:30.696Z</time>
</trkpt>
<trkpt lat="31.7890900" lon="35.0087000">
<ele>363.330017</ele>
<time>2020-09-01T11:51:30.696Z</time>
</trkpt>
<trkpt lat="31.7886900" lon="35.0088600">
<ele>358.840027</ele>
<time>2020-09-01T11:51:30.696Z</time>
</trkpt>
<trkpt lat="31.7885200" lon="35.0089100">
<ele>356.639984</ele>
<time>2020-09-01T11:51:30.696Z</time>
</trkpt>
<trkpt lat="31.7880900" lon="35.0089800">
<ele>353.289978</ele>
<time>2020-09-01T11:51:30.696Z</time>
</trkpt>
<trkpt lat="31.7877500" lon="35.0091200">
<ele>354.890015</ele>
<time>2020-09-01T11:51:30.696Z</time>
</trkpt>
<trkpt lat="31.7876200" lon="35.0091500">
<ele>356.079987</ele>
<time>2020-09-01T11:51:30.696Z</time>
</trkpt>
<trkpt lat="31.7874900" lon="35.0091600">
<ele>356.749969</ele>
<time>2020-09-01T11:51:30.696Z</time>
</trkpt>
<trkpt lat="31.7874500" lon="35.0091500">
<ele>356.329987</ele>
<time>2020-09-01T11:51:30.696Z</time>
</trkpt>
<trkpt lat="31.7874500" lon="35.0091500">
<ele>356.329987</ele>
<time>2020-09-01T11:51:30.696Z</time>
</trkpt>
<trkpt lat="31.7874500" lon="35.0091500">
<ele>356.329987</ele>
<time>2020-09-01T11:51:30.696Z</time>
</trkpt>
<trkpt lat="31.7872800" lon="35.0091300">
<ele>355.540009</ele>
<time>2020-09-01T11:51:30.696Z</time>
</trkpt>
<trkpt lat="31.7869000" lon="35.0090300">
<ele>355.220001</ele>
<time>2020-09-01T11:51:30.696Z</time>
</trkpt>
<trkpt lat="31.7863600" lon="35.0089300">
<ele>344.020020</ele>
<time>2020-09-01T11:51:30.697Z</time>
</trkpt>
<trkpt lat="31.7859500" lon="35.0088900">
<ele>343.179993</ele>
<time>2020-09-01T11:51:30.697Z</time>
</trkpt>
<trkpt lat="31.7856700" lon="35.0089400">
<ele>342.779999</ele>
<time>2020-09-01T11:51:30.697Z</time>
</trkpt>
<trkpt lat="31.7855000" lon="35.0090100">
<ele>343.359985</ele>
<time>2020-09-01T11:51:30.697Z</time>
</trkpt>
<trkpt lat="31.7853400" lon="35.0091100">
<ele>346.510010</ele>
<time>2020-09-01T11:51:30.697Z</time>
</trkpt>
<trkpt lat="31.7852100" lon="35.0092200">
<ele>347.880005</ele>
<time>2020-09-01T11:51:30.697Z</time>
</trkpt>
<trkpt lat="31.7851500" lon="35.0093000">
<ele>348.600006</ele>
<time>2020-09-01T11:51:30.697Z</time>
</trkpt>
<trkpt lat="31.7850200" lon="35.0095600">
<ele>351.390015</ele>
<time>2020-09-01T11:51:30.697Z</time>
</trkpt>
<trkpt lat="31.7849900" lon="35.0096800">
<ele>353.010010</ele>
<time>2020-09-01T11:51:30.697Z</time>
</trkpt>
<trkpt lat="31.7849400" lon="35.0100100">
<ele>355.989990</ele>
<time>2020-09-01T11:51:30.697Z</time>
</trkpt>
<trkpt lat="31.7849200" lon="35.0102600">
<ele>357.430023</ele>
<time>2020-09-01T11:51:30.697Z</time>
</trkpt>
<trkpt lat="31.7849200" lon="35.0102600">
<ele>357.430023</ele>
<time>2020-09-01T11:51:30.697Z</time>
</trkpt>
<trkpt lat="31.7848900" lon="35.0106900">
<ele>355.500000</ele>
<time>2020-09-01T11:51:30.697Z</time>
</trkpt>
<trkpt lat="31.7849000" lon="35.0107900">
<ele>356.040009</ele>
<time>2020-09-01T11:51:30.697Z</time>
</trkpt>
<trkpt lat="31.7849500" lon="35.0110100">
<ele>358.889984</ele>
<time>2020-09-01T11:51:30.697Z</time>
</trkpt>
<trkpt lat="31.7850100" lon="35.0111300">
<ele>360.380005</ele>
<time>2020-09-01T11:51:30.697Z</time>
</trkpt>
<trkpt lat="31.7851200" lon="35.0112400">
<ele>356.020020</ele>
<time>2020-09-01T11:51:30.697Z</time>
</trkpt>
<trkpt lat="31.7852700" lon="35.0113200">
<ele>351.850006</ele>
<time>2020-09-01T11:51:30.697Z</time>
</trkpt>
<trkpt lat="31.7854600" lon="35.0113700">
<ele>350.389984</ele>
<time>2020-09-01T11:51:30.697Z</time>
</trkpt>
<trkpt lat="31.7855200" lon="35.0113700">
<ele>350.360016</ele>
<time>2020-09-01T11:51:30.697Z</time>
</trkpt>
<trkpt lat="31.7857400" lon="35.0112900">
<ele>351.350006</ele>
<time>2020-09-01T11:51:30.697Z</time>
</trkpt>
<trkpt lat="31.7859200" lon="35.0111800">
<ele>351.799988</ele>
<time>2020-09-01T11:51:30.697Z</time>
</trkpt>
<trkpt lat="31.7860800" lon="35.0110500">
<ele>351.860016</ele>
<time>2020-09-01T11:51:30.697Z</time>
</trkpt>
<trkpt lat="31.7863300" lon="35.0107800">
<ele>354.059998</ele>
<time>2020-09-01T11:51:30.697Z</time>
</trkpt>
<trkpt lat="31.7864500" lon="35.0106900">
<ele>353.390015</ele>
<time>2020-09-01T11:51:30.697Z</time>
</trkpt>
<trkpt lat="31.7865500" lon="35.0106200">
<ele>353.419983</ele>
<time>2020-09-01T11:51:30.697Z</time>
</trkpt>
<trkpt lat="31.7867700" lon="35.0105400">
<ele>354.070007</ele>
<time>2020-09-01T11:51:30.697Z</time>
</trkpt>
<trkpt lat="31.7870700" lon="35.0105100">
<ele>354.980011</ele>
<time>2020-09-01T11:51:30.697Z</time>
</trkpt>
<trkpt lat="31.7876500" lon="35.0105400">
<ele>353.350006</ele>
<time>2020-09-01T11:51:30.697Z</time>
</trkpt>
<trkpt lat="31.7886500" lon="35.0104400">
<ele>353.400024</ele>
<time>2020-09-01T11:51:30.697Z</time>
</trkpt>
<trkpt lat="31.7888000" lon="35.0104600">
<ele>351.220001</ele>
<time>2020-09-01T11:51:30.697Z</time>
</trkpt>
<trkpt lat="31.7889800" lon="35.0105200">
<ele>350.450012</ele>
<time>2020-09-01T11:51:30.697Z</time>
</trkpt>
<trkpt lat="31.7894500" lon="35.0106000">
<ele>351.140015</ele>
<time>2020-09-01T11:51:30.697Z</time>
</trkpt>
<trkpt lat="31.7897500" lon="35.0105200">
<ele>349.250000</ele>
<time>2020-09-01T11:51:30.697Z</time>
</trkpt>
<trkpt lat="31.7899400" lon="35.0104000">
<ele>350.209991</ele>
<time>2020-09-01T11:51:30.697Z</time>
</trkpt>
<trkpt lat="31.7901500" lon="35.0102800">
<ele>353.480011</ele>
<time>2020-09-01T11:51:30.697Z</time>
</trkpt>
<trkpt lat="31.7902500" lon="35.0102600">
<ele>354.290009</ele>
<time>2020-09-01T11:51:30.697Z</time>
</trkpt>
<trkpt lat="31.7905100" lon="35.0102900">
<ele>354.560028</ele>
<time>2020-09-01T11:51:30.697Z</time>
</trkpt>
<trkpt lat="31.7911600" lon="35.0104500">
<ele>352.089996</ele>
<time>2020-09-01T11:51:30.697Z</time>
</trkpt>
<trkpt lat="31.7911600" lon="35.0104500">
<ele>352.089996</ele>
<time>2020-09-01T11:51:30.697Z</time>
</trkpt>
<trkpt lat="31.7911600" lon="35.0104500">
<ele>352.089996</ele>
<time>2020-09-01T11:51:30.697Z</time>
</trkpt>
<trkpt lat="31.7911600" lon="35.0104500">
<ele>352.089996</ele>
<time>2020-09-01T11:51:30.697Z</time>
</trkpt>
<trkpt lat="31.7912200" lon="35.0104600">
<ele>353.339996</ele>
<time>2020-09-01T11:51:30.697Z</time>
</trkpt>
<trkpt lat="31.7919500" lon="35.0107000">
<ele>349.910004</ele>
<time>2020-09-01T11:51:30.697Z</time>
</trkpt>
<trkpt lat="31.7921700" lon="35.0107500">
<ele>350.509979</ele>
<time>2020-09-01T11:51:30.697Z</time>
</trkpt>
<trkpt lat="31.7924300" lon="35.0108600">
<ele>349.299988</ele>
<time>2020-09-01T11:51:30.697Z</time>
</trkpt>
<trkpt lat="31.7925900" lon="35.0110400">
<ele>349.500000</ele>
<time>2020-09-01T11:51:30.698Z</time>
</trkpt>
<trkpt lat="31.7927400" lon="35.0112800">
<ele>353.119995</ele>
<time>2020-09-01T11:51:30.698Z</time>
</trkpt>
<trkpt lat="31.7929200" lon="35.0116500">
<ele>354.959991</ele>
<time>2020-09-01T11:51:30.698Z</time>
</trkpt>
<trkpt lat="31.7931900" lon="35.0120400">
<ele>353.390015</ele>
<time>2020-09-01T11:51:30.698Z</time>
</trkpt>
<trkpt lat="31.7934100" lon="35.0125600">
<ele>347.840027</ele>
<time>2020-09-01T11:51:30.698Z</time>
</trkpt>
<trkpt lat="31.7935800" lon="35.0128000">
<ele>347.960022</ele>
<time>2020-09-01T11:51:30.698Z</time>
</trkpt>
<trkpt lat="31.7938400" lon="35.0131600">
<ele>347.289978</ele>
<time>2020-09-01T11:51:30.698Z</time>
</trkpt>
<trkpt lat="31.7940400" lon="35.0136800">
<ele>342.140015</ele>
<time>2020-09-01T11:51:30.698Z</time>
</trkpt>
<trkpt lat="31.7941800" lon="35.0138700">
<ele>340.109985</ele>
<time>2020-09-01T11:51:30.698Z</time>
</trkpt>
<trkpt lat="31.7945700" lon="35.0140000">
<ele>337.189972</ele>
<time>2020-09-01T11:51:30.698Z</time>
</trkpt>
<trkpt lat="31.7959300" lon="35.0142600">
<ele>320.759979</ele>
<time>2020-09-01T11:51:30.698Z</time>
</trkpt>
<trkpt lat="31.7960200" lon="35.0142400">
<ele>320.500000</ele>
<time>2020-09-01T11:51:30.698Z</time>
</trkpt>
<trkpt lat="31.7964100" lon="35.0143100">
<ele>314.660004</ele>
<time>2020-09-01T11:51:30.698Z</time>
</trkpt>
<trkpt lat="31.7967400" lon="35.0143300">
<ele>309.710022</ele>
<time>2020-09-01T11:51:30.698Z</time>
</trkpt>
<trkpt lat="31.7970100" lon="35.0143000">
<ele>307.250000</ele>
<time>2020-09-01T11:51:30.698Z</time>
</trkpt>
<trkpt lat="31.7976700" lon="35.0140800">
<ele>305.630005</ele>
<time>2020-09-01T11:51:30.698Z</time>
</trkpt>
<trkpt lat="31.7979700" lon="35.0139300">
<ele>303.510010</ele>
<time>2020-09-01T11:51:30.698Z</time>
</trkpt>
<trkpt lat="31.7979700" lon="35.0139300">
<ele>303.510010</ele>
<time>2020-09-01T11:51:30.698Z</time>
</trkpt>
<trkpt lat="31.7979700" lon="35.0139300">
<ele>303.510010</ele>
<time>2020-09-01T11:51:30.698Z</time>
</trkpt>
<trkpt lat="31.7979900" lon="35.0139200">
<ele>303.390015</ele>
<time>2020-09-01T11:51:30.698Z</time>
</trkpt>
<trkpt lat="31.7981000" lon="35.0137700">
<ele>302.739990</ele>
<time>2020-09-01T11:51:30.698Z</time>
</trkpt>
<trkpt lat="31.7981800" lon="35.0136900">
<ele>301.410004</ele>
<time>2020-09-01T11:51:30.698Z</time>
</trkpt>
<trkpt lat="31.7983600" lon="35.0138700">
<ele>299.309998</ele>
<time>2020-09-01T11:51:30.698Z</time>
</trkpt>
<trkpt lat="31.7985100" lon="35.0134100">
<ele>297.739990</ele>
<time>2020-09-01T11:51:30.698Z</time>
</trkpt>
<trkpt lat="31.7985500" lon="35.0133400">
<ele>298.160004</ele>
<time>2020-09-01T11:51:30.698Z</time>
</trkpt>
<trkpt lat="31.7985900" lon="35.0132900">
<ele>298.720001</ele>
<time>2020-09-01T11:51:30.698Z</time>
</trkpt>
<trkpt lat="31.7986400" lon="35.0132600">
<ele>298.609985</ele>
<time>2020-09-01T11:51:30.698Z</time>
</trkpt>
<trkpt lat="31.7987000" lon="35.0132300">
<ele>298.089996</ele>
<time>2020-09-01T11:51:30.698Z</time>
</trkpt>
<trkpt lat="31.7987500" lon="35.0132200">
<ele>297.429993</ele>
<time>2020-09-01T11:51:30.698Z</time>
</trkpt>
<trkpt lat="31.7988100" lon="35.0132100">
<ele>296.589996</ele>
<time>2020-09-01T11:51:30.698Z</time>
</trkpt>
<trkpt lat="31.7988600" lon="35.0132200">
<ele>295.679993</ele>
<time>2020-09-01T11:51:30.698Z</time>
</trkpt>
<trkpt lat="31.7989200" lon="35.0132300">
<ele>294.440002</ele>
<time>2020-09-01T11:51:30.698Z</time>
</trkpt>
<trkpt lat="31.7990000" lon="35.0132600">
<ele>292.390015</ele>
<time>2020-09-01T11:51:30.698Z</time>
</trkpt>
<trkpt lat="31.7989000" lon="35.0138100">
<ele>291.149994</ele>
<time>2020-09-01T11:51:30.698Z</time>
</trkpt>
<trkpt lat="31.7993900" lon="35.0139700">
<ele>289.660004</ele>
<time>2020-09-01T11:51:30.698Z</time>
</trkpt>
<trkpt lat="31.7994400" lon="35.0139800">
<ele>289.670013</ele>
<time>2020-09-01T11:51:30.698Z</time>
</trkpt>
<trkpt lat="31.7995600" lon="35.0140400">
<ele>289.229980</ele>
<time>2020-09-01T11:51:30.698Z</time>
</trkpt>
<trkpt lat="31.7997200" lon="35.0140300">
<ele>288.990021</ele>
<time>2020-09-01T11:51:30.698Z</time>
</trkpt>
<trkpt lat="31.8001400" lon="35.0140700">
<ele>293.130005</ele>
<time>2020-09-01T11:51:30.698Z</time>
</trkpt>
<trkpt lat="31.8006400" lon="35.0141900">
<ele>290.640015</ele>
<time>2020-09-01T11:51:30.698Z</time>
</trkpt>
<trkpt lat="31.8006400" lon="35.0141900">
<ele>290.640015</ele>
<time>2020-09-01T11:51:30.698Z</time>
</trkpt>
<trkpt lat="31.8006400" lon="35.0141900">
<ele>290.640015</ele>
<time>2020-09-01T11:51:30.698Z</time>
</trkpt>
<trkpt lat="31.8011200" lon="35.0143700">
<ele>296.369995</ele>
<time>2020-09-01T11:51:30.698Z</time>
</trkpt>
<trkpt lat="31.8014800" lon="35.0145400">
<ele>296.730011</ele>
<time>2020-09-01T11:51:30.698Z</time>
</trkpt>
<trkpt lat="31.8016800" lon="35.0146600">
<ele>296.410004</ele>
<time>2020-09-01T11:51:30.698Z</time>
</trkpt>
<trkpt lat="31.8022300" lon="35.0151000">
<ele>298.669983</ele>
<time>2020-09-01T11:51:30.698Z</time>
</trkpt>
<trkpt lat="31.8027800" lon="35.0155300">
<ele>299.119995</ele>
<time>2020-09-01T11:51:30.699Z</time>
</trkpt>
<trkpt lat="31.8032400" lon="35.0157700">
<ele>305.640015</ele>
<time>2020-09-01T11:51:30.699Z</time>
</trkpt>
<trkpt lat="31.8038300" lon="35.0161100">
<ele>317.720001</ele>
<time>2020-09-01T11:51:30.699Z</time>
</trkpt>
<trkpt lat="31.8038300" lon="35.0161100">
<ele>317.720001</ele>
<time>2020-09-01T11:51:30.699Z</time>
</trkpt>
<trkpt lat="31.8038300" lon="35.0161100">
<ele>317.720001</ele>
<time>2020-09-01T11:51:30.699Z</time>
</trkpt>
<trkpt lat="31.8043300" lon="35.0164000">
<ele>321.559967</ele>
<time>2020-09-01T11:51:30.699Z</time>
</trkpt>
<trkpt lat="31.8048700" lon="35.0167000">
<ele>321.630005</ele>
<time>2020-09-01T11:51:30.699Z</time>
</trkpt>
<trkpt lat="31.8055100" lon="35.0170300">
<ele>318.720001</ele>
<time>2020-09-01T11:51:30.699Z</time>
</trkpt>
<trkpt lat="31.8058300" lon="35.0172200">
<ele>314.079987</ele>
<time>2020-09-01T11:51:30.699Z</time>
</trkpt>
<trkpt lat="31.8066800" lon="35.0174300">
<ele>309.059998</ele>
<time>2020-09-01T11:51:30.699Z</time>
</trkpt>
<trkpt lat="31.8068500" lon="35.0174900">
<ele>305.830017</ele>
<time>2020-09-01T11:51:30.699Z</time>
</trkpt>
<trkpt lat="31.8072400" lon="35.0176900">
<ele>300.500000</ele>
<time>2020-09-01T11:51:30.699Z</time>
</trkpt>
<trkpt lat="31.8073300" lon="35.0177300">
<ele>301.619995</ele>
<time>2020-09-01T11:51:30.699Z</time>
</trkpt>
<trkpt lat="31.8074000" lon="35.0177300">
<ele>302.250000</ele>
<time>2020-09-01T11:51:30.699Z</time>
</trkpt>
<trkpt lat="31.8074300" lon="35.0177300">
<ele>302.510010</ele>
<time>2020-09-01T11:51:30.699Z</time>
</trkpt>
<trkpt lat="31.8074300" lon="35.0177300">
<ele>302.510010</ele>
<time>2020-09-01T11:51:30.699Z</time>
</trkpt>
<trkpt lat="31.8077100" lon="35.0176000">
<ele>299.500000</ele>
<time>2020-09-01T11:51:30.699Z</time>
</trkpt>
<trkpt lat="31.8077100" lon="35.0176000">
<ele>299.500000</ele>
<time>2020-09-01T11:51:30.699Z</time>
</trkpt>
<trkpt lat="31.8079300" lon="35.0174000">
<ele>297.130005</ele>
<time>2020-09-01T11:51:30.699Z</time>
</trkpt>
<trkpt lat="31.8079300" lon="35.0174000">
<ele>297.130005</ele>
<time>2020-09-01T11:51:30.699Z</time>
</trkpt>
<trkpt lat="31.8081000" lon="35.0173100">
<ele>297.049988</ele>
<time>2020-09-01T11:51:30.699Z</time>
</trkpt>
<trkpt lat="31.8081000" lon="35.0173100">
<ele>297.049988</ele>
<time>2020-09-01T11:51:30.699Z</time>
</trkpt>
<trkpt lat="31.8083600" lon="35.0173800">
<ele>297.950012</ele>
<time>2020-09-01T11:51:30.699Z</time>
</trkpt>
<trkpt lat="31.8083600" lon="35.0173800">
<ele>297.950012</ele>
<time>2020-09-01T11:51:30.699Z</time>
</trkpt>
<trkpt lat="31.8085300" lon="35.0175400">
<ele>301.020020</ele>
<time>2020-09-01T11:51:30.699Z</time>
</trkpt>
<trkpt lat="31.8085300" lon="35.0175400">
<ele>301.020020</ele>
<time>2020-09-01T11:51:30.699Z</time>
</trkpt>
<trkpt lat="31.8087200" lon="35.0179100">
<ele>301.890015</ele>
<time>2020-09-01T11:51:30.699Z</time>
</trkpt>
<trkpt lat="31.8087200" lon="35.0179100">
<ele>301.890015</ele>
<time>2020-09-01T11:51:30.699Z</time>
</trkpt>
<trkpt lat="31.8089000" lon="35.0179900">
<ele>298.350006</ele>
<time>2020-09-01T11:51:30.699Z</time>
</trkpt>
<trkpt lat="31.8089000" lon="35.0179900">
<ele>298.350006</ele>
<time>2020-09-01T11:51:30.699Z</time>
</trkpt>
<trkpt lat="31.8089000" lon="35.0179900">
<ele>298.350006</ele>
<time>2020-09-01T11:51:30.699Z</time>
</trkpt>
<trkpt lat="31.8094800" lon="35.0182500">
<ele>292.010010</ele>
<time>2020-09-01T11:51:30.699Z</time>
</trkpt>
<trkpt lat="31.8095600" lon="35.0180900">
<ele>290.319977</ele>
<time>2020-09-01T11:51:30.699Z</time>
</trkpt>
<trkpt lat="31.8096400" lon="35.0177100">
<ele>288.350006</ele>
<time>2020-09-01T11:51:30.699Z</time>
</trkpt>
<trkpt lat="31.8096400" lon="35.0176800">
<ele>288.240021</ele>
<time>2020-09-01T11:51:30.699Z</time>
</trkpt>
<trkpt lat="31.8096400" lon="35.0176800">
<ele>288.240021</ele>
<time>2020-09-01T11:51:30.699Z</time>
</trkpt>
<trkpt lat="31.8096400" lon="35.0176800">
<ele>288.240021</ele>
<time>2020-09-01T11:51:30.699Z</time>
</trkpt>
<trkpt lat="31.8096700" lon="35.0175400">
<ele>287.519989</ele>
<time>2020-09-01T11:51:30.699Z</time>
</trkpt>
<trkpt lat="31.8098200" lon="35.0170700">
<ele>286.190002</ele>
<time>2020-09-01T11:51:30.699Z</time>
</trkpt>
<trkpt lat="31.8100100" lon="35.0165600">
<ele>284.130005</ele>
<time>2020-09-01T11:51:30.699Z</time>
</trkpt>
<trkpt lat="31.8101500" lon="35.0161200">
<ele>284.570007</ele>
<time>2020-09-01T11:51:30.699Z</time>
</trkpt>
<trkpt lat="31.8102800" lon="35.0157800">
<ele>283.200012</ele>
<time>2020-09-01T11:51:30.699Z</time>
</trkpt>
<trkpt lat="31.8103500" lon="35.0154900">
<ele>284.700012</ele>
<time>2020-09-01T11:51:30.699Z</time>
</trkpt>
<trkpt lat="31.8104700" lon="35.0151900">
<ele>285.110016</ele>
<time>2020-09-01T11:51:30.699Z</time>
</trkpt>
<trkpt lat="31.8105300" lon="35.0149400">
<ele>283.160004</ele>
<time>2020-09-01T11:51:30.699Z</time>
</trkpt>
<trkpt lat="31.8107500" lon="35.0145400">
<ele>277.410004</ele>
<time>2020-09-01T11:51:30.699Z</time>
</trkpt>
</trkseg>
</trk>
</gpx>
